[[{"header":{"parameterUnit":"m.s-1","parameterCategory":1,"la1":30.6,"la2":29.2853,"lo1":-89.7004,"lo2":-87.6739,"dy":0.0162,"dx":0.0183,"nx":112,"ny":82,"refTime":"2024-08-26T06:00:00:Z","depth":0,"parameterNumber":2,"parameterNumberName":"U-component_of_WINDS"},"data":[0.0,0.0,0.0,0.0,0.0,0.0,0.0,0.0,0.0,0.0,0.0,0.0,0.0,0.0,0.0,0.0,0.0,0.0,0.0,0.0,0.0,0.0,0.0,0.0,0.0,0.0,0.0,0.0,0.0,0.0,0.0,0.0,0.0,0.0,0.0,0.0,0.0,0.0,0.0,0.0,0.0,0.0,0.0,0.0,0.0,0.0,0.0,0.0,0.0,0.0,0.0,0.0,0.0,0.0,0.0,0.0,0.0,0.0,0.0,0.0,0.0,0.0,0.0,0.0,0.0,0.0,0.0,0.0,0.0,0.0,0.0,0.0,0.0,0.0,0.0,0.0,0.0,0.0,0.0,0.0,0.0,0.0,0.0,0.0,0.0,0.0,0.0,0.0,0.0,0.0,-0.0073,-0.0207,0.0042,0.0358,0.0783,0.1119,0.1269,0.111,0.0,0.0,0.0,0.0,0.0,0.0,0.0,0.0,0.0,0.0,0.0,0.0,0.0,0.0,0.0,0.0,0.0,0.0,0.0,0.0,0.0,0.0,0.0,0.0,0.0,0.0,0.0,0.0,0.0,0.0,0.0,0.0,0.0,0.0,0.0,0.0,0.0,0.0,0.0,0.0,0.0,0.0,0.0,0.0,0.0,0.0,0.0,0.0,0.0,0.0,0.0,0.0,0.0,0.0,0.0,0.0,0.0,0.0,0.0,0.0,0.0,0.0,0.0,0.0,0.0,0.0,0.0,0.0,0.0,0.0,0.0,0.0,0.0,0.0,0.0,0.0,0.0,0.0,0.0,0.0,0.0,0.0,0.0,0.0,0.0,0.0,0.0,0.0,0.0,0.0,0.0,0.0,0.0,0.0,0.0,0.0,0.0,0.0,0.0,0.0,0.0,0.0,0.0,0.0,-0.0729,-0.1135,-0.0907,-0.038,0.0403,0.0783,0.1018,0.1093,0.0,0.0,0.0,0.0,0.0,0.0,0.0,0.0,0.0,0.0,0.0,0.0,0.0,0.0,0.0,0.0,0.0,0.0,0.0,0.0,0.0,0.0,0.0,0.0,0.0,0.0,0.0,0.0,0.0,0.0,0.0,0.0,0.0,0.0,0.0,0.0,0.0,0.0,0.0,0.0,0.0,0.0,0.0,0.0,0.0,0.0,0.0,0.0,0.0,0.0,0.0,0.0,0.0,0.0,0.0,0.0,0.0,0.0,0.0,0.0,0.0,0.0,0.0,0.0,0.0,0.0,0.0,0.0,0.0,0.0,0.0,0.0,0.0,0.0,0.0,0.0,0.0,0.0,0.0,0.0,0.0,0.0,0.0,0.0,0.0,0.0,0.0,0.0,0.0,0.0,0.0,0.0,0.0,0.0,0.0,0.0,0.0,0.0,0.0,0.0,0.0,0.0,0.0,-0.0655,-0.0979,-0.1545,-0.1186,-0.0671,-0.0134,0.0514,0.0873,0.0785,0.0976,0.0,0.0,0.0,0.0,0.0,0.0,0.0,0.0,0.0,0.0,0.0,0.0,0.0,0.0,0.0,0.0,0.0,0.0,0.0,0.0,0.0,0.0,0.0,0.0,0.0,0.0,0.0,0.0,0.0,0.0,0.0,0.0,0.0,0.0,0.0,0.0,0.0,0.0,0.0,0.0,0.0,0.0,0.0,0.0,0.0,0.0,0.0,0.0,0.0,0.0,0.0,0.0,0.0,0.0,0.0,0.0,0.0,0.0,0.0,0.0,0.0,0.0,0.0,0.0,0.0,0.0,0.0,0.0,0.0,0.0,0.0,0.0,0.0,0.0,0.0,0.0,0.0,0.0,0.0,0.0,0.0,0.0,0.0,0.0,0.0,0.0,0.0,0.0,0.0,0.0,0.0,0.0,0.0,0.0,0.0,0.0,0.0,0.0,0.0,0.0,0.0,0.0,-0.1031,-0.1302,-0.1753,-0.1389,-0.0962,-0.0626,0.011,0.0508,0.0443,0.0745,0.0,0.0,0.0,0.0,0.0,0.0,0.0,0.0,0.0,0.0,0.0,0.0,0.0,0.0,0.0,0.0,0.0,0.0,0.0,0.0,0.0,0.0,0.0,0.0,0.0,0.0,0.0,0.0,0.0,0.0,0.0,0.0,0.0,0.0,0.0,0.0,0.0,0.0,0.0,0.0,0.0,0.0,0.0,0.0,0.0,0.0,0.0,0.0,0.0,0.0,0.0,0.0,0.0,0.0,0.0,0.0,0.0,0.0,0.0,0.0,0.0,0.0,0.0,0.0,0.0,0.0,0.0,0.0,0.0,0.0,0.0,0.0,0.0,0.0,0.0,0.0,0.0,0.0,0.0,0.0,0.0,0.0,0.0,0.0,0.0,0.0,0.0,0.0,0.0,0.0,0.0,0.0,0.0,0.0,0.0,0.0,0.0,0.0,0.0,0.0,0.0,0.0,-0.1722,-0.2023,-0.1815,-0.177,-0.15,-0.0918,-0.0643,-0.0283,0.0186,0.0358,0.0,0.0,0.0,0.0,0.0,0.0,0.0,0.0,0.0,0.0,0.0,0.0,0.0,0.0,0.0,0.0,0.0,0.0,0.0,0.0,0.0,0.0,0.0,0.0,0.0,0.0,0.0,0.0,0.0,0.0,0.0,0.0,0.0,0.0,0.0,0.0,0.0,0.0,0.0,0.0,0.0,0.0,0.0,0.0,0.0,0.0,0.0,0.0,0.0,0.0,0.0,0.0,0.0,0.0,0.0,0.0,0.0,0.0,0.0,0.0,0.0,0.0,0.0,0.0,0.0,0.0,0.0,0.0,0.0,0.0,0.0,0.0,0.0,0.0,0.0,0.0,0.0,0.0,0.0,0.0,0.0,0.0,0.0,0.0,0.0,0.0,0.0,0.0,0.0,0.0,0.0,0.0,0.0,0.0,0.0,0.0,0.0,0.0,0.0,0.0,0.0,0.0,-0.1525,-0.1794,-0.203,-0.1906,-0.1703,-0.1478,-0.1043,-0.0621,-0.0204,0.0,0.0,0.0,0.0,0.0,0.0,0.0,0.0,0.0,0.0,0.0,0.0,0.0,0.0,0.0,0.0,0.0,0.0,0.0,0.0,0.0,0.0,0.0,0.0,0.0,0.0,0.0,0.0,0.0,0.0,0.0,0.0,0.0,0.0,0.0,0.0,0.0,0.0,0.0,0.0,0.0,0.0,0.0,0.0,0.0,0.0,0.0,0.0,0.0,0.0,0.0,0.0,0.0,0.0,0.0,0.0,0.0,0.0,0.0,0.0,0.0,0.0,0.0,0.0,0.0,0.0,0.0,0.0,0.0,0.0,0.0,0.0,0.0,0.0,0.0,0.0,0.0,0.0,0.0,0.0,0.0,0.0,0.0,0.0,0.0,0.0,0.0,0.0,0.0,0.0,0.0,0.0,0.0,0.0,0.0,0.0,0.0,0.0,0.0,0.0,0.0,0.0,-0.1348,-0.1555,-0.1783,-0.2164,-0.2042,-0.1928,-0.1928,-0.1485,-0.1047,-0.068,0.0,0.0,0.0,0.0,0.0,0.0,0.0,0.0,0.0,0.0,0.0,0.0,0.0,0.0,0.0,0.0,0.0,0.0,0.0,0.0,0.0,0.0,0.0,0.0,0.0,0.0,0.0,0.0,0.0,0.0,0.0,0.0,0.0,0.0,0.0,0.0,0.0,0.0,0.0,0.0,0.0,0.0,0.0,0.0,0.0,0.0,0.0,0.0,0.0,0.0,0.0,0.0,0.0,0.0,0.0,0.0,0.0,0.0,0.0,0.0,0.0,0.0,0.0,0.0,0.0,0.0,0.0,0.0,0.0,0.0,0.0,0.0,0.0,0.0,0.0,0.0,0.0,0.0,0.0,0.0,0.0,0.0,0.0,0.0,0.0,0.0,0.0,0.0,0.0,0.0,0.0,0.0,0.0,0.0,0.0,0.0,0.0,0.0,0.0,0.0,0.0,0.0,-0.1609,-0.1947,-0.2201,-0.2201,-0.2201,-0.2201,-0.2201,-0.2009,-0.1694,0.0,0.0,0.0,0.0,0.0,0.0,0.0,0.0,0.0,0.0,0.0,0.0,0.0,0.0,0.0,0.0,0.0,0.0,0.0,0.0,0.0,0.0,0.0,0.0,0.0,0.0,0.0,0.0,0.0,0.0,0.0,0.0,0.0,0.0,0.0,0.0,0.0,0.0,0.0,0.0,0.0,0.0,0.0,0.0,0.0,0.0,0.0,0.0,0.0,0.0,0.0,0.0,0.0,0.0,0.0,0.0,0.0,0.0,0.0,0.0,0.0,0.0,0.0,0.0,0.0,0.0,0.0,0.0,0.0,0.0,0.0,0.0,0.0,0.0,0.0,0.0,0.0,0.0,0.0,0.0,0.0,0.0,0.0,0.0,0.0,0.0,0.0,0.0,0.0,0.0,0.0,0.0,0.0,0.0,0.0,0.0,0.0,0.0,0.0,0.0,0.0,0.0,0.0,-0.1592,-0.1947,-0.2201,-0.2201,-0.2201,-0.2201,-0.2201,-0.2149,-0.1863,-0.1311,0.0,0.0,0.0,0.0,0.0,0.0,0.0,0.0,0.0,0.0,0.0,0.0,0.0,0.0,0.0,0.0,0.0,0.0,0.0,0.0,0.0,0.0,0.0,0.0,0.0,0.0,0.0,0.0,0.0,0.0,0.0,0.0,0.0,0.0,0.0,0.0,0.0,0.0,0.0,0.0,0.0,0.0,0.0,0.0,0.0,0.0,0.0,0.0,0.0,0.0,0.0,0.0,0.0,0.0,0.0,0.0,0.0,0.0,0.0,0.0,0.0,0.0,0.0,0.0,0.0,0.0,0.0,0.0,0.0,0.0,0.0,0.0,0.0,0.0,0.0,0.0,0.0,0.0,0.0,0.0,0.0,0.0,0.0,0.0,0.0,0.0,0.0,0.0,0.0,0.0,0.0,0.0,0.0,0.0,0.0,0.0,0.0,0.0,0.0,0.0,0.0,0.0,-0.179,-0.2189,-0.2505,-0.2593,-0.2486,-0.24,-0.24,-0.2288,-0.1994,-0.1494,0.0,0.0,0.0,0.0,0.0,0.0,0.0,0.0,0.0,0.0,0.0,0.0,0.0,0.0,0.0,0.0,0.0,0.0,0.0,0.0,0.0,0.0,0.0,0.0,0.0,0.0,0.0,0.0,0.0,0.0,0.0,0.0,0.0,0.0,0.0,0.0,0.0,0.0,0.0,0.0,0.0,0.0,0.0,0.0,0.0,0.0,0.0,0.0,0.0,0.0,0.0,0.0,0.0,0.0,0.0,0.0,0.0,0.0,0.0,0.0,0.0,0.0,0.0,0.0,0.0,0.0,0.0,0.0,0.0,0.0,0.0,0.0,0.0,0.0,0.0,0.0,0.0,0.0,0.0,0.0,0.0,0.0,0.0,0.0,0.0,0.0,0.0,0.0,0.0,0.0,0.0,0.0,0.0,0.0,0.0,0.0,0.0,0.0,0.0,0.0,0.0,0.0,-0.215,-0.2657,-0.3053,-0.3224,-0.2973,-0.2773,-0.2751,-0.2467,-0.2145,-0.1827,0.0,0.0,0.0,0.0,0.0,0.0,0.0,0.0,0.0,0.0,0.0,0.0,0.0,0.0,0.0,0.0,0.0,0.0,0.0,0.0,0.0,0.0,0.0,0.0,0.0,0.0,0.0,0.0,0.0,0.0,0.0,0.0,0.0,0.0,0.0,0.0,0.0,0.0,0.0,0.0,0.0,0.0,0.0,0.0,0.0,0.0,0.0,0.0,0.0,0.0,0.0,0.0,0.0,0.0,0.0,0.0,0.0,0.0,0.0,0.0,-0.1068,-0.0611,0.0,0.0,0.0,0.0,0.0,0.0,0.0,0.0,0.0,0.0,0.0,0.0,0.0,0.0,0.0,0.0,0.0,0.0,0.0,0.0,0.0,0.0,0.0,0.0,0.0,0.0,0.0,0.0,0.0,0.0,0.0,0.0,0.0,0.0,0.0,0.0,0.0,0.0,0.0,0.0,-0.2649,-0.3259,-0.3633,-0.3517,-0.3454,-0.3322,-0.3106,-0.3037,-0.2894,-0.2649,-0.2222,0.0,0.0,0.0,0.0,0.0,0.0,0.0,0.0,0.0,0.0,0.0,0.0,0.0,0.0,0.0,0.0,0.0,0.0,0.0,0.0,0.0,0.0,0.0,0.0,0.0,0.0,0.0,0.0,0.0,0.0,0.0,0.0,0.0,0.0,0.0,0.0,0.0,0.0,0.0,0.0,0.0,0.0,0.0,0.0,0.0,0.0,0.0,0.0,0.0,0.0,0.0,0.0,0.0,0.0,0.0,0.0,0.0,0.0,0.0,-0.223,-0.1813,0.0,0.0,0.0,0.0,0.0,0.0,0.0,0.0,0.0,0.0,0.0,0.0,0.0,0.0,0.0,0.0,0.0,0.0,0.0,0.0,0.0,0.0,0.0,0.0,0.0,0.0,0.0,0.0,0.0,0.0,0.0,0.0,0.0,0.0,0.0,0.0,0.0,0.0,0.0,0.0,-0.3441,-0.4068,-0.4506,-0.4596,-0.4355,-0.4127,-0.3991,-0.3694,-0.3484,-0.3332,-0.3012,0.0,0.0,0.0,0.0,0.0,0.0,0.0,0.0,0.0,0.0,0.0,0.0,0.0,0.0,0.0,0.0,0.0,0.0,0.0,0.0,0.0,0.0,0.0,0.0,0.0,0.0,0.0,0.0,0.0,0.0,0.0,0.0,0.0,0.0,0.0,0.0,0.0,0.0,0.0,0.0,0.0,0.0,0.0,0.0,0.0,0.0,0.0,0.0,0.0,0.0,0.0,0.0,0.0,-0.3477,-0.3329,-0.3323,-0.3325,-0.3535,-0.389,-0.3606,-0.3316,-0.3039,-0.2618,0.0,0.0,0.0,0.0,0.0,0.0,0.0,0.0,0.0,0.0,0.0,0.0,0.0,0.0,0.0,0.0,0.0,0.0,0.0,0.0,0.0,0.0,-0.4421,-0.456,-0.4592,-0.4457,-0.4017,0.0,0.0,0.0,0.0,0.0,0.0,0.0,0.0,0.0,0.0,0.0,-0.4276,-0.4927,-0.5439,-0.5722,-0.5319,-0.4971,-0.4889,-0.4439,-0.4097,-0.4007,-0.3838,-0.3569,0.0,0.0,0.0,0.0,0.0,0.0,0.0,0.0,0.0,0.0,0.0,0.0,0.0,0.0,0.0,0.0,0.0,0.0,0.0,0.0,0.0,0.0,0.0,0.0,0.0,0.0,0.0,0.0,0.0,0.0,0.0,0.0,-0.1393,-0.1556,0.0,0.0,0.0,0.0,0.0,0.0,0.0,0.0,0.0,0.0,0.0,0.0,0.0,-0.2738,-0.3174,-0.3643,-0.4022,-0.432,-0.4765,-0.498,-0.4996,-0.4973,-0.5026,-0.5099,-0.5567,0.0,-0.3778,-0.3759,0.0,0.0,0.0,0.0,0.0,0.0,0.0,0.0,0.0,0.0,0.0,0.0,0.0,0.0,0.0,0.0,0.0,0.0,0.0,0.0,0.0,0.0,-0.6283,-0.615,-0.6107,-0.6081,-0.6015,-0.4797,-0.3682,-0.3591,-0.3443,-0.323,0.0,0.0,0.0,0.0,0.0,0.0,-0.4968,-0.5717,-0.6171,-0.5975,-0.5877,-0.5668,-0.5278,-0.5167,-0.5042,-0.4843,-0.4453,-0.4147,-0.4039,-0.3437,0.0,0.0,0.0,0.0,0.0,0.0,0.0,0.0,0.0,0.0,0.0,0.0,0.0,0.0,0.0,0.0,0.0,0.0,0.0,0.0,0.0,0.0,0.0,0.0,0.0,0.0,0.0,0.0,0.0,-0.1532,-0.1883,-0.2009,-0.2159,-0.2287,0.0,0.0,0.0,0.0,0.0,0.0,0.0,0.0,0.0,-0.5313,-0.4198,-0.4001,-0.4855,-0.599,-0.6418,-0.6081,-0.6768,-0.7102,-0.7102,-0.7102,-0.7102,-0.7102,-0.7382,-0.712,-0.639,-0.5224,-0.4513,-0.4132,0.0,0.0,0.0,0.0,-0.4365,-0.4551,-0.4754,-0.5089,-0.5324,-0.486,0.0,0.0,0.0,0.0,0.0,0.0,0.0,-0.5542,-0.5802,-0.6284,-0.672,-0.6778,-0.6783,-0.6783,-0.6783,-0.6046,-0.5285,-0.4888,-0.4838,-0.4615,-0.3855,-0.3948,0.0,0.0,0.0,-0.532,-0.5768,-0.6261,-0.6582,-0.6628,-0.6471,-0.6306,-0.6115,-0.5845,-0.5662,-0.5565,-0.526,-0.5018,-0.4828,-0.435,-0.382,0.0,0.0,0.0,0.0,0.0,0.0,0.0,0.0,0.0,0.0,0.0,0.0,0.0,0.0,0.0,0.0,0.0,0.0,0.0,0.0,0.0,0.0,0.0,0.0,0.0,0.0,0.0,0.0,-0.2371,-0.2712,-0.2831,-0.3208,-0.3487,0.0,0.0,0.0,0.0,0.0,0.0,-0.6319,-0.6265,-0.6474,-0.706,-0.5988,-0.5824,-0.6691,-0.8069,-0.8399,-0.7683,-0.8247,-0.851,-0.851,-0.851,-0.851,-0.8516,-0.8657,-0.8627,-0.8364,-0.6774,-0.6011,-0.578,-0.5443,-0.5446,-0.5636,-0.5668,-0.5751,-0.5849,-0.5906,-0.6231,-0.654,-0.5888,-0.5734,-0.5692,-0.5146,0.0,0.0,0.0,0.0,-0.6046,-0.6466,-0.6697,-0.6843,-0.7042,-0.7112,-0.7112,-0.7112,-0.695,-0.6623,-0.6067,-0.604,-0.5814,-0.4885,-0.4851,0.0,-0.4955,-0.5319,-0.5798,-0.6406,-0.6656,-0.6865,-0.7069,-0.6929,-0.6774,-0.6715,-0.6387,-0.613,-0.6007,-0.5863,-0.5653,-0.541,-0.51,-0.4676,-0.4109,0.0,0.0,0.0,0.0,0.0,0.0,0.0,0.0,0.0,0.0,0.0,0.0,0.0,0.0,0.0,0.0,0.0,0.0,0.0,0.0,0.0,0.0,0.0,0.0,0.0,0.0,0.0,0.0,0.0,-0.455,-0.5324,0.0,0.0,0.0,0.0,-0.6076,-0.6241,-0.6865,-0.8098,-0.7806,-0.8078,-0.9112,-0.8642,-0.8393,-0.8387,-0.9074,-0.9122,-0.844,-0.8481,-0.851,-0.851,-0.851,-0.851,-0.8539,-0.903,-0.8972,-0.8481,-0.8399,-0.8217,-0.8033,-0.8021,-0.7623,-0.7159,-0.7577,-0.7443,-0.7056,-0.7233,-0.7328,-0.7319,-0.7085,-0.6709,-0.6344,-0.6307,-0.613,0.0,0.0,-0.6479,-0.6715,-0.6988,-0.7085,-0.7095,-0.7106,-0.7112,-0.7112,-0.7112,-0.7101,-0.6993,-0.6709,-0.6489,-0.6283,-0.5958,0.0,-0.5926,-0.5926,-0.6175,-0.6433,-0.6661,-0.6923,-0.7074,-0.7112,-0.7101,-0.6977,-0.6725,-0.6688,-0.6484,-0.6028,-0.5985,-0.59,-0.569,-0.5421,-0.5174,-0.495,-0.4458,0.0,0.0,0.0,0.0,0.0,0.0,0.0,0.0,0.0,0.0,0.0,0.0,0.0,0.0,0.0,0.0,0.0,0.0,0.0,0.0,0.0,0.0,0.0,0.0,0.0,0.0,0.0,0.0,-0.5684,-0.6262,0.0,-0.6396,-0.6914,-0.7376,-0.7712,-0.8227,-0.882,-0.9501,-0.9375,-0.9474,-0.9855,-0.9887,-0.989,-0.984,-1.0532,-1.0732,-1.0496,-1.0496,-1.0496,-1.0496,-1.0496,-1.0496,-1.0503,-1.0686,-1.0686,-1.0496,-1.0496,-0.9754,-0.8663,-0.8663,-0.8608,-0.8569,-0.8724,-0.8675,-0.8531,-0.8595,-0.8623,-0.8548,-0.8195,-0.7959,-0.7815,-0.7815,-0.7964,-0.818,-0.8496,-0.8646,-0.8769,-0.9075,-0.9151,-0.9,-0.8413,-0.8534,-0.8619,-0.8053,-0.7943,-0.8013,-0.8268,-0.7739,-0.7115,-0.6716,-0.6785,-0.6843,-0.6671,-0.6627,-0.6672,-0.6929,-0.7031,-0.7112,-0.7112,-0.7321,-0.7341,-0.6993,-0.7312,-0.7176,-0.6306,-0.6389,-0.632,-0.6024,-0.5922,-0.5756,-0.5511,-0.5217,-0.4598,0.0,0.0,0.0,0.0,0.0,0.0,0.0,0.0,0.0,0.0,0.0,0.0,0.0,0.0,0.0,0.0,0.0,0.0,0.0,0.0,0.0,0.0,0.0,0.0,0.0,-0.5705,-0.6526,-0.6807,-0.7472,-0.7881,-0.7784,-0.8456,-0.8977,-0.9255,-0.9736,-1.0165,-1.0479,-1.06,-1.0708,-1.0815,-1.1074,-1.1234,-1.1234,-1.168,-1.1882,-1.1882,-1.1882,-1.1882,-1.1882,-1.1882,-1.1882,-1.1882,-1.1882,-1.1882,-1.1882,-1.1882,-1.1217,-1.008,-0.9883,-0.9811,-0.9817,-0.9817,-0.9691,-0.9528,-0.9462,-0.9372,-0.9259,-0.8932,-0.8903,-0.8991,-0.8991,-0.9311,-0.9682,-0.9913,-0.997,-1.0021,-1.0236,-1.0286,-1.0151,-0.9533,-0.9653,-0.9736,-0.9166,-0.8944,-0.8951,-0.9311,-0.8599,-0.7901,-0.776,-0.7879,-0.7891,-0.7535,-0.7506,-0.755,-0.754,-0.7616,-0.7664,-0.7664,-0.783,-0.783,-0.7568,-0.7805,-0.7679,-0.6989,-0.6859,-0.6765,-0.6647,-0.6462,-0.6265,-0.6034,-0.5753,-0.5255,-0.4566,0.0,0.0,0.0,0.0,0.0,0.0,0.0,0.0,0.0,0.0,0.0,0.0,0.0,0.0,0.0,0.0,0.0,0.0,0.0,0.0,0.0,0.0,0.0,-0.5771,-0.6819,-0.7736,-0.7948,-0.9004,-0.977,-0.99,-1.0222,-1.0466,-1.0616,-1.0631,-1.0806,-1.1159,-1.1483,-1.1767,-1.2043,-1.2358,-1.2519,-1.2485,-1.2485,-1.2485,-1.2485,-1.2485,-1.2526,-1.2519,-1.2519,-1.2519,-1.2552,-1.2552,-1.2552,-1.2552,-1.2552,-1.2552,-1.2494,-1.187,-1.1307,-1.0866,-1.0866,-1.0536,-1.0066,-0.9852,-0.9612,-0.9385,-0.9379,-0.9606,-0.9867,-0.9867,-1.0106,-1.0379,-1.0379,-1.0379,-1.0401,-1.0408,-1.0408,-1.0401,-1.0365,-1.0365,-1.0386,-1.0351,-1.003,-0.9769,-0.9796,-0.9086,-0.8646,-0.9131,-0.9228,-0.9053,-0.8527,-0.8876,0.0,-0.8501,-0.8646,-0.8797,-0.8797,-0.86,-0.8448,-0.8421,-0.8146,-0.798,-0.8018,-0.7403,-0.7212,-0.7506,-0.7037,-0.6696,-0.6553,-0.6078,-0.5858,-0.5912,0.0,0.0,0.0,0.0,0.0,0.0,0.0,0.0,0.0,0.0,0.0,0.0,0.0,0.0,0.0,0.0,0.0,0.0,0.0,0.0,0.0,-0.7201,-0.7886,-0.759,-0.8288,-0.902,-0.9522,-0.9932,-1.0208,-1.0265,-1.0661,-1.1011,-1.1305,-1.1509,-1.2034,-1.2954,-1.3063,-1.3157,-1.3218,-1.3312,-1.3091,-1.2526,-1.2485,-1.2485,-1.2485,-1.2485,-1.2646,-1.2949,-1.2949,-1.3083,-1.3367,-1.3367,-1.3367,-1.3367,-1.3367,-1.3367,-1.331,-1.2561,-1.2156,-1.2023,-1.2023,-1.2108,-1.2218,-1.1854,-1.1626,-1.145,-1.1187,-1.1169,-1.126,-1.126,-1.1541,-1.1941,-1.219,-1.225,-1.2302,-1.2563,-1.2614,-1.246,-1.1762,-1.1948,-1.2056,-1.1401,-1.1163,-1.1177,-1.1586,-1.1154,-1.0499,-0.9765,-0.9625,-0.9581,-0.9425,-0.9287,-0.9157,-0.9,-0.9053,-0.9105,-0.9105,-0.9295,-0.9295,-0.9,-0.9482,-0.9342,-0.8283,-0.8308,-0.8323,-0.815,-0.8012,-0.7918,-0.7874,-0.6898,-0.6384,0.0,0.0,0.0,0.0,0.0,0.0,0.0,0.0,0.0,0.0,0.0,0.0,0.0,0.0,0.0,0.0,0.0,0.0,0.0,0.0,0.0,0.0,-0.8416,-0.9071,-0.9429,-0.9697,-1.0007,-1.045,-1.0624,-1.0784,-1.1052,-1.1332,-1.1768,-1.2423,-1.262,-1.314,-1.4107,-1.4347,-1.4463,-1.4463,-1.4452,-1.4227,-1.3773,-1.3773,-1.3773,-1.3773,-1.3773,-1.3876,-1.4108,-1.3841,-1.3857,-1.4072,-1.4072,-1.4072,-1.4072,-1.4072,-1.4072,-1.4005,0.0,0.0,0.0,0.0,-1.3158,-1.333,-1.3091,-1.2947,-1.2845,-1.2644,-1.2678,-1.2814,-1.2814,-1.2972,-1.3202,-1.3397,-1.3342,-1.3246,-1.345,-1.3511,-1.336,-1.2812,-1.2949,-1.3054,-1.2506,-1.2291,-1.2269,-1.2581,-1.2257,0.0,-1.1001,-1.0756,-1.0509,-1.0102,-1.0072,-0.9994,-0.9736,-0.984,-0.9917,-0.9917,-1.0028,-1.001,-0.9769,-1.0091,0.0,0.0,0.0,-0.9059,-0.8873,-0.8812,0.0,0.0,0.0,0.0,0.0,-0.7788,0.0,0.0,-0.6817,-0.6674,0.0,0.0,0.0,0.0,0.0,0.0,0.0,0.0,0.0,0.0,0.0,0.0,0.0,0.0,0.0,0.0,-0.9684,-1.028,-1.1093,-1.1056,-1.0975,-1.103,-1.1127,-1.1483,-1.2151,-1.2217,-1.2679,-1.3857,-1.3948,-1.4255,-1.495,-1.5455,0.0,0.0,0.0,-1.5735,-1.5664,-1.5706,-1.5723,-1.5723,-1.5689,-1.5699,-1.5699,-1.5043,-1.4776,-1.4812,-1.4748,-1.4748,-1.4748,-1.4748,-1.4748,-1.4649,-1.406,-1.3787,-1.3812,-1.3806,-1.3822,-1.3871,-1.3832,0.0,0.0,-1.3816,-1.3999,-1.4247,-1.4247,-1.4209,-1.4161,-1.4161,-1.3879,-1.3579,-1.3579,-1.3545,-1.3511,-1.3511,-1.3511,-1.3511,-1.3511,-1.3262,-1.3069,-1.3069,-1.2757,-1.25,-1.2466,-1.2122,-1.1562,-1.0695,-1.1005,-1.1141,-1.059,-1.0802,-1.0997,-1.0955,-1.0759,0.0,-1.0598,-1.0326,-1.0237,-1.0518,-0.9963,-0.9631,-0.9631,-0.9523,-0.9592,-0.9902,-0.9552,-0.9619,-1.0092,-1.0092,-1.0118,-1.0126,-0.8115,-0.771,0.0,0.0,0.0,0.0,0.0,0.0,0.0,0.0,0.0,0.0,0.0,0.0,0.0,0.0,0.0,-0.9883,-1.1289,-1.2253,-1.1959,-1.2538,-1.2719,-1.1909,-1.1813,-1.2283,-1.3425,-1.3523,-1.4032,-1.5312,-1.5405,-1.5647,-1.6222,-1.6732,-1.6837,-1.6408,-1.7173,-1.7313,-1.6704,-1.7024,-1.7202,-1.7202,-1.6873,0.0,-1.7072,-1.6139,-1.5903,-1.6184,-1.5753,-1.5584,-1.5584,-1.5584,-1.5584,-1.5497,-1.4703,-1.4442,-1.4438,-1.4435,-1.4647,-1.4881,-1.4614,-1.4664,-1.4858,-1.4604,-1.4544,-1.4618,-1.4618,-1.4591,0.0,-1.4572,-1.429,-1.3982,-1.3982,-1.375,-1.3511,-1.3511,-1.3511,-1.3511,-1.3511,-1.3459,-1.3408,-1.3408,-1.3339,-1.3202,-1.294,-1.2543,-1.2104,-1.1605,-1.1625,-1.1567,-1.1184,-1.1412,-1.1514,-1.126,-1.1421,-1.1454,-1.1175,-1.1082,-1.0947,-1.0678,-1.055,-1.0474,-1.0474,-1.0442,-1.0466,-1.0522,-1.013,-0.9993,-1.0092,-1.0092,-1.0277,-1.0576,-0.9818,-0.9572,0.0,0.0,0.0,0.0,0.0,0.0,0.0,0.0,0.0,0.0,0.0,-0.8814,-0.9298,0.0,-1.1676,-1.1739,-1.291,-1.3774,-1.3725,-1.4126,-1.4148,-1.3339,-1.3233,-1.3663,-1.4755,-1.4856,-1.5345,-1.6514,-1.6585,-1.689,-1.7535,-1.8115,-1.8335,-1.8058,-1.8569,-1.8685,-1.8288,-1.8504,-1.8608,-1.8608,-1.8409,-1.8396,-1.8521,-1.7739,-1.7513,-1.7692,-1.7414,-1.7144,-1.6836,-1.6508,-1.6242,-1.5999,-1.5621,-1.5333,-1.5196,-1.519,-1.5345,-1.549,-1.53,-1.536,-1.548,-1.53,-1.524,-1.524,-1.524,-1.5103,-1.4949,-1.4949,-1.4684,-1.4393,-1.4393,-1.4247,-1.4093,-1.4093,-1.3947,-1.3802,-1.3802,-1.3648,-1.3511,-1.3511,-1.3511,-1.3451,-1.3271,-1.3083,-1.2757,-1.2201,-1.2088,-1.1978,-1.161,-1.1695,-1.1746,-1.1576,-1.1704,-1.1738,-1.1567,-1.1404,-1.1215,-1.1011,-1.1002,-1.1002,-1.1002,-1.1002,-1.1002,-1.1002,-1.0805,-1.0702,-1.0702,-1.0702,-1.0805,-1.1002,-1.0969,-1.0866,0.0,0.0,0.0,0.0,0.0,0.0,0.0,-0.7499,-0.8065,-0.882,-0.9889,-1.0829,-1.1235,-1.2597,-1.3672,-1.3727,-1.4523,-1.5232,-1.5481,-1.56,-1.5562,-1.5274,-1.4959,-1.5129,-1.6062,-1.6175,-1.6606,-1.7658,-1.7798,-1.8061,-1.8568,-1.9266,-1.9614,-1.9509,-1.9756,-1.9879,-1.9879,-1.9959,-2.0046,-2.0046,-1.9919,-1.9879,-1.9869,-1.9224,-1.8966,-1.8929,-1.8709,-1.8286,-1.7671,-1.7107,-1.6693,-1.6411,-1.6411,-1.6225,-1.5899,-1.5831,-1.5805,-1.5805,-1.5805,-1.5805,-1.5805,-1.5805,-1.5805,-1.5805,-1.5805,-1.5583,-1.5326,-1.5326,-1.5069,-1.4786,-1.4786,-1.4735,-1.4684,-1.4684,-1.4435,-1.4213,-1.4213,-1.3905,-1.3622,-1.3622,-1.3562,-1.3511,-1.3511,-1.3511,-1.328,-1.2603,-1.2528,-1.2372,-1.1968,-1.1985,-1.2011,-1.1926,-1.1917,-1.1865,-1.1823,-1.1559,-1.1404,-1.1404,-1.1344,-1.1301,-1.1301,-1.1301,-1.1336,-1.1404,-1.1336,-1.137,-1.1516,-1.1447,-1.1404,-1.1387,-1.1669,-1.1652,-0.7062,-0.754,-0.8193,-0.8725,-0.8538,-0.8598,0.0,-1.0286,-1.0523,-1.1539,-1.2346,-1.3073,-1.3747,-1.4646,-1.5167,-1.4962,-1.6065,-1.6831,-1.6327,-1.6746,-1.7261,-1.7793,-1.6548,-1.6147,-1.7387,-1.7493,-1.7886,-1.8854,-1.9312,-1.9331,-1.8869,-1.9783,-2.0063,-1.9597,-2.0465,-2.0921,-2.0921,-2.1333,-2.1539,-2.1528,-2.1127,-2.0921,-2.0911,-1.9955,-1.9522,-1.9459,-1.8434,-1.7634,-1.6994,-1.6918,-1.6855,-1.6821,-1.6821,-1.6627,-1.6287,-1.5925,-1.5805,-1.5805,-1.5805,-1.5805,-1.5805,-1.5805,-1.5805,-1.5805,-1.5805,-1.5771,-1.5737,-1.5737,-1.5454,-1.5155,-1.5155,-1.4923,-1.4684,-1.4684,-1.4682,-1.4624,-1.4624,-1.4307,-1.4033,-1.4033,-1.375,-1.3511,-1.3511,-1.3511,-1.3374,-1.3,-1.294,-1.2803,-1.2381,-1.2637,-1.2714,-1.2363,-1.2329,-1.2201,-1.1822,-1.178,-1.1755,-1.1755,-1.1464,-1.1301,-1.1301,-1.1301,-1.143,-1.1746,-1.1447,-1.1627,-1.2297,-1.1917,-1.1755,-1.1755,-1.1771,-1.1789,-0.9497,-0.9934,-1.0211,-1.0755,-1.1037,-1.1328,-1.1834,-1.2208,-1.2635,-1.33,-1.3951,-1.4525,-1.4921,-1.5947,-1.6709,-1.6627,-1.7474,-1.8145,-1.7975,-1.8204,-1.835,-1.8354,-1.7989,-1.7931,-1.8465,-1.8519,-1.8799,-1.9448,-1.9689,-1.9802,-1.9768,-2.0432,-2.0715,-2.0496,-2.1168,-2.1518,-2.1518,-2.1931,-2.2138,-2.2138,-2.22,-2.2216,-2.2168,-2.1781,-2.1439,-2.118,-2.0349,-1.9469,-1.8634,-1.8264,-1.7791,-1.7235,-1.7235,-1.7013,-1.6636,-1.6295,-1.5985,-1.5805,-1.5805,-1.5805,-1.5805,-1.5805,-1.5805,-1.5805,-1.5805,-1.5805,-1.5805,-1.5805,-1.5685,-1.5557,-1.5557,-1.5446,-1.5334,-1.5334,-1.5163,-1.4992,-1.4992,-1.4701,-1.4367,-1.4144,-1.4027,-1.3899,-1.3705,-1.3731,-1.3738,-1.359,-1.3407,-1.3151,-1.2812,-1.2906,-1.2949,-1.2777,-1.276,-1.2577,-1.2165,-1.1943,-1.1788,-1.1788,-1.1661,-1.1704,-1.1945,-1.1953,-1.1893,-1.1788,-1.1661,-1.1653,-1.1765,-1.1584,-1.1507,-1.1524,-1.1961,-1.2158,-1.1361,-1.1862,-1.2099,-1.2588,-1.3132,-1.3513,-1.3393,-1.3874,-1.4471,-1.4862,-1.549,-1.5983,-1.6138,-1.7125,-1.7886,-1.7807,-1.8415,-1.8942,-1.9065,-1.9108,-1.8973,-1.8642,-1.8901,-1.9142,-1.9241,-1.9142,-1.9328,-1.9933,-1.9976,-2.0246,-2.0909,-2.1272,-2.1523,-2.1634,-2.196,-2.2138,-2.2138,-2.2402,-2.2553,-2.2553,-2.2852,-2.3001,-2.3001,-2.3001,-2.274,-2.2279,-2.1614,-2.076,-1.9864,-1.9183,-1.8475,-1.7826,-1.7826,-1.7601,-1.719,-1.6914,-1.6504,-1.6105,-1.6105,-1.6036,-1.5951,-1.5951,-1.5882,-1.5805,-1.5805,-1.5805,-1.5805,-1.5805,-1.5805,-1.5797,-1.5867,-1.5867,-1.5903,-1.5938,-1.5713,-1.5506,-1.5506,-1.5255,-1.4908,-1.4623,-1.4548,-1.4442,-1.4079,-1.4109,-1.4125,-1.4028,-1.3791,-1.3536,-1.3315,-1.3281,-1.3208,-1.3076,-1.3153,-1.3058,-1.2642,-1.2312,-1.2149,-1.2231,-1.2006,-1.1988,-1.229,-1.2222,-1.2031,-1.1797,-1.1788,-1.178,-1.1773,-1.1773,-1.1773,-1.1782,-1.2331,-1.252,-1.2055,-1.2803,-1.3533,-1.3941,-1.4242,-1.4552,-1.4949,-1.5394,-1.5905,-1.6487,-1.7108,-1.7585,-1.7798,-1.8337,-1.8611,-1.8151,-1.8644,-1.9098,-1.9108,-1.9108,-1.9098,-1.9088,-1.9098,-1.9241,-1.9539,-1.9274,-1.9463,-2.0309,-2.0372,-2.0919,-2.219,-2.2311,-2.2531,-2.2942,-2.2953,-2.2964,-2.2964,-2.2964,-2.2964,-2.2964,-2.3001,-2.3001,-2.3001,-2.3001,-2.2681,-2.2059,-2.1183,-2.0489,-1.9825,-1.9033,-1.8692,-1.8683,-1.8683,-1.8434,-1.8032,-1.7838,-1.7363,-1.6884,-1.6884,-1.6599,-1.6283,-1.6364,-1.6124,-1.5805,-1.5805,-1.5805,-1.5805,-1.5805,-1.5805,-1.5832,-1.6035,-1.6096,-1.6132,-1.6237,-1.6263,-1.6254,-1.6254,-1.6014,-1.5773,-1.5755,-1.5453,-1.5038,-1.4631,-1.4591,-1.4466,-1.4063,-1.398,-1.3971,-1.3962,-1.3962,-1.3761,-1.3246,-1.3534,-1.3595,-1.322,-1.3041,-1.3082,-1.3343,-1.2508,-1.2035,-1.2114,-1.1738,-1.1601,-1.1806,-1.1788,-1.2173,-1.2957,-1.2957,-1.2957,-1.2957,-1.2975,-1.2843,-1.3337,-1.4174,-1.4873,-1.5312,-1.5922,-1.6462,-1.6715,-1.7106,-1.7486,-1.7491,-1.7658,-1.7773,-1.7662,-1.7796,-1.8035,-1.8265,-1.8484,-1.8745,-1.9056,-1.9367,-1.9404,-1.9007,-1.9524,-1.9784,-1.95,-1.9446,-1.98,-2.0722,-2.1064,-2.1528,-2.2301,-2.2654,-2.2852,-2.3001,-2.3001,-2.3001,-2.3001,-2.3261,-2.3409,-2.3409,-2.3666,-2.3787,-2.3787,-2.3787,-2.3556,-2.3091,-2.2793,-2.2172,-2.1288,-2.0459,-1.9844,-1.945,-1.8922,-1.8612,-1.8497,-1.8417,-1.8259,-1.7996,-1.7175,-1.6899,-1.6891,-1.6937,-1.675,-1.6553,-1.6597,-1.6386,-1.614,-1.614,-1.614,-1.614,-1.6211,-1.6237,-1.6237,-1.6272,-1.6307,-1.6307,-1.6307,-1.621,-1.6067,-1.5835,-1.5751,-1.5602,-1.5263,-1.5255,-1.5192,-1.4802,-1.43,-1.401,-1.401,-1.401,-1.3927,-1.3744,-1.384,-1.3731,-1.3238,-1.3154,-1.3116,-1.3136,-1.2845,-1.2763,-1.3032,-1.2912,-1.2763,-1.2595,-1.2595,-1.2595,-1.2586,-1.2586,-1.2586,-1.2595,-1.2975,-1.3056,-1.4395,-1.5164,-1.5821,-1.647,-1.7049,-1.7543,-1.7846,-1.8052,-1.8088,-1.7819,-1.7629,-1.7357,-1.6929,-1.6979,-1.7297,-1.7792,-1.8164,-1.8631,-1.9264,-1.9844,-2.0078,-1.9711,-2.0325,-2.0658,-2.0423,-2.0489,-2.078,-2.1363,-2.171,-2.2207,-2.2995,-2.315,-2.3298,-2.3409,-2.3575,-2.3702,-2.3702,-2.4153,-2.4356,-2.4356,-2.4617,-2.4636,-2.4453,-2.4453,-2.4214,-2.3787,-2.3519,-2.3027,-2.2371,-2.1527,-2.0952,-2.0518,-2.0001,-1.9814,-1.9775,-1.9381,-1.9222,-1.907,-1.7951,-1.7534,-1.7526,-1.7526,-1.7338,-1.7113,-1.7008,-1.675,-1.6484,-1.6342,-1.6307,-1.6307,-1.6377,-1.6412,-1.6447,-1.6482,-1.6517,-1.6517,-1.6517,-1.6517,-1.6445,-1.6219,-1.6276,-1.6217,-1.5851,-1.5725,-1.5606,-1.5349,-1.4898,-1.4504,-1.4204,-1.4169,-1.4169,-1.4109,-1.4109,-1.3981,-1.3614,-1.3529,-1.35,-1.3529,-1.3331,-1.3328,-1.3564,-1.3421,-1.3238,-1.2983,-1.3027,-1.2966,-1.2755,-1.278,-1.282,-1.2914,-1.3261,-1.3374,-1.5273,-1.5831,-1.6421,-1.7394,-1.7645,-1.7787,-1.8352,-1.8177,-1.7799,-1.7502,-1.7073,-1.6509,-1.5756,-1.6039,-1.6498,-1.6903,-1.7781,-1.8768,-1.9702,-2.0547,-2.108,-2.1058,-2.1431,-2.179,-2.2182,-2.2262,-2.2295,-2.2295,-2.2324,-2.2897,-2.4127,-2.3858,-2.3869,-2.4269,-2.4717,-2.4958,-2.4958,-2.5463,-2.5716,-2.5716,-2.5716,-2.544,-2.4958,-2.4958,-2.4705,-2.4233,-2.3427,-2.3108,-2.3023,-2.2193,-2.1869,-2.1842,-2.1766,-2.1718,-2.1603,-2.0546,-2.0158,-2.0012,-1.9073,-1.8483,-1.8163,-1.8163,-1.7914,-1.7569,-1.7132,-1.6999,-1.6865,-1.651,-1.6386,-1.6403,-1.6604,-1.6621,-1.6647,-1.6839,-1.6908,-1.6908,-1.6908,-1.6908,-1.6908,-1.6908,-1.6908,-1.6789,-1.6413,-1.6001,-1.5716,-1.5716,-1.5707,-1.5414,-1.4643,-1.4543,-1.4474,-1.4336,-1.4297,-1.4306,-1.4297,-1.4139,-1.4139,-1.4446,-1.3947,-1.3643,-1.371,-1.3357,-1.3076,-1.2966,-1.3132,-1.3316,-1.3433,-1.348,-1.361,-1.3799,-1.383,-1.389,-1.6367,-1.6982,-1.7375,-1.8105,-1.8278,-1.8251,-1.8228,-1.7897,-1.743,-1.6792,-1.6296,-1.5725,-1.4831,-1.5318,-1.6039,-1.6477,-1.7849,-1.9179,-2.0101,-2.1245,-2.1964,-2.1893,-2.224,-2.2529,-2.2583,-2.3268,-2.3667,-2.3667,-2.3332,-2.3487,-2.4284,-2.4479,-2.48,-2.5314,-2.544,-2.5509,-2.5509,-2.5647,-2.5716,-2.5716,-2.5716,-2.5647,-2.5509,-2.5509,-2.544,-2.5264,-2.4676,-2.443,-2.4322,-2.317,-2.2692,-2.2569,-2.1308,-2.0847,-2.0731,-1.9835,-1.9529,-1.949,-1.9222,-1.897,-1.877,-1.877,-1.8617,-1.8397,-1.8279,-1.8043,-1.776,-1.766,-1.7442,-1.7206,-1.7268,-1.7049,-1.683,-1.6908,-1.6908,-1.6908,-1.6908,-1.6908,-1.6908,-1.6908,-1.6908,-1.6872,-1.6771,-1.6422,-1.6156,-1.6156,-1.589,-1.5515,-1.501,-1.4955,-1.4806,-1.4483,-1.4455,-1.4426,-1.4306,-1.4237,-1.4198,-1.4139,-1.3972,-1.3918,-1.3918,-1.3829,-1.3747,-1.3717,-1.3785,-1.38,-1.385,-1.3867,-1.3881,-1.395,-1.4109,-1.4109,-1.7252,-1.7738,-1.8095,-1.8512,-1.8465,-1.8268,-1.7983,-1.7287,-1.6483,-1.5659,-1.4945,-1.4277,-1.3656,-1.4208,-1.5076,-1.5959,-1.7541,-1.9105,-2.0396,-2.1704,-2.2581,-2.2786,-2.3165,-2.3491,-2.3637,-2.4177,-2.4602,-2.4843,-2.4602,-2.4571,-2.4941,-2.5154,-2.5406,-2.5704,-2.5934,-2.6152,-2.6381,-2.6381,-2.6381,-2.6381,-2.6381,-2.6255,-2.6048,-2.6048,-2.5922,-2.5693,-2.5394,-2.5268,-2.5207,-2.4468,-2.4033,-2.3746,-2.2821,-2.2085,-2.1499,-2.0682,-2.0148,-1.9766,-1.942,-1.9231,-1.9112,-1.9112,-1.9076,-1.8935,-1.876,-1.8559,-1.831,-1.8136,-1.7954,-1.7734,-1.7541,-1.733,-1.7119,-1.6945,-1.6908,-1.6908,-1.6908,-1.6908,-1.6908,-1.6908,-1.6908,-1.6908,-1.6908,-1.6725,-1.6578,-1.6578,-1.6376,-1.6083,-1.5689,-1.5469,-1.5212,-1.4808,-1.4772,-1.4668,-1.4405,-1.4396,-1.4327,-1.4228,-1.4228,-1.4228,-1.4228,-1.4228,-1.4228,-1.4228,-1.4169,-1.4169,-1.4228,-1.407,-1.404,-1.4139,-1.4237,-1.4237,-1.7912,-1.8271,-1.8583,-1.8774,-1.8504,-1.8066,-1.7698,-1.6581,-1.5318,-1.4324,-1.3434,-1.2767,-1.2468,-1.3097,-1.4059,-1.5412,-1.7123,-1.8898,-2.062,-2.2018,-2.3091,-2.3621,-2.4027,-2.4453,-2.4866,-2.5038,-2.5314,-2.5773,-2.5876,-2.5888,-2.5819,-2.5807,-2.5842,-2.5911,-2.6335,-2.6783,-2.7179,-2.719,-2.719,-2.719,-2.719,-2.699,-2.6605,-2.6605,-2.6324,-2.5911,-2.5842,-2.5807,-2.5807,-2.5739,-2.5394,-2.4875,-2.48,-2.4007,-2.2889,-2.2107,-2.127,-2.0382,-1.9687,-1.9381,-1.9301,-1.9301,-1.9301,-1.9237,-1.8898,-1.8788,-1.8715,-1.8375,-1.82,-1.8081,-1.7752,-1.7578,-1.7413,-1.7064,-1.6945,-1.6908,-1.6908,-1.6908,-1.6908,-1.6908,-1.6908,-1.6908,-1.6908,-1.6908,-1.6908,-1.6908,-1.6908,-1.678,-1.6407,-1.6028,-1.5615,-1.5221,-1.5184,-1.5038,-1.4698,-1.4616,-1.4588,-1.4588,-1.4543,-1.4515,-1.4515,-1.4515,-1.4515,-1.4515,-1.4396,-1.4396,-1.4515,-1.4198,-1.4169,-1.4336,-1.4336,-1.4363,-1.8405,-1.868,-1.8808,-1.9008,-1.869,-1.8132,-1.7316,-1.6076,-1.4749,-1.3411,-1.2874,-1.2394,-1.1597,-1.2764,-1.4145,-1.5064,-1.7169,-1.9302,-2.1063,-2.2445,-2.3484,-2.4022,-2.4508,-2.482,-2.49,-2.5693,-2.6272,-2.6363,-2.6726,-2.6783,-2.6398,-2.6375,-2.6531,-2.6915,-2.7007,-2.7139,-2.719,-2.719,-2.719,-2.719,-2.719,-2.7144,-2.7093,-2.7093,-2.7007,-2.6903,-2.6519,-2.6375,-2.6341,-2.5888,-2.5394,-2.4837,-2.4185,-2.3556,-2.2889,-2.2107,-2.127,-2.0459,-2.0343,-1.9844,-1.9301,-1.9301,-1.9301,-1.9292,-1.9219,-1.9201,-1.9182,-1.9118,-1.8861,-1.8595,-1.8522,-1.7999,-1.7477,-1.7413,-1.7138,-1.6908,-1.6908,-1.6908,-1.6908,-1.6908,-1.6908,-1.6908,-1.6908,-1.6908,-1.6908,-1.6908,-1.6908,-1.6881,-1.6817,-1.6425,-1.6046,-1.5634,-1.5588,-1.556,-1.5487,-1.5184,-1.5001,-1.5001,-1.4689,-1.4515,-1.4515,-1.4515,-1.4515,-1.4515,-1.4485,-1.4485,-1.4515,-1.4446,-1.4417,-1.4485,-1.4485,-1.465,-1.8757,-1.8975,-1.8975,-1.9075,-1.8371,-1.742,-1.6539,0.0,0.0,-1.2183,-1.1709,-1.141,-1.1144,-1.2353,-1.3672,-1.4584,-1.6265,-1.8164,-2.0226,-2.152,-2.2639,-2.3648,-2.4427,-2.5027,-2.5302,-2.6014,-2.6616,-2.6841,-2.7093,-2.7087,-2.6875,-2.6864,-2.6978,-2.7179,-2.719,-2.719,-2.719,-2.719,-2.719,-2.719,-2.719,-2.719,-2.719,-2.719,-2.719,-2.7179,-2.6967,-2.6864,-2.6841,-2.66,-2.6198,-2.5654,-2.4995,-2.4171,-2.3242,-2.2191,-2.127,-2.0421,-2.004,-1.9608,-1.9301,-1.9301,-1.9301,-1.9301,-1.9301,-1.9301,-1.9301,-1.9301,-1.9164,-1.8971,-1.876,-1.8421,-1.8073,-1.7871,-1.7504,-1.7211,-1.7211,-1.7055,-1.6908,-1.6908,-1.6908,-1.6908,-1.6908,-1.6908,-1.6908,-1.6908,-1.6908,-1.6908,-1.6908,-1.6743,-1.6468,-1.6065,-1.601,-1.5927,-1.5707,-1.5515,-1.5404,-1.5404,-1.523,-1.512,-1.512,-1.4928,-1.4909,-1.512,-1.4717,-1.4717,-1.512,-1.4919,-1.4928,-1.512,-1.512,-1.5221,-1.8808,-1.9025,-1.9108,-1.9108,-1.805,-1.6769,-1.5898,-1.3959,-1.2079,-1.1141,-1.0773,-1.066,-1.0843,-1.1929,-1.3163,-1.4217,-1.5321,-1.6909,-1.9361,-2.0569,-2.1765,-2.3224,-2.4382,-2.5245,-2.567,-2.6267,-2.6795,-2.7156,-2.719,-2.719,-2.719,-2.719,-2.719,-2.719,-2.719,-2.719,-2.719,-2.719,-2.719,-2.719,-2.719,-2.719,-2.719,-2.719,-2.719,-2.719,-2.719,-2.719,-2.719,-2.719,-2.6932,-2.6416,-2.5704,-2.4719,-2.3547,-2.2265,-2.127,-2.0421,-1.9766,-1.946,-1.9301,-1.9301,-1.9301,-1.9301,-1.9301,-1.9301,-1.9301,-1.9301,-1.9301,-1.9228,-1.8916,-1.8779,-1.8614,-1.8182,-1.7871,-1.7633,-1.7633,-1.7312,-1.7037,-1.7037,-1.6963,-1.6908,-1.6908,-1.6908,-1.6908,-1.6908,-1.6908,-1.6908,-1.6908,-1.6908,-1.6789,-1.6443,-1.645,-1.6312,-1.5982,-1.5872,-1.5826,-1.5826,-1.5744,-1.5689,-1.5689,-1.5386,-1.5377,-1.568,-1.5084,-1.5065,-1.5689,-1.5377,-1.5386,-1.5689,-1.5689,-1.5735,-1.8216,-1.8787,-1.9108,-1.9108,-1.805,-1.6769,-1.5898,0.0,-1.2099,-1.0738,-1.0721,-1.086,-1.0523,-1.1595,-1.2946,-1.4214,-1.505,-1.6539,-1.9315,-2.0569,-2.1765,-2.3224,-2.4703,-2.5658,-2.5704,-2.6588,-2.7133,-2.7179,-2.719,-2.719,-2.719,-2.719,-2.719,-2.719,-2.719,-2.719,-2.719,-2.719,-2.719,-2.719,-2.719,-2.719,-2.719,-2.719,-2.719,-2.719,-2.719,-2.719,-2.719,-2.719,-2.6932,-2.6376,-2.5121,-2.4221,-2.3547,-2.2265,-2.127,-2.0508,-2.043,-1.9923,-1.9301,-1.9301,-1.9301,-1.9301,-1.9301,-1.9301,-1.9301,-1.9301,-1.9301,-1.9292,-1.9256,-1.8981,-1.8614,-1.8182,-1.8054,-1.8027,-1.8027,-1.7734,-1.744,-1.744,-1.7156,-1.6908,-1.6908,-1.6908,-1.6908,-1.6908,-1.6908,-1.6908,-1.6908,-1.6908,-1.689,-1.6862,-1.6853,-1.6835,-1.6798,-1.6459,-1.6224,-1.6224,-1.59,-1.5689,-1.5689,-1.5652,-1.5652,-1.5689,-1.5615,-1.5615,-1.5689,-1.5652,-1.5652,-1.5689,-1.5689,-1.589,-1.8133,-1.8745,-1.9036,-1.8756,-1.7636,-1.6361,-1.5279,-1.3531,-1.1881,-1.0956,-1.0925,-1.1035,-1.0967,-1.1661,-1.2613,-1.3742,-1.415,-1.5165,-1.7504,-1.8713,-2.0106,-2.2238,-2.3879,-2.5164,-2.6071,-2.6806,-2.719,-2.719,-2.719,-2.719,-2.719,-2.719,-2.719,-2.719,-2.719,-2.719,-2.719,-2.719,-2.719,-2.719,-2.719,-2.719,-2.719,-2.719,-2.719,-2.719,-2.719,-2.719,-2.7149,-2.6569,-2.624,-2.5924,-2.4564,-2.372,-2.3187,-2.1855,-2.1026,-2.0421,-1.9962,-1.9569,-1.9301,-1.9301,-1.9301,-1.9301,-1.9301,-1.9301,-1.9301,-1.9301,-1.9301,-1.9301,-1.9301,-1.9182,-1.9026,-1.8871,-1.865,-1.8476,-1.8476,-1.8164,-1.7871,-1.7871,-1.7541,-1.7257,-1.7257,-1.7064,-1.6908,-1.6908,-1.6908,-1.6908,-1.6908,-1.6908,-1.6908,-1.6908,-1.6908,-1.6908,-1.6908,-1.6762,-1.667,-1.667,-1.6514,-1.6422,-1.6422,-1.6193,-1.6184,-1.6422,-1.5936,-1.5936,-1.6422,-1.6184,-1.6193,-1.6422,-1.6422,-1.6514,-1.7543,-1.8258,-1.8599,-1.8268,-1.722,-1.6001,-1.4862,-1.3288,-1.1869,-1.1142,-1.1074,-1.1189,-1.1268,-1.1733,-1.2429,-1.3452,-1.3593,-1.435,-1.6543,-1.7573,-1.8937,-2.1183,-2.2823,-2.4292,-2.5697,-2.6668,-2.719,-2.719,-2.719,-2.719,-2.719,-2.719,-2.719,-2.719,-2.719,-2.719,-2.719,-2.719,-2.719,-2.719,-2.719,-2.719,-2.719,-2.719,-2.7056,-2.6798,-2.6798,-2.6622,-2.6332,-2.5673,-2.5411,-2.5273,-2.3887,-2.3185,-2.2777,-2.1401,-2.0663,-2.0231,-1.9684,-1.9402,-1.9301,-1.9301,-1.9301,-1.9301,-1.9301,-1.9301,-1.9301,-1.9301,-1.9301,-1.9301,-1.9301,-1.9301,-1.9301,-1.9301,-1.9091,-1.8889,-1.8889,-1.8577,-1.8264,-1.8264,-1.7963,-1.7678,-1.7678,-1.7449,-1.7266,-1.7266,-1.7266,-1.7266,-1.7266,-1.7266,-1.722,-1.7092,-1.7082,-1.7037,-1.6917,-1.6908,-1.6908,-1.6908,-1.6908,-1.6908,-1.6908,-1.6642,-1.6624,-1.6899,-1.634,-1.6331,-1.6908,-1.6633,-1.6633,-1.6908,-1.6908,-1.6908,-1.6174,-1.7057,-1.7719,-1.7709,-1.6859,-1.5759,-1.4803,-1.3509,-1.2206,-1.1212,-1.1166,-1.1302,-1.1302,-1.1733,-1.2429,-1.3452,-1.3593,-1.4498,-1.7039,-1.779,-1.8685,-2.024,-2.1766,-2.3098,-2.412,-2.6048,-2.719,-2.719,-2.719,-2.719,-2.719,-2.719,-2.719,-2.719,-2.719,-2.719,-2.719,-2.719,-2.719,-2.719,-2.719,-2.719,-2.719,-2.719,-2.6704,-2.5819,-2.5819,-2.5326,-2.4541,-2.4541,-2.4498,-2.4361,-2.302,-2.2513,-2.2327,-2.0987,-2.0264,-1.9925,-1.9884,-1.961,-1.9301,-1.9301,-1.9301,-1.9301,-1.9301,-1.9301,-1.9301,-1.9301,-1.9301,-1.9301,-1.9301,-1.9301,-1.9301,-1.9301,-1.9292,-1.9292,-1.9292,-1.899,-1.8705,-1.8705,-1.8385,-1.8081,-1.8081,-1.8072,-1.8072,-1.8072,-1.8072,-1.8072,-1.8072,-1.8072,-1.7954,-1.7532,-1.7486,-1.733,-1.6936,-1.6908,-1.6908,-1.6908,-1.6908,-1.6908,-1.6908,-1.6899,-1.6899,-1.6908,-1.6899,-1.6899,-1.6908,-1.6899,-1.6899,-1.6908,-1.6908,-1.6908,-1.4945,-1.5846,-1.643,-1.5924,-1.5555,-1.5017,-1.3892,-1.3287,-1.2749,-1.1916,-1.18,-1.1854,-1.1854,-1.1992,-1.2659,-1.435,-1.4637,-1.5269,-1.7143,-1.8426,-1.9757,-2.1241,-2.4016,-2.5911,-2.6244,-2.6812,-2.719,-2.719,-2.719,-2.719,-2.719,-2.719,-2.719,-2.719,-2.719,-2.719,-2.719,-2.719,-2.688,-2.6257,-2.688,-2.688,-2.6216,-2.6216,-2.6434,-2.6704,-2.5463,-2.5073,-2.5284,-2.4049,-2.3531,-2.3434,-2.2358,-2.1792,-2.1555,-2.1774,-2.1217,-2.0375,-2.0723,-2.0351,-1.9646,-1.9393,-1.9301,-1.9301,-1.9301,-1.9301,-1.9301,-1.9301,-1.9301,-1.9301,-1.9301,-1.9301,-1.9301,-1.9301,-1.9301,-1.9301,-1.9301,-1.9201,-1.9118,-1.9118,-1.8797,-1.8522,-1.8522,-1.8264,-1.8091,-1.8091,-1.8091,-1.8091,-1.8091,-1.8581,-1.8881,-1.8737,-1.8718,-1.8226,-1.6998,-1.6908,-1.6908,-1.6908,-1.6908,-1.6908,-1.6908,-1.6908,-1.6908,-1.6908,-1.6908,-1.6908,-1.6908,-1.7183,-1.7312,-1.7303,-1.7027,-1.6908,-1.3545,-1.457,-1.5194,-1.4755,-1.4595,-1.4332,-1.3395,-1.3129,-1.289,-1.2249,-1.2095,-1.2095,-1.2095,-1.2095,-1.2636,-1.427,-1.4534,-1.52,-1.7131,-1.838,-1.9884,-2.1962,-2.4671,-2.6399,-2.6594,-2.6961,-2.719,-2.719,-2.719,-2.719,-2.719,-2.688,-2.6663,-2.6663,-2.7015,-2.7015,-2.6663,-2.6663,-2.6227,-2.5326,-2.6227,-2.6185,-2.5326,-2.6008,-2.6268,-2.6124,-2.5337,-2.4904,0.0,-2.3963,-2.34,-2.3096,-2.2853,-2.2393,-2.1929,-2.249,-2.2101,-2.1287,-2.1634,-2.1374,-2.0792,-2.0245,-1.9699,-1.9301,-1.9301,-1.9301,-1.9301,-1.9301,-1.9301,-1.9301,-1.9301,-1.9301,-1.9301,-1.9301,-1.9301,-1.9301,-1.9301,-1.9301,-1.9301,-1.9301,-1.91,-1.8935,-1.8935,-1.8733,-1.8568,-1.8568,-1.8568,-1.8568,-1.8568,-1.9005,-1.923,-1.9077,-1.9058,-1.8608,-1.7457,-1.722,-1.7064,-1.6917,-1.6908,-1.6908,-1.6908,-1.6908,-1.6972,-1.7128,-1.7128,-1.7202,-1.7367,-1.7449,-1.7495,-1.7486,-1.7238,-1.7211,0.0,-1.3162,-1.3963,-1.3953,-1.3817,-1.3593,-1.3157,-1.2952,0.0,-1.2199,-1.2095,-1.2118,-1.2187,-1.2176,-1.2521,-1.3627,-1.3854,-1.4706,-1.7166,-1.8054,-1.9579,-2.2547,-2.4189,-2.5279,-2.5773,-2.6628,-2.719,-2.719,-2.719,-2.719,-2.719,-2.631,-2.5777,-2.5777,-2.658,-2.658,-2.5704,-2.5777,-2.5326,-2.4413,-2.5368,-2.5326,-2.4584,-2.6249,-2.6155,-2.4754,-2.5326,-2.467,-2.327,-2.4145,-2.393,-2.3183,-2.4145,-2.3973,-2.3226,-2.326,-2.2971,-2.2552,-2.2608,-2.2521,-2.2256,-2.1511,-2.04,-1.9384,-1.9356,-1.9329,-1.9301,-1.9301,-1.9301,-1.9301,-1.9301,-1.9301,-1.9301,-1.9301,-1.9301,-1.9301,-1.9301,-1.9301,-1.9301,-1.9301,-1.9301,-1.9301,-1.9301,-1.9301,-1.9301,-1.9301,-1.9301,-1.9301,-1.9301,-1.9341,-1.9233,-1.8865,-1.8828,-1.8672,-1.8267,-1.7816,-1.7385,-1.7018,-1.6991,-1.6991,-1.6991,-1.6991,-1.7165,-1.7532,-1.7541,-1.7743,-1.8127,-1.7743,-1.755,-1.7578,-1.755,-1.7752,-1.0151,0.0,-1.1704,-1.1507,-1.1687,-1.1882,0.0,-1.2029,-1.2245,-1.2118,0.0,-1.2337,-1.3119,-1.2958,-1.3417,-1.5544,-1.6233,-1.6993,-1.8373,-2.0622,-2.2857,-2.4774,-2.5991,-2.6697,-2.6823,-2.7052,-2.719,-2.719,-2.719,-2.719,-2.719,-2.631,-2.5777,-2.5777,-2.5379,-2.5052,-2.4829,-2.5453,-2.502,-2.3444,-2.5052,-2.5326,-2.4498,-2.4925,-2.5653,-2.6456,-2.4563,-2.392,-2.4188,-2.4413,-2.393,-2.3183,-2.4145,-2.437,-2.4274,-2.4935,-2.4224,-2.303,-2.3416,-2.2609,-2.1353,-2.0843,-2.0467,-2.0173,-1.9829,-1.9558,-1.9301,-1.9301,-1.9301,-1.9301,-1.9301,-1.9301,-1.9301,-1.9301,-1.9301,-1.9301,-1.9301,-1.9301,-1.9301,-1.9301,-1.9301,-1.9301,-1.9301,-1.9301,-1.9301,-1.9301,-1.9301,-1.9301,-1.9301,-1.9844,-2.0197,-2.0091,-2.0091,-1.9908,-1.9513,-1.8527,-1.7935,-1.7807,-1.7798,-1.7798,-1.7798,-1.7798,-1.7844,-1.7972,-1.7981,-1.8174,-1.8577,-1.8174,-1.8137,-1.8421,-1.8119,-1.799,-0.9325,-1.0419,-1.1472,-1.132,-1.1652,-1.2031,-1.2031,0.0,0.0,0.0,0.0,-1.2337,-1.313,-1.3256,-1.39,-1.5934,-1.6692,-1.7794,-1.9975,-2.2467,-2.4602,-2.5899,-2.6749,-2.719,-2.719,-2.719,-2.719,-2.719,-2.719,-2.7015,-2.6569,-2.5715,-2.52,-2.52,-2.4307,-2.3844,-2.3844,-2.4339,-2.4072,-2.3139,-2.452,-2.4956,-2.4541,-2.5348,-2.603,-2.6487,-2.5463,-2.5031,-2.5084,-2.5084,-2.4819,-2.4372,-2.4904,-2.5084,-2.5115,-2.5158,-2.4563,-2.3717,-2.3594,-2.2745,-2.1679,-2.1212,-2.0796,-2.0484,-2.0223,-1.9875,-1.9549,-1.9356,-1.9301,-1.9301,-1.9301,-1.9301,-1.9301,-1.9301,-1.9301,-1.9301,-1.9301,-1.9301,-1.9301,-1.9301,-1.9301,-1.9301,-1.9301,-1.9301,-1.9301,-1.9301,-1.9301,-1.9301,-1.9301,-1.9687,-1.9962,-1.9962,-1.9962,-1.9857,-1.963,-1.9039,-1.8513,-1.8109,-1.8091,-1.8091,-1.8091,-1.8091,-1.8173,-1.8356,-1.8577,-1.8678,-1.8715,-1.8495,-1.8504,-1.8705,-1.8495,-1.8457,-0.9237,-1.0739,-1.2182,-1.1923,-1.2325,-1.2797,-1.2877,0.0,0.0,0.0,0.0,0.0,-1.3222,-1.3682,-1.4487,-1.6096,-1.6887,-1.8444,-2.1768,-2.3763,-2.5302,-2.6375,-2.6921,-2.719,-2.719,-2.719,-2.719,-2.719,-2.719,-2.6839,-2.6038,-2.5168,-2.4701,-2.4701,-2.3661,-2.3183,-2.3313,-2.3183,-2.3096,-2.3096,-2.4059,-2.4498,-2.4584,-2.6238,-2.6622,-2.6049,-2.6704,-2.6528,-2.5819,-2.5955,-2.5913,-2.5777,-2.5777,-2.5777,-2.5694,-2.4829,-2.4413,-2.4145,-2.3193,-2.2655,-2.2297,-2.1836,-2.1226,-2.0653,-2.0631,-2.0332,-1.9985,-1.9604,-1.9393,-1.9301,-1.9301,-1.9301,-1.9301,-1.9301,-1.9301,-1.9301,-1.9301,-1.9301,-1.9301,-1.9301,-1.9301,-1.9301,-1.9301,-1.9301,-1.9301,-1.9301,-1.9301,-1.9301,-1.9301,-1.9301,-1.9301,-1.9301,-1.9301,-1.9301,-1.9301,-1.9301,-1.9017,-1.8348,-1.8264,-1.8264,-1.8264,-1.8264,-1.842,-1.8797,-1.9127,-1.9136,-1.8806,-1.8806,-1.8806,-1.8806,-1.8806,-1.8981,-1.008,-1.1555,-1.2463,-1.1159,-1.1543,-1.2337,-1.2797,0.0,0.0,0.0,0.0,0.0,0.0,-1.551,-1.6176,-1.8116,-1.9603,-2.1293,-2.3523,-2.4464,-2.5302,-2.6375,-2.6921,-2.719,-2.719,-2.719,-2.719,-2.719,-2.719,-2.7149,-2.7015,-2.6091,-2.5621,-2.5621,-2.3986,-2.3487,-2.4284,-2.3487,-2.3096,-2.3096,-2.4059,-2.4498,-2.4541,-2.5537,-2.6351,-2.6962,-2.631,-2.5913,-2.5861,-2.6663,-2.6528,-2.5777,-2.5777,-2.5777,-2.5694,-2.4829,-2.4016,-2.3183,-2.2246,-2.1863,-2.1799,-2.1734,-2.1636,-2.144,-2.1126,-2.097,-2.0842,-2.0448,-1.9833,-1.9301,-1.9301,-1.9301,-1.9301,-1.9301,-1.9301,-1.9301,-1.9301,-1.9301,-1.9301,-1.9301,-1.9301,-1.9301,-1.9301,-1.9301,-1.9301,-1.9301,-1.9301,-1.9301,-1.9301,-1.9301,-1.9301,-1.9301,-1.9301,-1.9301,-1.9301,-1.9301,-1.9246,-1.9127,-1.9118,-1.9118,-1.9118,-1.9118,-1.9146,-1.921,-1.9265,-1.9265,-1.921,-1.921,-1.921,-1.921,-1.921,-1.9246,-0.964,-1.1106,-1.236,-1.1946,-1.3015,-1.4132,-1.4098,-1.4086,0.0,0.0,0.0,0.0,0.0,-1.6325,-1.745,-1.9775,-2.1661,-2.3224,-2.4418,-2.5256,-2.6026,-2.6783,-2.7082,-2.719,-2.719,-2.719,-2.7015,-2.6487,-2.6921,-2.6539,-2.5073,-2.5484,-2.5568,-2.5115,-2.379,-2.379,-2.52,-2.3313,-2.3096,-2.4542,-2.4531,-2.4744,-2.52,-2.5621,-2.5799,-2.5737,-2.5295,-2.5084,-2.5073,-2.5031,-2.5031,-2.5031,-2.4553,-2.4638,-2.4999,-2.4092,-2.3149,-2.229,-2.1865,-2.1696,-2.1696,-2.1696,-2.1696,-2.1659,-2.1458,-2.1282,-2.1071,-2.0888,-2.0255,-1.96,-1.96,-1.9476,-1.9301,-1.9301,-1.9301,-1.9301,-1.9301,-1.9301,-1.9301,-1.9301,-1.9301,-1.9301,-1.9301,-1.9301,-1.9301,-1.9301,-1.9301,-1.9301,-1.9301,-1.9301,-1.9301,-1.9301,-1.9301,-1.9301,-1.9301,-1.9301,-1.9301,-1.9301,-1.9301,-1.9301,-1.9301,-1.9301,-1.9301,-1.9301,-1.9301,-1.9301,-1.9301,-1.9301,-1.9301,-1.9301,-1.9301,-1.9301,-0.9393,-1.075,-1.2263,-1.29,0.0,-1.5705,-1.5647,-1.5544,-1.5509,0.0,0.0,0.0,-1.6508,-1.7611,-1.9143,-2.1213,-2.3121,-2.4533,-2.5027,-2.5888,-2.6657,-2.7121,-2.719,-2.719,-2.719,-2.719,-2.688,-2.6174,-2.6787,-2.6279,-2.4168,-2.5368,-2.5841,-2.5137,-2.4006,-2.4168,-2.5777,-2.3062,-2.2887,-2.5136,-2.4478,-2.452,-2.5189,-2.5411,-2.5115,-2.4498,-2.4498,-2.4498,-2.4445,-2.3704,-2.3844,-2.4413,-2.3487,-2.341,-2.3767,-2.3018,-2.2334,-2.1696,-2.1696,-2.1696,-2.1696,-2.1696,-2.1696,-2.1696,-2.1696,-2.1467,-2.1255,-2.1255,-2.075,-2.0149,-2.0049,-1.976,-1.9448,-1.9448,-1.9375,-1.9301,-1.9301,-1.9301,-1.9301,-1.9301,-1.9301,-1.9301,-1.9301,-1.9301,-1.9301,-1.9301,-1.9301,-1.9301,-1.9301,-1.9301,-1.9301,-1.9301,-1.9301,-1.9301,-1.9301,-1.9301,-1.9301,-1.9301,-1.9301,-1.9301,-1.9301,-1.9301,-1.9301,-1.9301,-1.9301,-1.9301,-1.9301,-1.9301,-1.9301,-1.9301,-1.9301,-1.9301,-1.024,-1.129,-1.2325,-1.3314,-1.4362,-1.5521,-1.6924,-1.6853,0.0,-1.7699,0.0,-1.8054,-1.8586,-2.0285,-2.1812,-2.2467,-2.3856,-2.505,-2.5578,-2.6117,-2.6657,-2.7121,-2.719,-2.719,-2.719,-2.719,-2.719,-2.7097,-2.7149,-2.7097,-2.6933,-2.7015,-2.7056,-2.7015,-2.5306,-2.4872,-2.5788,-2.3062,-2.2246,-2.3313,-2.3226,-2.3226,-2.3304,-2.4188,-2.4584,-2.4498,-2.4498,-2.4498,-2.4498,-2.4413,-2.4445,-2.4413,-2.3487,-2.2633,-2.1909,-2.182,-2.1776,-2.1696,-2.1696,-2.1696,-2.1696,-2.1696,-2.1696,-2.1696,-2.1696,-2.1668,-2.165,-2.165,-2.1374,-2.0934,-2.0525,-2.014,-1.9847,-1.9847,-1.9586,-1.9301,-1.9301,-1.9301,-1.9301,-1.9301,-1.9301,-1.9301,-1.9301,-1.9301,-1.9301,-1.9301,-1.9301,-1.9301,-1.9301,-1.9301,-1.9301,-1.9301,-1.9301,-1.9301,-1.9301,-1.9301,-1.9301,-1.9301,-1.9301,-1.9301,-1.9301,-1.9301,-1.9301,-1.9301,-1.9301,-1.9301,-1.9301,-1.9301,-1.9301,-1.9301,-1.9301,-1.9301,-0.9563,-1.1106,-1.2682,-1.3073,-1.4614,0.0,0.0,-1.7714,-1.8322,-1.9315,-1.9803,-2.0079,-2.0293,-2.1192,-2.2099,-2.2593,-2.4212,-2.5486,-2.5681,-2.6416,-2.7013,-2.7167,-2.719,-2.719,-2.719,-2.719,-2.6974,-2.6351,-2.688,-2.6715,-2.5558,-2.6592,-2.6921,-2.6351,-2.5126,-2.4659,-2.4999,-2.2809,-2.1865,-2.2246,-2.2843,-2.3096,-2.3096,-2.3487,-2.3323,-2.2775,-2.2775,-2.2775,-2.2775,-2.2775,-2.2775,-2.2731,-2.2378,-2.1989,-2.1696,-2.1696,-2.1696,-2.1696,-2.1696,-2.1696,-2.1696,-2.1696,-2.1696,-2.1696,-2.1696,-2.1696,-2.1696,-2.1696,-2.1577,-2.1357,-2.0998,-2.0552,-2.025,-2.025,-2.0173,-2.0063,-2.0063,-2.0063,-1.998,-1.9701,-1.9655,-1.9613,-1.9347,-1.9301,-1.9301,-1.9301,-1.9301,-1.9301,-1.9301,-1.9301,-1.9301,-1.9301,-1.9301,-1.9301,-1.9301,-1.9301,-1.9301,-1.9301,-1.9301,-1.9301,-1.9301,-1.9301,-1.9301,-1.9301,-1.9301,-1.9301,-1.9301,-1.9301,-1.9301,-1.9301,-1.9301,-1.9301,-0.9577,-1.1198,-1.2969,-1.3291,0.0,0.0,-1.7867,-1.8644,-1.9482,-2.0653,-2.1169,-2.1477,-2.1638,-2.1927,-2.2386,-2.3052,-2.459,-2.5761,-2.5934,-2.6691,-2.719,-2.719,-2.719,-2.719,-2.719,-2.719,-2.6921,-2.631,-2.6839,-2.6674,-2.5432,-2.6539,-2.6745,-2.5819,-2.4956,-2.436,-2.4059,-2.2467,-2.1696,-2.1696,-2.2325,-2.2668,-2.2668,-2.2668,-2.229,-2.1696,-2.1696,-2.1696,-2.1696,-2.1696,-2.1696,-2.1696,-2.1696,-2.1696,-2.1696,-2.1696,-2.1696,-2.1696,-2.1696,-2.1696,-2.1696,-2.1696,-2.1696,-2.1696,-2.1696,-2.1696,-2.1696,-2.1696,-2.1696,-2.1623,-2.1383,-2.1007,-2.0704,-2.0704,-2.0613,-2.0521,-2.0521,-2.0521,-2.0438,-2.0131,-2.0076,-1.9948,-1.9567,-1.9503,-1.9457,-1.932,-1.9301,-1.9301,-1.9301,-1.9301,-1.9301,-1.9301,-1.9301,-1.9301,-1.9301,-1.9301,-1.9301,-1.9301,-1.9301,-1.9301,-1.9301,-1.9301,-1.9301,-1.9301,-1.9301,-1.9301,-1.9301,-1.9301,-1.9301,-1.9301,-1.9301,-1.9301,-1.0608,-1.1739,-1.3142,-1.4165,0.0,0.0,-1.9126,-1.97,-2.0136,-2.1608,-2.1906,-2.2099,-2.2593,-2.2719,-2.3018,-2.4028,-2.505,-2.5888,-2.6432,-2.6898,-2.719,-2.719,-2.719,-2.719,-2.719,-2.719,-2.719,-2.719,-2.719,-2.719,-2.719,-2.719,-2.6745,-2.5819,-2.4956,-2.4059,-2.3096,-2.2157,-2.1696,-2.1696,-2.1696,-2.1696,-2.1696,-2.1696,-2.1696,-2.1696,-2.1696,-2.1696,-2.1696,-2.1696,-2.1696,-2.1696,-2.1696,-2.1696,-2.1696,-2.1696,-2.1696,-2.1696,-2.1696,-2.1696,-2.1696,-2.1696,-2.1696,-2.1696,-2.1696,-2.1696,-2.1696,-2.1696,-2.1696,-2.1696,-2.1696,-2.1385,-2.1117,-2.1117,-2.0814,-2.053,-2.053,-2.053,-2.053,-2.0521,-2.0521,-2.036,-1.9966,-1.9893,-1.9756,-1.9375,-1.9311,-1.9311,-1.9311,-1.9311,-1.9311,-1.9311,-1.9311,-1.9311,-1.9311,-1.9311,-1.9311,-1.9311,-1.9311,-1.9311,-1.9301,-1.9301,-1.9301,-1.9301,-1.9301,-1.9301,-1.9301,-1.9301,-1.9301,-1.9301,-1.9301,-1.9301,-1.07,-1.1962,-1.3615,-1.4637,0.0,0.0,0.0,-2.0469,0.0,-2.3144,-2.3212,-2.3006,-2.3155,-2.3178,-2.3281,-2.3579,-2.482,-2.5761,-2.5911,-2.668,-2.719,-2.719,-2.719,-2.719,-2.719,-2.719,-2.719,-2.719,-2.719,-2.719,-2.719,-2.719,-2.6745,-2.5819,-2.4956,-2.4059,-2.3096,-2.2157,-2.1696,-2.1696,-2.1696,-2.1696,-2.1696,-2.1696,-2.1696,-2.1696,-2.1696,-2.1696,-2.1696,-2.1696,-2.1696,-2.1696,-2.1696,-2.1696,-2.1696,-2.1696,-2.1696,-2.1696,-2.1696,-2.1696,-2.1696,-2.1696,-2.1696,-2.1696,-2.1696,-2.1696,-2.1696,-2.1696,-2.1696,-2.1696,-2.1696,-2.1595,-2.1504,-2.1504,-2.1421,-2.133,-2.133,-2.133,-2.1248,-2.0989,-2.0934,-2.0805,-2.0369,-2.0296,-2.0301,-2.0173,-2.0154,-2.0154,-2.0154,-2.0154,-2.0154,-2.0154,-2.0154,-2.0154,-2.0154,-2.0154,-2.0154,-2.0154,-2.0154,-1.9897,-1.932,-1.9301,-1.9301,-1.9301,-1.9301,-1.9301,-1.9301,-1.9301,-1.9301,-1.9301,-1.9301,-1.9301,-1.1767,-1.3122,-1.4752,-1.5762,-1.7622,-1.9631,-2.1218,-2.1847,-2.2478,-2.3902,-2.3763,-2.3476,-2.3671,-2.3545,-2.3533,-2.3923,-2.476,-2.5474,-2.5681,-2.6416,-2.6921,-2.6921,-2.7105,-2.719,-2.719,-2.719,-2.719,-2.719,-2.719,-2.719,-2.719,-2.6839,-2.6227,-2.5326,-2.4392,-2.3497,-2.2545,-2.1989,-2.1696,-2.1696,-2.1696,-2.1696,-2.1696,-2.1696,-2.1696,-2.1696,-2.1696,-2.1696,-2.1696,-2.1696,-2.1696,-2.1696,-2.1696,-2.1696,-2.1696,-2.1696,-2.1696,-2.1696,-2.1696,-2.1696,-2.1696,-2.1696,-2.1696,-2.1696,-2.1696,-2.1696,-2.1696,-2.1696,-2.1696,-2.1696,-2.1696,-2.1696,-2.1696,-2.1696,-2.1696,-2.1696,-2.1696,-2.1696,-2.1623,-2.141,-2.1355,-2.1227,-2.0824,-2.075,-2.0695,-2.0539,-2.0521,-2.0521,-2.0521,-2.0521,-2.0521,-2.0521,-2.0521,-2.0521,-2.0521,-2.0521,-2.0521,-2.0521,-2.0521,-2.0292,-1.9806,-1.9632,-1.9549,-1.9549,-1.9549,-1.9632,-1.9787,-1.9787,-1.9787,-1.9787,-1.9787,-1.9787,-1.3291,-1.466,-1.6107,-1.7258,-1.8747,-2.0572,-2.288,-2.3442,-2.3602,-2.4097,-2.3797,-2.3614,-2.4108,-2.3786,-2.3774,-2.4705,-2.4889,-2.5084,-2.5578,-2.6071,-2.6455,-2.6501,-2.6875,-2.7133,-2.7179,-2.719,-2.719,-2.719,-2.719,-2.719,-2.719,-2.631,-2.5411,-2.4541,-2.3574,-2.2624,-2.1687,-2.1696,-2.1696,-2.1696,-2.1696,-2.1696,-2.1696,-2.1696,-2.1696,-2.1696,-2.1696,-2.1696,-2.1696,-2.1696,-2.1696,-2.1696,-2.1696,-2.1696,-2.1696,-2.1696,-2.1696,-2.1696,-2.1696,-2.1696,-2.1696,-2.1696,-2.1696,-2.1696,-2.1696,-2.1696,-2.1696,-2.1696,-2.1696,-2.1696,-2.1696,-2.1696,-2.1696,-2.1696,-2.1696,-2.1696,-2.1696,-2.1696,-2.1696,-2.1696,-2.1696,-2.1568,-2.1236,-2.1163,-2.1044,-2.0644,-2.0631,-2.0631,-2.0631,-2.0631,-2.0631,-2.0631,-2.0631,-2.0631,-2.0631,-2.0631,-2.0631,-2.0631,-2.0631,-2.057,-2.0576,-2.0149,-1.9939,-1.9939,-1.9939,-2.0122,-2.0521,-2.0521,-2.0521,-2.0521,-2.0521,-2.0521,-1.2981,-1.4132,0.0,-1.8012,-2.032,-2.2283,-2.3189,-2.3717,-2.4062,-2.4177,-2.4108,-2.4062,-2.4177,-2.4108,-2.4108,-2.4315,-2.4671,-2.4958,-2.5073,-2.5543,-2.6026,-2.6455,-2.6605,-2.6783,-2.7144,-2.719,-2.719,-2.719,-2.719,-2.719,-2.719,-2.631,-2.5411,-2.4541,-2.3574,-2.2624,-2.1687,-2.1696,-2.1696,-2.1696,-2.1696,-2.1696,-2.1696,-2.1696,-2.1696,-2.1696,-2.1696,-2.1696,-2.1696,-2.1696,-2.1696,-2.1696,-2.1696,-2.1696,-2.1696,-2.1696,-2.1696,-2.1696,-2.1696,-2.1696,-2.1696,-2.1696,-2.1696,-2.1696,-2.1696,-2.1696,-2.1696,-2.1696,-2.1696,-2.1696,-2.1696,-2.1696,-2.1696,-2.1696,-2.1696,-2.1696,-2.1696,-2.1696,-2.1696,-2.1696,-2.1696,-2.1668,-2.1577,-2.1559,-2.1531,-2.144,-2.1431,-2.1431,-2.1431,-2.1431,-2.1431,-2.1431,-2.1431,-2.1431,-2.1431,-2.1431,-2.1431,-2.1431,-2.1431,-2.1284,-2.0998,-2.0561,-2.0393,-2.0393,-2.0393,-2.0387,-2.0521,-2.0521,-2.0521,-2.0521,-2.0521,-2.0521,-1.3038,-1.4327,0.0,-1.8931,-2.0986,-2.2524,-2.3235,-2.3614,-2.3902,-2.4143,-2.42,-2.42,-2.42,-2.42,-2.42,-2.42,-2.4407,-2.4568,-2.4568,-2.5015,-2.5429,-2.5693,-2.5945,-2.6209,-2.6485,-2.6714,-2.6864,-2.6864,-2.7093,-2.719,-2.719,-2.5893,-2.5158,-2.5115,-2.3357,-2.2413,-2.2378,-2.1909,-2.1696,-2.1696,-2.1696,-2.1696,-2.1696,-2.1696,-2.1696,-2.1696,-2.1696,-2.1696,-2.1696,-2.1696,-2.1696,-2.1696,-2.1696,-2.1696,-2.1696,-2.1696,-2.1696,-2.1696,-2.1696,-2.1696,-2.1696,-2.1696,-2.1696,-2.1696,-2.1696,-2.1696,-2.1696,-2.1696,-2.1696,-2.1696,-2.1696,-2.1696,-2.1696,-2.1696,-2.1696,-2.1696,-2.1696,-2.1696,-2.1696,-2.1696,-2.1696,-2.1696,-2.1696,-2.1696,-2.1696,-2.1696,-2.1696,-2.1696,-2.1696,-2.1696,-2.1696,-2.1696,-2.1696,-2.1696,-2.1696,-2.1696,-2.1696,-2.1696,-2.1696,-2.1595,-2.142,-2.1174,-2.0964,-2.0805,-2.0805,-2.0897,-2.1055,-2.1055,-2.1055,-2.1055,-2.1055,-2.1055,-1.2812,-1.4591,-1.6692,-1.9459,-2.0974,-2.2009,-2.2937,-2.3281,-2.3533,-2.3982,-2.4143,-2.42,-2.42,-2.42,-2.42,-2.42,-2.42,-2.42,-2.42,-2.4533,-2.482,-2.49,-2.5302,-2.5612,-2.5704,-2.6094,-2.6375,-2.6375,-2.6806,-2.7093,-2.7093,-2.5599,-2.4999,-2.5579,-2.3226,-2.2246,-2.2843,-2.2078,-2.1696,-2.1696,-2.1696,-2.1696,-2.1696,-2.1696,-2.1696,-2.1696,-2.1696,-2.1696,-2.1696,-2.1696,-2.1696,-2.1696,-2.1696,-2.1696,-2.1696,-2.1696,-2.1696,-2.1696,-2.1696,-2.1696,-2.1696,-2.1696,-2.1696,-2.1696,-2.1696,-2.1696,-2.1696,-2.1696,-2.1696,-2.1696,-2.1696,-2.1696,-2.1696,-2.1696,-2.1696,-2.1696,-2.1696,-2.1696,-2.1696,-2.1696,-2.1696,-2.1696,-2.1696,-2.1696,-2.1696,-2.1696,-2.1696,-2.1696,-2.1696,-2.1696,-2.1696,-2.1696,-2.1696,-2.1696,-2.1696,-2.1696,-2.1696,-2.1696,-2.1696,-2.1696,-2.1696,-2.1696,-2.1531,-2.1218,-2.1218,-2.1383,-2.1696,-2.1696,-2.1696,-2.1696,-2.1696,-2.1696,-1.1297,0.0,-1.6919,0.0,-2.0224,-2.1454,-2.1963,-2.2777,-2.343,-2.3499,-2.389,-2.42,-2.42,-2.42,-2.42,-2.42,-2.42,-2.42,-2.42,-2.4246,-2.4441,-2.4866,-2.4981,-2.5199,-2.567,-2.5773,-2.5807,-2.5807,-2.6278,-2.6605,-2.6605,-2.5994,-2.5326,-2.4701,-2.3531,-2.2589,-2.1909,-2.1776,-2.1696,-2.1696,-2.1696,-2.1696,-2.1696,-2.1696,-2.1696,-2.1696,-2.1696,-2.1696,-2.1696,-2.1696,-2.1696,-2.1696,-2.1696,-2.1696,-2.1696,-2.1696,-2.1696,-2.1696,-2.1696,-2.1696,-2.1696,-2.1696,-2.1696,-2.1696,-2.1696,-2.1696,-2.1696,-2.1696,-2.1696,-2.1696,-2.1696,-2.1696,-2.1696,-2.1696,-2.1696,-2.1696,-2.1696,-2.1696,-2.1696,-2.1696,-2.1696,-2.1696,-2.1696,-2.1696,-2.1696,-2.1696,-2.1696,-2.1696,-2.1696,-2.1696,-2.1696,-2.1696,-2.1696,-2.1696,-2.1696,-2.1696,-2.1696,-2.1696,-2.1696,-2.1696,-2.1696,-2.1696,-2.1668,-2.1604,-2.1604,-2.1632,-2.1696,-2.1696,-2.1696,-2.1696,-2.1696,-2.1696,-1.199,-1.4144,-1.6186,0.0,-1.9413,-2.0569,-2.1319,-2.2065,-2.2639,-2.296,-2.3384,-2.3856,-2.4143,-2.42,-2.42,-2.42,-2.42,-2.42,-2.42,-2.42,-2.4281,-2.4487,-2.451,-2.4602,-2.4843,-2.5107,-2.5268,-2.5268,-2.575,-2.6048,-2.6048,-2.5365,-2.4897,-2.4858,-2.3428,-2.2655,-2.2501,-2.1945,-2.1696,-2.1696,-2.1696,-2.1696,-2.1696,-2.1696,-2.1696,-2.1696,-2.1696,-2.1696,-2.1696,-2.1696,-2.1696,-2.1696,-2.1696,-2.1696,-2.1696,-2.1696,-2.1696,-2.1696,-2.1696,-2.1696,-2.1696,-2.1696,-2.1696,-2.1696,-2.1696,-2.1696,-2.1696,-2.1696,-2.1696,-2.1696,-2.1696,-2.1696,-2.1696,-2.1696,-2.1696,-2.1696,-2.1696,-2.1696,-2.1696,-2.1696,-2.1696,-2.1696,-2.1696,-2.1696,-2.1696,-2.1696,-2.1696,-2.1696,-2.1696,-2.1696,-2.1696,-2.1696,-2.1696,-2.1696,-2.1696,-2.1696,-2.1696,-2.1696,-2.1696,-2.1696,-2.1696,-2.1696,-2.1696,-2.1696,-2.1696,-2.1696,-2.1696,-2.1696,-2.1696,-2.1696,-2.1696,-2.1696,-1.1951,0.0,-1.4993,-1.6873,-1.8318,-1.9562,-2.0592,-2.1284,-2.1881,-2.2386,-2.2891,-2.3327,-2.3741,-2.4028,-2.42,-2.42,-2.42,-2.42,-2.42,-2.42,-2.42,-2.42,-2.42,-2.42,-2.42,-2.4522,-2.4728,-2.4728,-2.521,-2.5509,-2.5509,-2.4776,-2.4433,-2.457,-2.3059,-2.2392,-2.2582,-2.2022,-2.1696,-2.1696,-2.1696,-2.1696,-2.1696,-2.1696,-2.1696,-2.1696,-2.1696,-2.1696,-2.1696,-2.1696,-2.1696,-2.1696,-2.1696,-2.1696,-2.1696,-2.1696,-2.1696,-2.1696,-2.1696,-2.1696,-2.1696,-2.1696,-2.1696,-2.1696,-2.1696,-2.1696,-2.1696,-2.1696,-2.1696,-2.1696,-2.1696,-2.1696,-2.1696,-2.1696,-2.1696,-2.1696,-2.1696,-2.1696,-2.1696,-2.1696,-2.1696,-2.1696,-2.1696,-2.1696,-2.1696,-2.1696,-2.1696,-2.1696,-2.1696,-2.1696,-2.1696,-2.1696,-2.1696,-2.1696,-2.1696,-2.1696,-2.1696,-2.1696,-2.1696,-2.1696,-2.1696,-2.1696,-2.1696,-2.1696,-2.1696,-2.1696,-2.1696,-2.1696,-2.1696,-2.1696,-2.1696,-2.1696,0.0,-1.1457,0.0,-1.489,-1.6724,-1.8467,-1.9528,-2.0546,-2.1385,-2.1825,-2.2375,-2.2731,-2.2788,-2.3546,-2.42,-2.42,-2.42,-2.42,-2.42,-2.42,-2.42,-2.42,-2.42,-2.42,-2.42,-2.4212,-2.4235,-2.4235,-2.4682,-2.4958,-2.4958,-2.4664,-2.4083,-2.3234,-2.2359,-2.1704,-2.1222,-2.153,-2.1696,-2.1696,-2.1696,-2.1696,-2.1696,-2.1696,-2.1696,-2.1696,-2.1696,-2.1696,-2.1696,-2.1696,-2.1696,-2.1696,-2.1696,-2.1696,-2.1696,-2.1696,-2.1696,-2.1696,-2.1696,-2.1696,-2.1696,-2.1696,-2.1696,-2.1696,-2.1696,-2.1696,-2.1696,-2.1696,-2.1696,-2.1696,-2.1696,-2.1696,-2.1696,-2.1696,-2.1696,-2.1696,-2.1696,-2.1696,-2.1696,-2.1696,-2.1696,-2.1696,-2.1696,-2.1696,-2.1696,-2.1696,-2.1696,-2.1696,-2.1696,-2.1696,-2.1696,-2.1696,-2.1696,-2.1696,-2.1696,-2.1696,-2.1696,-2.1696,-2.1696,-2.1696,-2.1696,-2.1696,-2.1696,-2.1696,-2.1696,-2.1696,-2.1696,-2.1696,-2.1696,-2.1696,-2.1696,-2.1696,0.0,0.0,0.0,-1.3652,-1.5154,-1.6518,-1.7898,-1.9017,-1.9941,-2.0779,-2.1353,-2.1845,-2.2134,-2.2754,-2.3328,-2.3625,-2.3682,-2.3797,-2.4154,-2.42,-2.42,-2.42,-2.42,-2.42,-2.42,-2.42,-2.42,-2.42,-2.4361,-2.4453,-2.4453,-2.3857,-2.3251,-2.2658,-2.1809,-2.1294,-2.1099,-2.1485,-2.1696,-2.1696,-2.1696,-2.1696,-2.1696,-2.1696,-2.1696,-2.1696,-2.1696,-2.1696,-2.1696,-2.1696,-2.1696,-2.1696,-2.1696,-2.1696,-2.1696,-2.1696,-2.1696,-2.1696,-2.1696,-2.1696,-2.1696,-2.1696,-2.1696,-2.1696,-2.1696,-2.1696,-2.1696,-2.1696,-2.1696,-2.1696,-2.1696,-2.1696,-2.1696,-2.1696,-2.1696,-2.1696,-2.1696,-2.1696,-2.1696,-2.1696,-2.1696,-2.1696,-2.1696,-2.1696,-2.1696,-2.1696,-2.1696,-2.1696,-2.1696,-2.1696,-2.1696,-2.1696,-2.1696,-2.1696,-2.1696,-2.1696,-2.1696,-2.1696,-2.1696,-2.1696,-2.1696,-2.1696,-2.1696,-2.1696,-2.1696,-2.1696,-2.1696,-2.1696,-2.1696,-2.1696,-2.1696,-2.1696,-0.8815,0.0,0.0,-1.2598,-1.3815,-1.5039,-1.6738,-1.7783,-1.8667,-1.9688,-2.0446,-2.104,-2.1353,-2.1824,-2.2398,-2.3075,-2.3155,-2.3327,-2.3879,-2.3936,-2.4005,-2.4177,-2.42,-2.42,-2.42,-2.42,-2.42,-2.42,-2.42,-2.408,-2.3824,-2.3027,-2.2216,-2.1401,-2.0913,-2.0756,-2.0906,-2.1319,-2.1549,-2.1696,-2.1696,-2.1696,-2.1696,-2.1696,-2.1696,-2.1696,-2.1696,-2.1696,-2.1696,-2.1696,-2.1696,-2.1696,-2.1696,-2.1696,-2.1696,-2.1696,-2.1696,-2.1696,-2.1696,-2.1696,-2.1696,-2.1696,-2.1696,-2.1696,-2.1696,-2.1696,-2.1696,-2.1696,-2.1696,-2.1696,-2.1696,-2.1696,-2.1696,-2.1696,-2.1696,-2.1696,-2.1696,-2.1696,-2.1696,-2.1696,-2.1696,-2.1696,-2.1696,-2.1696,-2.1696,-2.1696,-2.1696,-2.1696,-2.1696,-2.1696,-2.1696,-2.1696,-2.1696,-2.1696,-2.1696,-2.1696,-2.1696,-2.1696,-2.1696,-2.1696,-2.1696,-2.1696,-2.1696,-2.1696,-2.1696,-2.1696,-2.1696,-2.1696,-2.1696,-2.1696,-2.1696,-2.1696,0.0,0.0,0.0,-1.1595,-1.2681,-1.4052,-1.6037,-1.6899,-1.7591,-1.8632,-1.9631,-2.0343,-2.0377,-2.0791,-2.1477,-2.2477,-2.2673,-2.2834,-2.3316,-2.3384,-2.3579,-2.4108,-2.4177,-2.4177,-2.42,-2.42,-2.42,-2.42,-2.42,-2.3861,-2.3038,-2.222,-2.0991,-1.9341,-1.9714,-2.0076,-2.0493,-2.0906,-2.131,-2.1668,-2.1687,-2.1696,-2.1696,-2.1696,-2.1696,-2.1696,-2.1696,-2.1696,-2.1696,-2.1696,-2.1696,-2.1696,-2.1696,-2.1696,-2.1696,-2.1696,-2.1696,-2.1696,-2.1696,-2.1696,-2.1696,-2.1696,-2.1696,-2.1696,-2.1696,-2.1696,-2.1696,-2.1696,-2.1696,-2.1696,-2.1696,-2.1696,-2.1696,-2.1696,-2.1696,-2.1696,-2.1696,-2.1696,-2.1696,-2.1696,-2.1696,-2.1696,-2.1696,-2.1696,-2.1696,-2.1696,-2.1696,-2.1696,-2.1696,-2.1696,-2.1696,-2.1696,-2.1696,-2.1696,-2.1696,-2.1696,-2.1696,-2.1696,-2.1696,-2.1696,-2.1696,-2.1696,-2.1696,-2.1696,-2.1696,-2.1696,-2.1696,-2.1696,-2.1696,-2.1696,-2.1696,-2.1696,-0.8125,0.0,0.0,0.0,0.0,0.0,-1.3615,-1.4293,-1.5257,-1.7384,-1.8051,-1.8563,-1.9688,-2.001,-2.0308,-2.094,-2.1652,-2.2317,-2.2823,-2.2891,-2.3075,-2.3556,-2.3614,-2.3763,-2.4154,-2.42,-2.42,-2.42,-2.42,-2.3861,-2.3038,-2.1652,-2.0382,-1.9341,-1.9714,-1.9939,-2.0049,-2.0769,-2.1163,-2.1282,-2.1549,-2.1696,-2.1696,-2.1696,-2.1696,-2.1696,-2.1696,-2.1696,-2.1696,-2.1696,-2.1696,-2.1696,-2.1696,-2.1696,-2.1696,-2.1696,-2.1696,-2.1696,-2.1696,-2.1696,-2.1696,-2.1696,-2.1696,-2.1696,-2.1696,-2.1696,-2.1696,-2.1696,-2.1696,-2.1696,-2.1696,-2.1696,-2.1696,-2.1696,-2.1696,-2.1696,-2.1696,-2.1696,-2.1696,-2.1696,-2.1696,-2.1696,-2.1696,-2.1696,-2.1696,-2.1696,-2.1696,-2.1696,-2.1696,-2.1696,-2.1696,-2.1696,-2.1696,-2.1696,-2.1696,-2.1696,-2.1696,-2.1696,-2.1696,-2.1696,-2.1696,-2.1696,-2.1696,-2.1696,-2.1696,-2.1696,-2.1696,-2.1696,-2.1696,-2.1696,-2.1696,-2.1696,0.0,0.0,0.0,-1.0989,0.0,0.0,-1.3457,-1.3889,-1.4465,-1.6371,-1.712,-1.7671,-1.858,-1.908,-1.9447,-1.9734,-2.063,-2.1516,-2.226,-2.2363,-2.2559,-2.3064,-2.3121,-2.3328,-2.3833,-2.3879,-2.3971,-2.4177,-2.42,-2.3703,-2.2569,-2.0924,-1.9766,-1.9301,-1.954,-1.971,-1.9893,-2.0383,-2.0695,-2.0869,-2.1074,-2.1183,-2.1193,-2.1357,-2.1431,-2.144,-2.1614,-2.1696,-2.1696,-2.1696,-2.1696,-2.1696,-2.1696,-2.1696,-2.1696,-2.1696,-2.1696,-2.1696,-2.1696,-2.1696,-2.1696,-2.1696,-2.1696,-2.1696,-2.1696,-2.1696,-2.1696,-2.1696,-2.1696,-2.1696,-2.1696,-2.1696,-2.1696,-2.1696,-2.1696,-2.1696,-2.1696,-2.1696,-2.1696,-2.1696,-2.1696,-2.1696,-2.1696,-2.1696,-2.1696,-2.1696,-2.1696,-2.1696,-2.1696,-2.1696,-2.1696,-2.1696,-2.1696,-2.1696,-2.1696,-2.1696,-2.1696,-2.1696,-2.1696,-2.1696,-2.1696,-2.1696,-2.1696,-2.1696,-2.1696,-2.1696,-2.1696,-2.1696,-2.1696,-2.1696,-2.1696,-2.1696,-1.0218,-1.0492,0.0,-1.2463,-1.2381,0.0,-1.4288,-1.4466,-1.4488,-1.5452,-1.6372,-1.7016,-1.7131,-1.7909,-1.8575,-1.8632,-1.9493,-2.0538,-2.1573,-2.1768,-2.203,-2.2536,-2.2593,-2.28,-2.3281,-2.3327,-2.351,-2.3994,-2.3929,-2.3268,-2.1869,-2.0226,-1.9301,-1.9301,-1.9301,-1.9476,-1.982,-1.9866,-2.0067,-2.0415,-2.0493,-2.0521,-2.0488,-2.0924,-2.1108,-2.1126,-2.1513,-2.1696,-2.1696,-2.1696,-2.1696,-2.1696,-2.1696,-2.1696,-2.1696,-2.1696,-2.1696,-2.1696,-2.1696,-2.1696,-2.1696,-2.1696,-2.1696,-2.1696,-2.1696,-2.1696,-2.1696,-2.1696,-2.1696,-2.1696,-2.1696,-2.1696,-2.1696,-2.1696,-2.1696,-2.1696,-2.1696,-2.1696,-2.1696,-2.1696,-2.1696,-2.1696,-2.1696,-2.1696,-2.1696,-2.1696,-2.1696,-2.1696,-2.1696,-2.1696,-2.1696,-2.1696,-2.1696,-2.1696,-2.1696,-2.1696,-2.1696,-2.1696,-2.1696,-2.1696,-2.1696,-2.1696,-2.1696,-2.1696,-2.1696,-2.1696,-2.1696,-2.1696,-2.1696,-2.1696,-2.1696,-2.1696,-1.1168,-1.1762,-1.251,-1.1875,-1.2597,0.0,-1.2527,-1.279,-1.336,-1.3925,-1.4189,-1.458,-1.5406,-1.6061,-1.6623,-1.6977,-1.7894,-1.9051,-2.0473,-2.1055,-2.1535,-2.2019,-2.2043,-2.2271,-2.2777,-2.2823,-2.2868,-2.296,-2.2146,-2.167,-2.1773,-2.0226,-1.9301,-1.9301,-1.9301,-1.9347,-1.9421,-1.9719,-1.993,-2.0003,-2.0365,-2.0521,-2.0488,-2.0924,-2.1108,-2.1126,-2.1513,-2.1696,-2.1696,-2.1696,-2.1696,-2.1696,-2.1696,-2.1696,-2.1696,-2.1696,-2.1696,-2.1696,-2.1696,-2.1696,-2.1696,-2.1696,-2.1696,-2.1696,-2.1696,-2.1696,-2.1696,-2.1696,-2.1696,-2.1696,-2.1696,-2.1696,-2.1696,-2.1696,-2.1696,-2.1696,-2.1696,-2.1696,-2.1696,-2.1696,-2.1696,-2.1696,-2.1696,-2.1696,-2.1696,-2.1696,-2.1696,-2.1696,-2.1696,-2.1696,-2.1696,-2.1696,-2.1696,-2.1696,-2.1696,-2.1696,-2.1696,-2.1696,-2.1696,-2.1696,-2.1696,-2.1696,-2.1696,-2.1696,-2.1696,-2.1696,-2.1696,-2.1696,-2.1696,-2.1696,-2.1696,-2.1696,-1.2319,-1.2507,-1.3055,-1.3053,-1.3401,0.0,0.0,-1.3612,-1.3866,-1.4591,-1.435,-1.4224,-1.497,-1.5326,-1.559,-1.5807,-1.6933,-1.8024,-1.8793,-1.981,-2.0527,-2.0779,-2.0814,-2.1112,-2.1891,-2.1949,-2.2167,-2.2673,-2.1654,-2.1112,-2.1377,-2.0072,-1.9301,-1.9301,-1.9301,-1.9301,-1.9301,-1.9512,-1.9613,-1.9622,-1.9815,-1.9907,-1.9925,-2.0338,-2.0622,-2.0833,-2.1245,-2.1495,-2.1696,-2.1696,-2.1696,-2.1696,-2.1696,-2.1696,-2.1696,-2.1696,-2.1696,-2.1696,-2.1696,-2.1696,-2.1696,-2.1696,-2.1696,-2.1696,-2.1696,-2.1696,-2.1696,-2.1696,-2.1696,-2.1696,-2.1696,-2.1696,-2.1696,-2.1696,-2.1696,-2.1696,-2.1696,-2.1696,-2.1696,-2.1696,-2.1696,-2.1696,-2.1696,-2.1696,-2.1696,-2.1696,-2.1696,-2.1696,-2.1696,-2.1696,-2.1696,-2.1696,-2.1696,-2.1696,-2.1696,-2.1696,-2.1696,-2.1696,-2.1696,-2.1696,-2.1696,-2.1696,-2.1696,-2.1696,-2.1696,-2.1696,-2.1696,-2.1696,-2.1696,-2.1696,-2.1696,-2.1696,-1.3627,-1.3431,-1.3738,-1.4447,-1.447,-1.4439,0.0,0.0,0.0,-1.5337,-1.4809,-1.435,-1.4741,-1.4821,-1.4821,-1.4821,-1.6015,-1.6936,-1.6844,-1.8074,-1.9057,-1.9367,-1.9482,-1.9849,-2.0684,-2.0672,-2.1155,-2.2432,-2.1156,-2.0519,-2.0989,-1.9841,-1.9219,-1.9301,-1.9301,-1.9301,-1.9301,-1.9301,-1.9301,-1.9301,-1.9301,-1.9301,-1.932,-1.9742,-2.0104,-2.0539,-2.0934,-2.1346,-2.1696,-2.1696,-2.1696,-2.1696,-2.1696,-2.1696,-2.1696,-2.1696,-2.1696,-2.1696,-2.1696,-2.1696,-2.1696,-2.1696,-2.1696,-2.1696,-2.1696,-2.1696,-2.1696,-2.1696,-2.1696,-2.1696,-2.1696,-2.1696,-2.1696,-2.1696,-2.1696,-2.1696,-2.1696,-2.1696,-2.1696,-2.1696,-2.1696,-2.1696,-2.1696,-2.1696,-2.1696,-2.1696,-2.1696,-2.1696,-2.1696,-2.1696,-2.1696,-2.1696,-2.1696,-2.1696,-2.1696,-2.1696,-2.1696,-2.1696,-2.1696,-2.1696,-2.1696,-2.1696,-2.1696,-2.1696,-2.1696,-2.1696,-2.1696,-2.1696,-2.1696,-2.1696,-2.1696,-2.1696,-1.5044,-1.5359,-1.5749,-1.4619,-1.5589,-1.6253,-1.4262,0.0,-1.4809,-1.4017,0.0,-1.3696,-1.3753,0.0,0.0,-1.3765,-1.466,-1.5211,-1.4786,-1.5659,-1.6821,-1.8134,-1.8713,-1.9023,-1.9137,-1.8719,-1.9441,-2.1802,-1.9383,-1.8729,-2.0906,-1.9573,-1.8935,-1.9292,-1.9301,-1.9301,-1.9301,-1.9301,-1.9301,-1.9301,-1.9301,-1.9301,-1.932,-1.9742,-2.0104,-2.0539,-2.0934,-2.1346,-2.1696,-2.1696,-2.1696,-2.1696,-2.1696,-2.1696,-2.1696,-2.1696,-2.1696,-2.1696,-2.1696,-2.1696,-2.1696,-2.1696,-2.1696,-2.1696,-2.1696,-2.1696,-2.1696,-2.1696,-2.1696,-2.1696,-2.1696,-2.1696,-2.1696,-2.1696,-2.1696,-2.1696,-2.1696,-2.1696,-2.1696,-2.1696,-2.1696,-2.1696,-2.1696,-2.1696,-2.1696,-2.1696,-2.1696,-2.1696,-2.1696,-2.1696,-2.1696,-2.1696,-2.1696,-2.1696,-2.1696,-2.1696,-2.1696,-2.1696,-2.1696,-2.1696,-2.1696,-2.1696,-2.1696,-2.1696,-2.1696,-2.1696,-2.1696,-2.1696,-2.1696,-2.1696,-2.1696,-2.1696,-1.5299,-1.5624,-1.6027,-1.4966,-1.5578,-1.6062,-1.4583,-1.4555,-1.4846,-1.4733,0.0,0.0,0.0,0.0,0.0,0.0,-1.3948,-1.4063,-1.3601,-1.413,-1.5131,-1.6635,-1.7025,-1.7392,-1.7955,-1.8066,-1.8531,-1.9613,-1.8036,-1.7707,-1.9247,-1.8695,-1.855,-1.8944,-1.9182,-1.9301,-1.9301,-1.9301,-1.9301,-1.9301,-1.9301,-1.9301,-1.9311,-1.9485,-1.9916,-2.053,-2.0695,-2.1092,-2.1696,-2.1696,-2.1696,-2.1696,-2.1696,-2.1696,-2.1696,-2.1696,-2.1696,-2.1696,-2.1696,-2.1696,-2.1696,-2.1696,-2.1696,-2.1696,-2.1696,-2.1696,-2.1696,-2.1696,-2.1696,-2.1696,-2.1696,-2.1696,-2.1696,-2.1696,-2.1696,-2.1696,-2.1696,-2.1696,-2.1696,-2.1696,-2.1696,-2.1696,-2.1696,-2.1696,-2.1696,-2.1696,-2.1696,-2.1696,-2.1696,-2.1696,-2.1696,-2.1696,-2.1696,-2.1696,-2.1696,-2.1696,-2.1696,-2.1696,-2.1696,-2.1696,-2.1696,-2.1696,-2.1696,-2.1696,-2.1696,-2.1696,-2.1696,-2.1696,-2.1696,-2.1696,-2.1696,-2.1696,-1.6041,-1.6208,-1.6467,-1.5284,-1.5525,-1.58,-1.4838,-1.4938,-1.525,-1.5377,-1.5165,0.0,0.0,0.0,-1.3765,-1.3615,0.0,-1.3452,-1.2977,-1.3199,-1.3866,-1.5119,-1.5507,-1.6132,-1.7278,-1.7079,-1.7198,-1.8038,-1.6689,-1.6491,-1.8034,-1.7783,-1.7926,-1.8687,-1.899,-1.9191,-1.9301,-1.9301,-1.9301,-1.9301,-1.9301,-1.9301,-1.9301,-1.9301,-1.9742,-2.0521,-2.0521,-2.0979,-2.1696,-2.1696,-2.1696,-2.1696,-2.1696,-2.1696,-2.1696,-2.1696,-2.1696,-2.1696,-2.1696,-2.1696,-2.1696,-2.1696,-2.1696,-2.1696,-2.1696,-2.1696,-2.1696,-2.1696,-2.1696,-2.1696,-2.1696,-2.1696,-2.1696,-2.1696,-2.1696,-2.1696,-2.1696,-2.1696,-2.1696,-2.1696,-2.1696,-2.1696,-2.1696,-2.1696,-2.1696,-2.1696,-2.1696,-2.1696,-2.1696,-2.1696,-2.1696,-2.1696,-2.1696,-2.1696,-2.1696,-2.1696,-2.1696,-2.1696,-2.1696,-2.1696,-2.1696,-2.1696,-2.1696,-2.1696,-2.1696,-2.1696,-2.1696,-2.1696,-2.1696,-2.1696,-2.1696,-2.1696,-1.7838,-1.7835,-1.7631,-1.5523,-1.5691,-1.6038,-1.4699,-1.5517,-1.6277,-1.5314,-1.5865,-1.6231,-1.5292,-1.4695,-1.4189,0.0,-1.3593,0.0,0.0,-1.2912,-1.3107,-1.3624,-1.454,-1.5717,-1.7252,-1.5189,-1.4949,-1.7874,-1.5196,-1.4785,-1.792,-1.6987,-1.7092,-1.8669,-1.8724,-1.8916,-1.9292,-1.9301,-1.9301,-1.9301,-1.9301,-1.9301,-1.9301,-1.9301,-1.9742,-2.0521,-2.0521,-2.0979,-2.1696,-2.1696,-2.1696,-2.1696,-2.1696,-2.1696,-2.1696,-2.1696,-2.1696,-2.1696,-2.1696,-2.1696,-2.1696,-2.1696,-2.1696,-2.1696,-2.1696,-2.1696,-2.1696,-2.1696,-2.1696,-2.1696,-2.1696,-2.1696,-2.1696,-2.1696,-2.1696,-2.1696,-2.1696,-2.1696,-2.1696,-2.1696,-2.1696,-2.1696,-2.1696,-2.1696,-2.1696,-2.1696,-2.1696,-2.1696,-2.1696,-2.1696,-2.1696,-2.1696,-2.1696,-2.1696,-2.1696,-2.1696,-2.1696,-2.1696,-2.1696,-2.1696,-2.1696,-2.1696,-2.1696,-2.1696,-2.1696,-2.1696,-2.1696,-2.1696,-2.1696,-2.1696,-2.1696,-2.1696,-1.8496,-1.8868,-1.8907,-1.6778,-1.6666,-1.6634,-1.4981,-1.5232,-1.5581,-1.4804,-1.5503,-1.5982,-1.5015,-1.4607,0.0,0.0,0.0,-1.2958,0.0,-1.236,-1.267,-1.3489,-1.4494,-1.5039,-1.4901,-1.4428,-1.4422,-1.5072,-1.3982,-1.4034,-1.5693,-1.6124,-1.6773,-1.7871,-1.843,-1.8898,-1.9292,-1.9301,-1.9301,-1.9301,-1.9301,-1.9301,-1.9301,-1.9301,-1.9742,-2.0521,-2.0521,-2.0979,-2.1696,-2.1696,-2.1696,-2.1696,-2.1696,-2.1696,-2.1696,-2.1696,-2.1696,-2.1696,-2.1696,-2.1696,-2.1696,-2.1696,-2.1696,-2.1696,-2.1696,-2.1696,-2.1696,-2.1696,-2.1696,-2.1696,-2.1696,-2.1696,-2.1696,-2.1696,-2.1696,-2.1696,-2.1696,-2.1696,-2.1696,-2.1696,-2.1696,-2.1696,-2.1696,-2.1696,-2.1696,-2.1696,-2.1696,-2.1696,-2.1696,-2.1696,-2.1696,-2.1696,-2.1696,-2.1696,-2.1696,-2.1696,-2.1696,-2.1696,-2.1696,-2.1696,-2.1696,-2.1696,-2.1696,-2.1696,-2.1696,-2.1696,-2.1696,-2.1696,-2.1696,-2.1696,-2.1696,-2.1696,-1.9291,-1.9591,-1.9574,-1.7767,-1.7564,-1.7302,-1.5542,-1.5704,-1.6018,-1.5229,-1.5576,-1.5995,-1.5926,-1.5141,-1.4538,0.0,0.0,0.0,0.0,-1.2406,-1.2739,-1.3038,-1.3663,-1.4093,-1.4134,-1.3509,-1.3324,-1.3837,-1.3073,-1.3178,-1.4519,-1.5277,-1.6239,-1.7458,-1.8146,-1.876,-1.9292,-1.9301,-1.9301,-1.9301,-1.9301,-1.9301,-1.9301,-1.9301,-1.9742,-2.0521,-2.0521,-2.0979,-2.1696,-2.1696,-2.1696,-2.1696,-2.1696,-2.1696,-2.1696,-2.1696,-2.1696,-2.1696,-2.1696,-2.1696,-2.1696,-2.1696,-2.1696,-2.1696,-2.1696,-2.1696,-2.1696,-2.1696,-2.1696,-2.1696,-2.1696,-2.1696,-2.1696,-2.1696,-2.1696,-2.1696,-2.1696,-2.1696,-2.1696,-2.1696,-2.1696,-2.1696,-2.1696,-2.1696,-2.1696,-2.1696,-2.1696,-2.1696,-2.1696,-2.1696,-2.1696,-2.1696,-2.1696,-2.1696,-2.1696,-2.1696,-2.1696,-2.1696,-2.1696,-2.1696,-2.1696,-2.1696,-2.1696,-2.1696,-2.1696,-2.1696,-2.1696,-2.1696,-2.1696,-2.1696,-2.1696,-2.1696]},{"header":{"parameterUnit":"m.s-1","parameterCategory":1,"la1":30.6,"la2":29.2853,"lo1":-89.7004,"lo2":-87.6739,"dy":0.0162,"dx":0.0183,"nx":112,"ny":82,"refTime":"2024-08-26T06:00:00:Z","depth":0,"parameterNumber":3,"parameterNumberName":"V-component_of_WINDS"},"data":[0.0,0.0,0.0,0.0,0.0,0.0,0.0,0.0,0.0,0.0,0.0,0.0,0.0,0.0,0.0,0.0,0.0,0.0,0.0,0.0,0.0,0.0,0.0,0.0,0.0,0.0,0.0,0.0,0.0,0.0,0.0,0.0,0.0,0.0,0.0,0.0,0.0,0.0,0.0,0.0,0.0,0.0,0.0,0.0,0.0,0.0,0.0,0.0,0.0,0.0,0.0,0.0,0.0,0.0,0.0,0.0,0.0,0.0,0.0,0.0,0.0,0.0,0.0,0.0,0.0,0.0,0.0,0.0,0.0,0.0,0.0,0.0,0.0,0.0,0.0,0.0,0.0,0.0,0.0,0.0,0.0,0.0,0.0,0.0,0.0,0.0,0.0,0.0,0.0,0.0,1.6699,1.7225,1.9219,2.0505,2.0493,2.0497,1.904,1.5625,0.0,0.0,0.0,0.0,0.0,0.0,0.0,0.0,0.0,0.0,0.0,0.0,0.0,0.0,0.0,0.0,0.0,0.0,0.0,0.0,0.0,0.0,0.0,0.0,0.0,0.0,0.0,0.0,0.0,0.0,0.0,0.0,0.0,0.0,0.0,0.0,0.0,0.0,0.0,0.0,0.0,0.0,0.0,0.0,0.0,0.0,0.0,0.0,0.0,0.0,0.0,0.0,0.0,0.0,0.0,0.0,0.0,0.0,0.0,0.0,0.0,0.0,0.0,0.0,0.0,0.0,0.0,0.0,0.0,0.0,0.0,0.0,0.0,0.0,0.0,0.0,0.0,0.0,0.0,0.0,0.0,0.0,0.0,0.0,0.0,0.0,0.0,0.0,0.0,0.0,0.0,0.0,0.0,0.0,0.0,0.0,0.0,0.0,0.0,0.0,0.0,0.0,0.0,0.0,1.6703,1.9616,2.0273,2.0504,2.0504,2.0493,1.9035,1.5626,0.0,0.0,0.0,0.0,0.0,0.0,0.0,0.0,0.0,0.0,0.0,0.0,0.0,0.0,0.0,0.0,0.0,0.0,0.0,0.0,0.0,0.0,0.0,0.0,0.0,0.0,0.0,0.0,0.0,0.0,0.0,0.0,0.0,0.0,0.0,0.0,0.0,0.0,0.0,0.0,0.0,0.0,0.0,0.0,0.0,0.0,0.0,0.0,0.0,0.0,0.0,0.0,0.0,0.0,0.0,0.0,0.0,0.0,0.0,0.0,0.0,0.0,0.0,0.0,0.0,0.0,0.0,0.0,0.0,0.0,0.0,0.0,0.0,0.0,0.0,0.0,0.0,0.0,0.0,0.0,0.0,0.0,0.0,0.0,0.0,0.0,0.0,0.0,0.0,0.0,0.0,0.0,0.0,0.0,0.0,0.0,0.0,0.0,0.0,0.0,0.0,0.0,0.0,1.5396,1.7238,2.0195,2.0493,2.0497,2.0507,2.0501,1.9042,1.5625,1.5399,0.0,0.0,0.0,0.0,0.0,0.0,0.0,0.0,0.0,0.0,0.0,0.0,0.0,0.0,0.0,0.0,0.0,0.0,0.0,0.0,0.0,0.0,0.0,0.0,0.0,0.0,0.0,0.0,0.0,0.0,0.0,0.0,0.0,0.0,0.0,0.0,0.0,0.0,0.0,0.0,0.0,0.0,0.0,0.0,0.0,0.0,0.0,0.0,0.0,0.0,0.0,0.0,0.0,0.0,0.0,0.0,0.0,0.0,0.0,0.0,0.0,0.0,0.0,0.0,0.0,0.0,0.0,0.0,0.0,0.0,0.0,0.0,0.0,0.0,0.0,0.0,0.0,0.0,0.0,0.0,0.0,0.0,0.0,0.0,0.0,0.0,0.0,0.0,0.0,0.0,0.0,0.0,0.0,0.0,0.0,0.0,0.0,0.0,0.0,0.0,0.0,0.0,1.7489,1.8333,2.0295,2.05,2.0505,2.0498,2.0117,1.8606,1.5599,1.4825,0.0,0.0,0.0,0.0,0.0,0.0,0.0,0.0,0.0,0.0,0.0,0.0,0.0,0.0,0.0,0.0,0.0,0.0,0.0,0.0,0.0,0.0,0.0,0.0,0.0,0.0,0.0,0.0,0.0,0.0,0.0,0.0,0.0,0.0,0.0,0.0,0.0,0.0,0.0,0.0,0.0,0.0,0.0,0.0,0.0,0.0,0.0,0.0,0.0,0.0,0.0,0.0,0.0,0.0,0.0,0.0,0.0,0.0,0.0,0.0,0.0,0.0,0.0,0.0,0.0,0.0,0.0,0.0,0.0,0.0,0.0,0.0,0.0,0.0,0.0,0.0,0.0,0.0,0.0,0.0,0.0,0.0,0.0,0.0,0.0,0.0,0.0,0.0,0.0,0.0,0.0,0.0,0.0,0.0,0.0,0.0,0.0,0.0,0.0,0.0,0.0,0.0,1.8298,2.031,2.0486,2.049,2.0492,2.0507,1.9013,1.7322,1.5507,1.312,0.0,0.0,0.0,0.0,0.0,0.0,0.0,0.0,0.0,0.0,0.0,0.0,0.0,0.0,0.0,0.0,0.0,0.0,0.0,0.0,0.0,0.0,0.0,0.0,0.0,0.0,0.0,0.0,0.0,0.0,0.0,0.0,0.0,0.0,0.0,0.0,0.0,0.0,0.0,0.0,0.0,0.0,0.0,0.0,0.0,0.0,0.0,0.0,0.0,0.0,0.0,0.0,0.0,0.0,0.0,0.0,0.0,0.0,0.0,0.0,0.0,0.0,0.0,0.0,0.0,0.0,0.0,0.0,0.0,0.0,0.0,0.0,0.0,0.0,0.0,0.0,0.0,0.0,0.0,0.0,0.0,0.0,0.0,0.0,0.0,0.0,0.0,0.0,0.0,0.0,0.0,0.0,0.0,0.0,0.0,0.0,0.0,0.0,0.0,0.0,0.0,0.0,1.7433,1.9292,2.0387,2.0497,2.0496,2.0494,1.9895,1.8349,1.5565,0.0,0.0,0.0,0.0,0.0,0.0,0.0,0.0,0.0,0.0,0.0,0.0,0.0,0.0,0.0,0.0,0.0,0.0,0.0,0.0,0.0,0.0,0.0,0.0,0.0,0.0,0.0,0.0,0.0,0.0,0.0,0.0,0.0,0.0,0.0,0.0,0.0,0.0,0.0,0.0,0.0,0.0,0.0,0.0,0.0,0.0,0.0,0.0,0.0,0.0,0.0,0.0,0.0,0.0,0.0,0.0,0.0,0.0,0.0,0.0,0.0,0.0,0.0,0.0,0.0,0.0,0.0,0.0,0.0,0.0,0.0,0.0,0.0,0.0,0.0,0.0,0.0,0.0,0.0,0.0,0.0,0.0,0.0,0.0,0.0,0.0,0.0,0.0,0.0,0.0,0.0,0.0,0.0,0.0,0.0,0.0,0.0,0.0,0.0,0.0,0.0,0.0,1.5214,1.7333,1.9175,2.0374,2.0504,2.0495,2.0495,1.9984,1.8447,1.5571,0.0,0.0,0.0,0.0,0.0,0.0,0.0,0.0,0.0,0.0,0.0,0.0,0.0,0.0,0.0,0.0,0.0,0.0,0.0,0.0,0.0,0.0,0.0,0.0,0.0,0.0,0.0,0.0,0.0,0.0,0.0,0.0,0.0,0.0,0.0,0.0,0.0,0.0,0.0,0.0,0.0,0.0,0.0,0.0,0.0,0.0,0.0,0.0,0.0,0.0,0.0,0.0,0.0,0.0,0.0,0.0,0.0,0.0,0.0,0.0,0.0,0.0,0.0,0.0,0.0,0.0,0.0,0.0,0.0,0.0,0.0,0.0,0.0,0.0,0.0,0.0,0.0,0.0,0.0,0.0,0.0,0.0,0.0,0.0,0.0,0.0,0.0,0.0,0.0,0.0,0.0,0.0,0.0,0.0,0.0,0.0,0.0,0.0,0.0,0.0,0.0,0.0,1.5306,1.8334,2.0507,2.0507,2.0507,2.0507,2.0507,1.8917,1.7202,0.0,0.0,0.0,0.0,0.0,0.0,0.0,0.0,0.0,0.0,0.0,0.0,0.0,0.0,0.0,0.0,0.0,0.0,0.0,0.0,0.0,0.0,0.0,0.0,0.0,0.0,0.0,0.0,0.0,0.0,0.0,0.0,0.0,0.0,0.0,0.0,0.0,0.0,0.0,0.0,0.0,0.0,0.0,0.0,0.0,0.0,0.0,0.0,0.0,0.0,0.0,0.0,0.0,0.0,0.0,0.0,0.0,0.0,0.0,0.0,0.0,0.0,0.0,0.0,0.0,0.0,0.0,0.0,0.0,0.0,0.0,0.0,0.0,0.0,0.0,0.0,0.0,0.0,0.0,0.0,0.0,0.0,0.0,0.0,0.0,0.0,0.0,0.0,0.0,0.0,0.0,0.0,0.0,0.0,0.0,0.0,0.0,0.0,0.0,0.0,0.0,0.0,0.0,1.5308,1.8334,2.0507,2.0507,2.0507,2.0507,2.0507,2.0022,1.85,1.557,0.0,0.0,0.0,0.0,0.0,0.0,0.0,0.0,0.0,0.0,0.0,0.0,0.0,0.0,0.0,0.0,0.0,0.0,0.0,0.0,0.0,0.0,0.0,0.0,0.0,0.0,0.0,0.0,0.0,0.0,0.0,0.0,0.0,0.0,0.0,0.0,0.0,0.0,0.0,0.0,0.0,0.0,0.0,0.0,0.0,0.0,0.0,0.0,0.0,0.0,0.0,0.0,0.0,0.0,0.0,0.0,0.0,0.0,0.0,0.0,0.0,0.0,0.0,0.0,0.0,0.0,0.0,0.0,0.0,0.0,0.0,0.0,0.0,0.0,0.0,0.0,0.0,0.0,0.0,0.0,0.0,0.0,0.0,0.0,0.0,0.0,0.0,0.0,0.0,0.0,0.0,0.0,0.0,0.0,0.0,0.0,0.0,0.0,0.0,0.0,0.0,0.0,1.5266,1.7992,2.0039,2.0383,2.0435,2.0465,2.0465,2.0478,1.9174,1.6063,0.0,0.0,0.0,0.0,0.0,0.0,0.0,0.0,0.0,0.0,0.0,0.0,0.0,0.0,0.0,0.0,0.0,0.0,0.0,0.0,0.0,0.0,0.0,0.0,0.0,0.0,0.0,0.0,0.0,0.0,0.0,0.0,0.0,0.0,0.0,0.0,0.0,0.0,0.0,0.0,0.0,0.0,0.0,0.0,0.0,0.0,0.0,0.0,0.0,0.0,0.0,0.0,0.0,0.0,0.0,0.0,0.0,0.0,0.0,0.0,0.0,0.0,0.0,0.0,0.0,0.0,0.0,0.0,0.0,0.0,0.0,0.0,0.0,0.0,0.0,0.0,0.0,0.0,0.0,0.0,0.0,0.0,0.0,0.0,0.0,0.0,0.0,0.0,0.0,0.0,0.0,0.0,0.0,0.0,0.0,0.0,0.0,0.0,0.0,0.0,0.0,0.0,1.518,1.7514,1.941,2.0213,2.035,2.0379,2.0382,2.0457,1.9393,1.6854,0.0,0.0,0.0,0.0,0.0,0.0,0.0,0.0,0.0,0.0,0.0,0.0,0.0,0.0,0.0,0.0,0.0,0.0,0.0,0.0,0.0,0.0,0.0,0.0,0.0,0.0,0.0,0.0,0.0,0.0,0.0,0.0,0.0,0.0,0.0,0.0,0.0,0.0,0.0,0.0,0.0,0.0,0.0,0.0,0.0,0.0,0.0,0.0,0.0,0.0,0.0,0.0,0.0,0.0,0.0,0.0,0.0,0.0,0.0,0.0,1.4805,1.3013,0.0,0.0,0.0,0.0,0.0,0.0,0.0,0.0,0.0,0.0,0.0,0.0,0.0,0.0,0.0,0.0,0.0,0.0,0.0,0.0,0.0,0.0,0.0,0.0,0.0,0.0,0.0,0.0,0.0,0.0,0.0,0.0,0.0,0.0,0.0,0.0,0.0,0.0,0.0,0.0,1.5121,1.7909,1.9965,2.0204,2.0235,2.0257,2.033,2.0321,1.9513,1.7595,1.594,0.0,0.0,0.0,0.0,0.0,0.0,0.0,0.0,0.0,0.0,0.0,0.0,0.0,0.0,0.0,0.0,0.0,0.0,0.0,0.0,0.0,0.0,0.0,0.0,0.0,0.0,0.0,0.0,0.0,0.0,0.0,0.0,0.0,0.0,0.0,0.0,0.0,0.0,0.0,0.0,0.0,0.0,0.0,0.0,0.0,0.0,0.0,0.0,0.0,0.0,0.0,0.0,0.0,0.0,0.0,0.0,0.0,0.0,0.0,1.7082,1.5755,0.0,0.0,0.0,0.0,0.0,0.0,0.0,0.0,0.0,0.0,0.0,0.0,0.0,0.0,0.0,0.0,0.0,0.0,0.0,0.0,0.0,0.0,0.0,0.0,0.0,0.0,0.0,0.0,0.0,0.0,0.0,0.0,0.0,0.0,0.0,0.0,0.0,0.0,0.0,0.0,1.6101,1.8443,2.0327,2.1167,2.0939,2.0746,2.0772,2.043,1.9635,1.8313,1.708,0.0,0.0,0.0,0.0,0.0,0.0,0.0,0.0,0.0,0.0,0.0,0.0,0.0,0.0,0.0,0.0,0.0,0.0,0.0,0.0,0.0,0.0,0.0,0.0,0.0,0.0,0.0,0.0,0.0,0.0,0.0,0.0,0.0,0.0,0.0,0.0,0.0,0.0,0.0,0.0,0.0,0.0,0.0,0.0,0.0,0.0,0.0,0.0,0.0,0.0,0.0,0.0,0.0,1.9973,1.9761,2.1127,2.0415,2.0439,2.099,1.9573,1.9049,1.9056,1.7007,0.0,0.0,0.0,0.0,0.0,0.0,0.0,0.0,0.0,0.0,0.0,0.0,0.0,0.0,0.0,0.0,0.0,0.0,0.0,0.0,0.0,0.0,1.8683,1.9272,1.9406,1.8835,1.6732,0.0,0.0,0.0,0.0,0.0,0.0,0.0,0.0,0.0,0.0,0.0,1.7392,1.9222,2.0845,2.2224,2.1842,2.1423,2.1282,2.0661,1.9915,1.9056,1.8253,1.6793,0.0,0.0,0.0,0.0,0.0,0.0,0.0,0.0,0.0,0.0,0.0,0.0,0.0,0.0,0.0,0.0,0.0,0.0,0.0,0.0,0.0,0.0,0.0,0.0,0.0,0.0,0.0,0.0,0.0,0.0,0.0,0.0,1.2344,1.315,0.0,0.0,0.0,0.0,0.0,0.0,0.0,0.0,0.0,0.0,0.0,0.0,0.0,1.7047,1.8717,2.04,2.1701,2.2618,2.3686,2.434,2.4555,2.4441,2.443,2.4514,2.4112,0.0,2.0018,1.9683,0.0,0.0,0.0,0.0,0.0,0.0,0.0,0.0,0.0,0.0,0.0,0.0,0.0,0.0,0.0,0.0,0.0,0.0,0.0,0.0,0.0,0.0,2.2559,2.1988,2.1838,2.1744,2.1417,1.8631,1.6108,1.5788,1.5141,1.4348,0.0,0.0,0.0,0.0,0.0,0.0,1.8302,2.0527,2.2063,2.2299,2.2224,2.1916,2.1269,2.1115,2.0703,1.9887,1.9097,1.8145,1.7068,1.5502,0.0,0.0,0.0,0.0,0.0,0.0,0.0,0.0,0.0,0.0,0.0,0.0,0.0,0.0,0.0,0.0,0.0,0.0,0.0,0.0,0.0,0.0,0.0,0.0,0.0,0.0,0.0,0.0,0.0,1.1835,1.3502,1.3859,1.4449,1.4647,0.0,0.0,0.0,0.0,0.0,0.0,0.0,0.0,0.0,1.9322,1.8935,1.9556,2.1349,2.3587,2.4707,2.4732,2.5706,2.6162,2.6162,2.6162,2.6162,2.6162,2.6065,2.5246,2.3846,2.2186,2.0785,1.9648,0.0,0.0,0.0,0.0,1.9097,1.9234,2.0591,2.0994,2.0774,1.9863,0.0,0.0,0.0,0.0,0.0,0.0,0.0,2.0069,2.101,2.2376,2.3532,2.3637,2.3656,2.3656,2.3656,2.1895,1.9896,1.8486,1.8297,1.7528,1.4839,1.4734,0.0,0.0,0.0,1.863,2.0452,2.2018,2.3145,2.3599,2.3237,2.2837,2.2525,2.1626,2.0947,2.0589,1.9802,1.8977,1.8097,1.6971,1.5392,0.0,0.0,0.0,0.0,0.0,0.0,0.0,0.0,0.0,0.0,0.0,0.0,0.0,0.0,0.0,0.0,0.0,0.0,0.0,0.0,0.0,0.0,0.0,0.0,0.0,0.0,0.0,0.0,1.3445,1.4634,1.5088,1.6408,1.695,0.0,0.0,0.0,0.0,0.0,0.0,1.9448,1.9794,2.069,2.2308,2.1871,2.242,2.4128,2.6085,2.6842,2.6466,2.6766,2.6888,2.6888,2.6888,2.6888,2.6907,2.6842,2.6851,2.673,2.4531,2.3138,2.2351,2.1731,2.1347,2.1217,2.2117,2.2439,2.2615,2.391,2.4312,2.3988,2.2565,2.1777,2.1061,1.9205,0.0,0.0,0.0,0.0,2.1084,2.2548,2.3356,2.3964,2.4557,2.47,2.47,2.47,2.4238,2.3194,2.1159,2.1065,2.0277,1.6967,1.6916,0.0,1.7353,1.8549,2.022,2.2342,2.3307,2.4039,2.4651,2.4163,2.372,2.3513,2.2368,2.1466,2.1034,2.0446,1.9713,1.8868,1.8084,1.7005,1.554,0.0,0.0,0.0,0.0,0.0,0.0,0.0,0.0,0.0,0.0,0.0,0.0,0.0,0.0,0.0,0.0,0.0,0.0,0.0,0.0,0.0,0.0,0.0,0.0,0.0,0.0,0.0,0.0,0.0,1.825,1.9035,0.0,0.0,0.0,0.0,1.8027,1.8857,2.0296,2.2555,2.3586,2.4771,2.6277,2.5922,2.6024,2.6702,2.7219,2.7264,2.687,2.6898,2.6888,2.6888,2.6888,2.6888,2.6879,2.6698,2.6717,2.6898,2.6739,2.6162,2.538,2.5343,2.4935,2.4462,2.5275,2.5641,2.577,2.5863,2.5877,2.5737,2.4809,2.3494,2.2217,2.2086,2.1466,0.0,0.0,2.2687,2.3513,2.4369,2.4606,2.4643,2.4681,2.47,2.47,2.47,2.4662,2.4388,2.3494,2.2724,2.191,2.0865,0.0,2.0752,2.0752,2.1534,2.2436,2.3325,2.4144,2.467,2.47,2.4662,2.4332,2.3551,2.3419,2.2706,2.1109,2.0959,2.0577,1.9763,1.8906,1.8042,1.7192,1.5484,0.0,0.0,0.0,0.0,0.0,0.0,0.0,0.0,0.0,0.0,0.0,0.0,0.0,0.0,0.0,0.0,0.0,0.0,0.0,0.0,0.0,0.0,0.0,0.0,0.0,0.0,0.0,0.0,1.9989,2.1224,0.0,2.0837,2.0815,2.1195,2.2008,2.2758,2.3747,2.5077,2.5499,2.5941,2.6446,2.6622,2.6808,2.7034,2.7798,2.814,2.7979,2.7979,2.7979,2.7979,2.7979,2.7979,2.7997,2.7928,2.7928,2.7979,2.7979,2.7356,2.6367,2.6367,2.62,2.5987,2.6265,2.6404,2.6451,2.6451,2.6442,2.6405,2.6189,2.5731,2.5264,2.5264,2.4972,2.4717,2.494,2.5199,2.5466,2.5628,2.5663,2.5592,2.5236,2.5051,2.4856,2.4512,2.4445,2.4299,2.3842,2.3731,2.3273,2.1883,2.2107,2.2294,2.1734,2.2461,2.3363,2.4163,2.452,2.47,2.47,2.4618,2.449,2.4287,2.3641,2.2845,2.1903,2.1227,2.0513,1.9705,1.9369,1.8827,1.8024,1.6868,1.5097,0.0,0.0,0.0,0.0,0.0,0.0,0.0,0.0,0.0,0.0,0.0,0.0,0.0,0.0,0.0,0.0,0.0,0.0,0.0,0.0,0.0,0.0,0.0,0.0,0.0,1.8659,2.0387,2.1507,2.2996,2.3725,2.3181,2.3713,2.4334,2.4836,2.528,2.5888,2.6688,2.6997,2.727,2.7543,2.8112,2.8427,2.8427,2.9091,2.9409,2.9409,2.9409,2.9409,2.9409,2.9409,2.9409,2.9409,2.9409,2.9409,2.9409,2.9409,2.8937,2.8173,2.7621,2.7419,2.7437,2.7437,2.7461,2.7477,2.719,2.6931,2.6702,2.6792,2.6802,2.6773,2.6773,2.6663,2.651,2.6425,2.6403,2.6363,2.6238,2.6197,2.6103,2.5753,2.5562,2.5363,2.5014,2.4742,2.451,2.4334,2.4367,2.4048,2.2859,2.3128,2.333,2.2852,2.3273,2.3853,2.447,2.4528,2.4493,2.4493,2.4461,2.4461,2.4564,2.3668,2.2949,2.2596,2.1429,2.0515,1.9937,1.9669,1.9281,1.8781,1.764,1.5995,1.3795,0.0,0.0,0.0,0.0,0.0,0.0,0.0,0.0,0.0,0.0,0.0,0.0,0.0,0.0,0.0,0.0,0.0,0.0,0.0,0.0,0.0,0.0,0.0,1.8516,1.9734,2.1253,2.3001,2.4408,2.5204,2.5132,2.5866,2.6316,2.6276,2.6312,2.6663,2.7447,2.8243,2.9034,2.9807,3.0586,3.0985,3.0998,3.0998,3.0998,3.0998,3.0998,3.1003,3.0985,3.0985,3.0985,3.0971,3.0971,3.0971,3.0971,3.0971,3.0971,3.0826,2.9287,2.8797,2.8966,2.8966,2.9046,2.9027,2.8212,2.7427,2.6782,2.6763,2.6662,2.6567,2.6567,2.6414,2.6266,2.6266,2.6266,2.6236,2.6254,2.6254,2.6236,2.6229,2.6229,2.62,2.6193,2.5627,2.512,2.511,2.4711,2.4247,2.3943,2.3885,2.3973,2.4247,2.4059,0.0,2.4257,2.4164,2.4088,2.4088,2.4201,2.4275,2.4284,2.3574,2.3094,2.3039,2.1578,2.0652,2.0484,1.9802,1.9446,1.9515,1.7841,1.6096,1.4273,0.0,0.0,0.0,0.0,0.0,0.0,0.0,0.0,0.0,0.0,0.0,0.0,0.0,0.0,0.0,0.0,0.0,0.0,0.0,0.0,0.0,1.9785,2.1593,2.1658,2.2465,2.3651,2.5299,2.579,2.5997,2.5975,2.6637,2.7339,2.7894,2.8485,2.9052,2.9615,2.9866,3.008,3.0309,3.0524,3.0747,3.1003,3.0998,3.0998,3.0998,3.0998,3.0912,3.0786,3.0786,3.0729,3.065,3.065,3.065,3.065,3.065,3.065,3.061,3.0419,3.0373,3.0425,3.0425,3.035,3.0052,2.8619,2.8417,2.8699,2.813,2.7906,2.787,2.787,2.7776,2.7627,2.754,2.7513,2.7469,2.7329,2.7284,2.7183,2.6811,2.66,2.6379,2.5988,2.5751,2.5553,2.5349,2.535,2.5036,2.3945,2.3749,2.3788,2.385,2.3883,2.3933,2.3992,2.3973,2.3953,2.3953,2.3901,2.3901,2.3992,2.3617,2.2978,2.2008,2.1434,2.0862,2.0237,2.0019,1.9909,1.9926,1.7854,1.6524,0.0,0.0,0.0,0.0,0.0,0.0,0.0,0.0,0.0,0.0,0.0,0.0,0.0,0.0,0.0,0.0,0.0,0.0,0.0,0.0,0.0,0.0,2.1853,2.3631,2.4644,2.4855,2.5405,2.67,2.6799,2.703,2.7701,2.8136,2.8675,2.9355,2.9822,3.013,3.0251,3.0506,3.0667,3.0667,3.1082,3.14,3.1581,3.1581,3.1581,3.1581,3.1581,3.1535,3.1411,3.155,3.1586,3.1513,3.1513,3.1513,3.1513,3.1513,3.1513,3.1457,0.0,0.0,0.0,0.0,3.0718,3.0474,2.949,2.9511,2.9897,2.943,2.9245,2.9207,2.9207,2.8881,2.8475,2.8405,2.8129,2.785,2.773,2.7701,2.7622,2.7321,2.7148,2.6989,2.6666,2.6357,2.6087,2.5938,2.5769,0.0,2.4563,2.4159,2.3884,2.3656,2.3584,2.3617,2.3724,2.3682,2.3649,2.3649,2.3624,2.3653,2.3732,2.3278,0.0,0.0,0.0,2.1022,2.0528,2.0511,0.0,0.0,0.0,0.0,0.0,1.7442,0.0,0.0,1.6011,1.5966,0.0,0.0,0.0,0.0,0.0,0.0,0.0,0.0,0.0,0.0,0.0,0.0,0.0,0.0,0.0,0.0,2.3598,2.4895,2.72,2.6941,2.6826,2.7647,2.7713,2.8243,2.97,2.9863,3.0052,3.0495,3.0518,3.0397,3.0149,3.0661,0.0,0.0,0.0,3.244,3.2474,3.2562,3.2597,3.2597,3.2527,3.2457,3.2457,3.2724,3.2802,3.2786,3.2836,3.2836,3.2836,3.2836,3.2836,3.2709,3.1304,3.0784,3.0751,3.0647,3.0683,3.0703,3.0528,0.0,0.0,3.0493,3.0366,3.0294,3.0294,2.9706,2.9035,2.9035,2.8456,2.7841,2.7841,2.7771,2.7701,2.7701,2.7701,2.7701,2.7701,2.7192,2.6721,2.6721,2.6156,2.563,2.5559,2.4923,2.4239,2.3673,2.3401,2.3293,2.3441,2.3431,2.3383,2.3295,2.3472,0.0,2.3459,2.2789,2.2658,2.3281,2.1989,2.1196,2.1196,2.1202,2.117,2.1114,2.1081,2.0986,2.0807,2.0807,2.0859,2.0877,1.828,1.7732,0.0,0.0,0.0,0.0,0.0,0.0,0.0,0.0,0.0,0.0,0.0,0.0,0.0,0.0,0.0,2.4234,2.5354,2.6504,2.8003,2.8411,2.8737,2.9293,2.9331,2.9562,3.0154,3.0196,3.0351,3.0711,3.073,3.0958,3.1498,3.1385,3.1417,3.1688,3.2212,3.2647,3.2962,3.3501,3.3761,3.3761,3.3205,0.0,3.2707,3.2459,3.2249,3.2109,3.2388,3.2491,3.2491,3.2491,3.2491,3.2489,3.2449,3.2438,3.2333,3.1584,3.168,3.2002,3.0638,3.0571,3.0976,3.0362,3.0152,3.0138,3.0138,2.9999,0.0,2.9878,2.9299,2.8667,2.8667,2.8193,2.7701,2.7701,2.7701,2.7701,2.7701,2.7596,2.749,2.749,2.735,2.7069,2.6458,2.5717,2.4954,2.4262,2.4101,2.3847,2.3251,2.3726,2.3872,2.3214,2.3744,2.3879,2.3233,2.304,2.2758,2.2324,2.1995,2.1837,2.1837,2.183,2.1819,2.1814,2.1179,2.0833,2.0807,2.0807,2.1129,2.1744,2.0527,2.0125,0.0,0.0,0.0,0.0,0.0,0.0,0.0,0.0,0.0,0.0,0.0,2.0702,2.287,0.0,2.4898,2.6757,2.7296,2.7855,2.8855,2.9204,2.9497,2.9872,2.9898,3.0068,3.0506,3.0544,3.0694,3.1058,3.1109,3.1189,3.1391,3.1534,3.1678,3.1837,3.249,3.2941,3.3163,3.3467,3.3656,3.3656,3.3297,3.3103,3.2988,3.2928,3.285,3.2754,3.2924,3.311,3.3311,3.3475,3.3301,3.2985,3.3122,3.2977,3.2588,3.2116,3.2172,3.2384,3.1544,3.1493,3.1739,3.137,3.1247,3.1247,3.1247,3.0966,3.065,3.065,3.0106,2.9509,2.9509,2.9211,2.8895,2.8895,2.8596,2.8298,2.8298,2.7982,2.7701,2.7701,2.7701,2.7578,2.721,2.6823,2.6156,2.5015,2.4853,2.4559,2.3804,2.4045,2.415,2.3734,2.4062,2.4133,2.3716,2.3318,2.2932,2.2575,2.2558,2.2558,2.2558,2.2558,2.2558,2.2558,2.2154,2.1943,2.1943,2.1943,2.2154,2.2558,2.2552,2.2341,0.0,0.0,0.0,0.0,0.0,0.0,0.0,1.8161,1.947,2.1229,2.2343,2.3762,2.623,2.671,2.7273,2.8941,2.8812,2.8798,2.966,2.973,2.9816,3.014,3.0167,3.0344,3.0855,3.0906,3.0987,3.121,3.1378,3.1362,3.1133,3.1671,3.2007,3.2071,3.288,3.3331,3.3331,3.3465,3.3527,3.3527,3.3398,3.3331,3.3314,3.3465,3.3522,3.3543,3.3666,3.3942,3.431,3.4595,3.432,3.374,3.374,3.3266,3.2599,3.2458,3.2406,3.2406,3.2406,3.2406,3.2406,3.2406,3.2406,3.2406,3.2406,3.1949,3.1423,3.1423,3.0896,3.0317,3.0317,3.0211,3.0106,3.0106,2.9597,2.9141,2.9141,2.8509,2.7929,2.7929,2.7806,2.7701,2.7701,2.7701,2.7227,2.584,2.5616,2.5366,2.4607,2.4642,2.4695,2.4519,2.4502,2.4462,2.4308,2.3699,2.3318,2.3318,2.3195,2.3107,2.3107,2.3107,2.3177,2.3318,2.3177,2.3247,2.3546,2.3405,2.3318,2.3348,2.3992,2.3957,1.5862,1.5987,1.6255,1.7692,1.8258,1.9369,0.0,2.3171,2.3429,2.5691,2.6029,2.6436,2.8107,2.8135,2.8301,2.9444,2.9058,2.9006,3.0228,3.0132,3.02,3.0818,3.0797,3.0854,3.1206,3.1236,3.1058,3.0617,3.1207,3.17,3.1954,3.2362,3.274,3.3021,3.3478,3.3725,3.3725,3.4389,3.4721,3.4705,3.4057,3.3725,3.3709,3.3376,3.3224,3.3284,3.3862,3.433,3.4651,3.4688,3.4653,3.4583,3.4583,3.4091,3.3301,3.2651,3.2406,3.2406,3.2406,3.2406,3.2406,3.2406,3.2406,3.2406,3.2406,3.2335,3.2265,3.2265,3.1686,3.1072,3.1072,3.0598,3.0106,3.0106,3.002,2.9983,2.9983,2.9334,2.8772,2.8772,2.8193,2.7701,2.7701,2.7701,2.742,2.6581,2.6458,2.6177,2.5384,2.591,2.6068,2.5349,2.5279,2.5015,2.4374,2.4221,2.4168,2.4168,2.3506,2.3107,2.3107,2.3107,2.3435,2.415,2.347,2.3774,2.5142,2.4502,2.4168,2.4168,2.4269,2.4238,1.8944,1.9708,2.0203,2.0714,2.2017,2.3485,2.4672,2.5381,2.6194,2.7651,2.7679,2.7977,2.9683,2.9523,2.9458,3.0465,3.019,2.9975,3.044,3.0372,3.0239,3.0099,3.0387,3.067,3.0808,3.0821,3.0903,3.1123,3.1432,3.1845,3.2417,3.3018,3.3394,3.3528,3.4124,3.4435,3.4435,3.4591,3.4667,3.4667,3.4186,3.3966,3.3973,3.3782,3.3815,3.3978,3.446,3.4942,3.5417,3.5653,3.5586,3.5337,3.5337,3.4881,3.4108,3.3318,3.2774,3.2406,3.2406,3.2406,3.2406,3.2406,3.2406,3.2406,3.2406,3.2406,3.2406,3.2406,3.216,3.1897,3.1897,3.1668,3.144,3.144,3.1089,3.0738,3.0738,3.0141,2.9457,2.9,2.8601,2.8185,2.7714,2.7615,2.748,2.7183,2.7186,2.6964,2.6195,2.6388,2.6476,2.6125,2.609,2.5788,2.5011,2.4554,2.4304,2.4304,2.3975,2.3997,2.4423,2.444,2.4383,2.4304,2.3975,2.3892,2.4054,2.3751,2.3593,2.3628,2.4524,2.4927,2.1034,2.225,2.3119,2.3124,2.4893,2.6521,2.6144,2.7083,2.8247,2.9012,2.8904,2.9058,3.0351,3.0345,3.0289,3.0765,3.0724,3.0609,3.051,3.0506,3.029,2.9761,3.0174,3.0485,3.0422,3.0485,3.0782,3.144,3.1737,3.2166,3.2741,3.3551,3.3947,3.3877,3.4387,3.4667,3.4667,3.4497,3.4399,3.4399,3.4201,3.4101,3.4101,3.4101,3.4275,3.4554,3.4927,3.5419,3.5929,3.6364,3.6356,3.6048,3.6048,3.5593,3.4859,3.4298,3.3651,3.302,3.302,3.288,3.2704,3.2704,3.2564,3.2406,3.2406,3.2406,3.2406,3.2406,3.2406,3.2388,3.2354,3.2354,3.2336,3.2319,3.1863,3.1443,3.1443,3.0848,3.0148,2.957,2.9259,2.8809,2.8008,2.784,2.7722,2.7531,2.7585,2.7449,2.6927,2.6857,2.6784,2.6588,2.6745,2.6553,2.5778,2.5243,2.491,2.487,2.448,2.4511,2.5059,2.4852,2.4598,2.4321,2.4304,2.4221,2.4072,2.4072,2.4072,2.409,2.5212,2.5598,2.1253,2.2287,2.3558,2.4269,2.5826,2.7368,2.8041,2.88,2.9523,3.0208,3.0085,2.9854,2.9842,3.0293,3.0446,2.9765,3.0128,3.0489,3.0506,3.0506,3.0489,3.0472,3.0489,3.0422,3.0231,3.0401,3.0698,3.1199,3.2133,3.2757,3.2975,3.395,3.4366,3.4093,3.4109,3.4126,3.4126,3.4126,3.4126,3.4126,3.4101,3.4101,3.4101,3.4101,3.4267,3.4625,3.5168,3.5577,3.595,3.6464,3.6684,3.6667,3.6667,3.618,3.5486,3.5584,3.5209,3.4618,3.4618,3.4127,3.3477,3.3459,3.2967,3.2406,3.2406,3.2406,3.2406,3.2406,3.2406,3.2371,3.2249,3.2197,3.2179,3.2126,3.2091,3.2073,3.2073,3.1429,3.0872,3.0837,3.0246,2.9515,2.8714,2.8559,2.8315,2.76,2.7511,2.7494,2.7476,2.7476,2.7228,2.6568,2.7145,2.7267,2.6516,2.6517,2.6454,2.6257,2.495,2.4204,2.423,2.3479,2.346,2.4273,2.4304,2.5029,2.6493,2.6493,2.6493,2.6493,2.6528,2.6114,2.2926,2.4428,2.5761,2.6522,2.7929,2.9171,2.932,2.9929,3.0364,3.0068,2.9902,2.9652,2.9034,2.9112,2.9287,2.9443,2.9652,2.9926,3.0423,3.0919,3.0827,2.9691,3.0427,3.0538,2.9323,2.9873,3.0783,3.1909,3.2128,3.2758,3.3933,3.4145,3.4201,3.4101,3.4101,3.4101,3.4101,3.3924,3.3822,3.3822,3.3642,3.3581,3.3581,3.3581,3.372,3.3993,3.4193,3.4553,3.5081,3.5616,3.5985,3.6199,3.6544,3.6528,3.6301,3.6342,3.6225,3.5898,3.5019,3.4458,3.4157,3.4156,3.3595,3.2929,3.2929,3.2598,3.2196,3.2196,3.2196,3.2196,3.2161,3.2126,3.2126,3.2108,3.209,3.209,3.209,3.1899,3.1533,3.0994,3.0664,3.0213,2.9399,2.9227,2.8951,2.8208,2.7764,2.7496,2.7496,2.7496,2.7407,2.7193,2.7385,2.7243,2.6551,2.6527,2.6524,2.6492,2.6048,2.6023,2.65,2.6255,2.6023,2.5823,2.5823,2.5823,2.5805,2.5805,2.5805,2.5823,2.6311,2.6401,2.4683,2.6134,2.7334,2.8312,2.9308,3.0082,3.0222,3.0418,3.0328,2.951,2.9123,2.8603,2.7491,2.7505,2.7883,2.8542,2.9069,2.9744,3.0754,3.145,3.144,3.0353,3.1001,3.1063,2.9855,3.0305,3.1099,3.2048,3.2262,3.2846,3.4011,3.4,3.3899,3.3822,3.4063,3.4166,3.4166,3.4255,3.4303,3.4303,3.4116,3.3909,3.3656,3.3656,3.3636,3.3581,3.3745,3.4059,3.4448,3.4958,3.5305,3.5537,3.5898,3.6023,3.6045,3.6259,3.6343,3.6246,3.5614,3.5168,3.4866,3.4866,3.4305,3.3587,3.329,3.2873,3.2439,3.216,3.209,3.209,3.2055,3.2037,3.2019,3.2001,3.1983,3.1983,3.1983,3.1983,3.1844,3.1323,3.1183,3.0906,3.0128,2.973,2.9351,2.8868,2.8466,2.8011,2.7506,2.7436,2.7436,2.7467,2.7467,2.7291,2.6864,2.6842,2.6856,2.6842,2.6592,2.6659,2.713,2.6918,2.6551,2.6111,2.6416,2.6293,2.5722,2.6058,2.6212,2.6188,2.667,2.6898,2.6387,2.735,2.8227,2.9604,2.9955,3.0121,3.0694,3.0252,2.9477,2.856,2.7792,2.6809,2.5276,2.5606,2.6402,2.7116,2.8456,2.9889,3.1378,3.2021,3.2305,3.2272,3.2073,3.1854,3.1606,3.1646,3.1694,3.1694,3.2482,3.3083,3.3361,3.3603,3.3618,3.3403,3.402,3.4352,3.4352,3.5047,3.5394,3.5394,3.5394,3.5015,3.4352,3.4352,3.4004,3.343,3.3928,3.4099,3.4133,3.4586,3.4745,3.4785,3.4833,3.484,3.4911,3.5498,3.572,3.5825,3.6444,3.6177,3.5551,3.5551,3.5064,3.4297,3.3533,3.3272,3.3099,3.2403,3.216,3.2107,3.1982,3.1929,3.1893,3.1837,3.18,3.18,3.18,3.18,3.18,3.18,3.18,3.1576,3.0869,3.0093,2.9558,2.9558,2.9541,2.8989,2.754,2.7351,2.7365,2.7393,2.7392,2.7409,2.7392,2.7452,2.7452,2.7313,2.6649,2.6279,2.6266,2.5591,2.5253,2.531,2.6123,2.649,2.6365,2.7259,2.7674,2.7602,2.7587,2.7557,2.7647,2.8758,2.957,3.0432,3.0647,3.0526,3.0039,2.9349,2.8443,2.707,2.6206,2.5227,2.3735,2.4514,2.5606,2.6369,2.7951,2.9604,3.1101,3.2173,3.2562,3.1854,3.2208,3.2174,3.1369,3.2247,3.2875,3.2875,3.2635,3.3004,3.4282,3.4239,3.437,3.4841,3.5015,3.511,3.511,3.53,3.5394,3.5394,3.5394,3.53,3.511,3.511,3.5015,3.4853,3.4435,3.425,3.4255,3.427,3.4284,3.4341,3.5115,3.5391,3.5459,3.5968,3.6156,3.6178,3.6343,3.6343,3.6249,3.6249,3.5668,3.4967,3.4743,3.4293,3.3846,3.3656,3.3152,3.2703,3.2648,3.2234,3.1819,3.18,3.18,3.18,3.18,3.18,3.18,3.18,3.18,3.1731,3.1541,3.0886,3.0386,3.0386,2.9886,2.9179,2.823,2.8127,2.7919,2.7382,2.733,2.7346,2.7409,2.7423,2.7421,2.7452,2.7274,2.717,2.717,2.6996,2.6907,2.6922,2.7128,2.723,2.7183,2.7437,2.7539,2.7526,2.7467,2.7467,2.8712,2.9741,3.0415,3.0734,3.058,3.0106,2.9273,2.8004,2.6572,2.506,2.3918,2.2792,2.1591,2.2628,2.3951,2.4871,2.7011,2.9139,3.0815,3.2101,3.2779,3.2542,3.2777,3.2857,3.2608,3.3277,3.3862,3.4194,3.3862,3.4053,3.4966,3.4861,3.4968,3.5379,3.5695,3.5995,3.6311,3.6311,3.6311,3.6311,3.6311,3.6137,3.5853,3.5853,3.5679,3.5363,3.4952,3.4778,3.4774,3.4702,3.4482,3.423,3.4807,3.5002,3.4998,3.5464,3.5793,3.6028,3.6237,3.636,3.6423,3.6423,3.6067,3.5611,3.5283,3.4904,3.4527,3.4199,3.3766,3.3352,3.299,3.2593,3.2196,3.1869,3.18,3.18,3.18,3.18,3.18,3.18,3.18,3.18,3.18,3.1455,3.1179,3.1179,3.08,3.0248,2.9506,2.9092,2.861,2.7851,2.7782,2.766,2.7379,2.7362,2.7376,2.7405,2.7405,2.7405,2.7405,2.7405,2.7405,2.7405,2.7436,2.7436,2.7405,2.7465,2.7481,2.7452,2.7423,2.7423,2.9591,3.0332,3.0851,3.0712,3.0122,2.9337,2.8461,2.6535,2.4514,2.2924,2.1499,2.0235,1.929,2.0558,2.2121,2.3175,2.5931,2.862,3.0571,3.1887,3.2901,3.3578,3.353,3.3656,3.4225,3.4462,3.4841,3.5473,3.5616,3.5631,3.5537,3.5521,3.5568,3.5663,3.6248,3.6864,3.7494,3.751,3.751,3.751,3.751,3.7148,3.6535,3.6535,3.6232,3.5663,3.5568,3.5521,3.5521,3.5426,3.4952,3.4315,3.437,3.4286,3.4176,3.4617,3.5138,3.5661,3.6071,3.6259,3.6301,3.6301,3.6301,3.618,3.5542,3.5335,3.5197,3.4559,3.432,3.4096,3.3386,3.3059,3.2748,3.2093,3.1869,3.18,3.18,3.18,3.18,3.18,3.18,3.18,3.18,3.18,3.18,3.18,3.18,3.1558,3.0938,3.0144,2.9368,2.8627,2.8558,2.8282,2.7644,2.7489,2.7437,2.7437,2.7351,2.7299,2.7299,2.7299,2.7299,2.7299,2.7362,2.7362,2.7299,2.7421,2.7436,2.7393,2.7393,2.7445,3.0182,3.0633,3.0692,3.0568,2.9984,2.9089,2.7779,2.579,2.3603,2.1514,2.0306,1.9222,1.79,1.9843,2.1834,2.2492,2.5454,2.8349,3.0291,3.1612,3.2621,3.3293,3.3809,3.4162,3.4273,3.5363,3.6077,3.6203,3.6785,3.6864,3.625,3.6219,3.6516,3.713,3.7257,3.7354,3.751,3.751,3.751,3.751,3.751,3.7447,3.7291,3.7291,3.7257,3.7114,3.65,3.6219,3.6172,3.5631,3.4952,3.4343,3.4781,3.4597,3.4176,3.4617,3.5138,3.5616,3.5683,3.5985,3.6301,3.6301,3.6301,3.6284,3.6146,3.6111,3.6077,3.5956,3.5473,3.4973,3.4835,3.3852,3.2869,3.2748,3.2231,3.18,3.18,3.18,3.18,3.18,3.18,3.18,3.18,3.18,3.18,3.18,3.18,3.1748,3.1627,3.0973,3.0179,2.9403,2.9317,2.9265,2.9127,2.8558,2.8213,2.8213,2.7627,2.7299,2.7299,2.7299,2.7299,2.7299,2.7315,2.7315,2.7299,2.7313,2.7329,2.7315,2.7315,2.7625,3.031,3.0589,3.0589,3.0526,2.94,2.7945,2.6468,0.0,0.0,1.931,1.8292,1.7486,1.6678,1.8619,2.0509,2.0975,2.3446,2.6122,2.8421,2.9824,3.116,3.2623,3.3699,3.4446,3.4826,3.5805,3.655,3.6943,3.7291,3.7368,3.699,3.6975,3.7133,3.7494,3.751,3.751,3.751,3.751,3.751,3.751,3.751,3.751,3.751,3.751,3.751,3.7494,3.7117,3.6975,3.6943,3.6611,3.6058,3.5391,3.5286,3.5005,3.4621,3.4749,3.5138,3.5638,3.5876,3.6114,3.6301,3.6301,3.6301,3.6301,3.6301,3.6301,3.6301,3.6301,3.6042,3.568,3.5283,3.4645,3.399,3.3611,3.2921,3.2369,3.2369,3.2076,3.18,3.18,3.18,3.18,3.18,3.18,3.18,3.18,3.18,3.18,3.18,3.1489,3.0972,3.0213,3.011,2.9955,2.9541,2.9179,2.8972,2.8972,2.8644,2.8437,2.8437,2.8075,2.804,2.8437,2.7678,2.7678,2.8437,2.8058,2.8075,2.8437,2.8437,2.8627,3.0026,3.0373,3.0506,3.0506,2.8887,2.6901,2.5441,2.2231,1.9098,1.7404,1.6549,1.5991,1.5631,1.7397,1.9108,1.9703,2.1579,2.3925,2.6709,2.8246,2.9888,3.2038,3.3636,3.4747,3.5331,3.6153,3.688,3.7462,3.751,3.751,3.751,3.751,3.751,3.751,3.751,3.751,3.751,3.751,3.751,3.751,3.751,3.751,3.751,3.751,3.751,3.751,3.751,3.751,3.751,3.751,3.7069,3.6358,3.5788,3.5385,3.5075,3.4864,3.5138,3.5638,3.6028,3.6216,3.6301,3.6301,3.6301,3.6301,3.6301,3.6301,3.6301,3.6301,3.6301,3.6163,3.5576,3.5318,3.5007,3.4286,3.3611,3.3162,3.3162,3.2559,3.2041,3.2041,3.1903,3.18,3.18,3.18,3.18,3.18,3.18,3.18,3.18,3.18,3.1576,3.1007,3.0938,3.0679,3.0058,2.9851,2.9765,2.9765,2.961,2.9506,2.9506,2.8937,2.892,2.9489,2.8368,2.8334,2.9506,2.892,2.8937,2.9506,2.9506,2.9592,2.9152,2.9992,3.0506,3.0506,2.8887,2.6901,2.5441,0.0,1.89,1.6734,1.6045,1.5619,1.4925,1.6559,1.8403,1.9609,2.1148,2.3349,2.6646,2.8246,2.9888,3.2038,3.4078,3.5315,3.5379,3.6595,3.7431,3.7494,3.751,3.751,3.751,3.751,3.751,3.751,3.751,3.751,3.751,3.751,3.751,3.751,3.751,3.751,3.751,3.751,3.751,3.751,3.751,3.751,3.751,3.751,3.7069,3.6387,3.6128,3.5657,3.5075,3.4864,3.5138,3.5611,3.5655,3.5941,3.6301,3.6301,3.6301,3.6301,3.6301,3.6301,3.6301,3.6301,3.6301,3.6284,3.6215,3.5697,3.5007,3.4286,3.4044,3.3992,3.3992,3.3352,3.28,3.28,3.2265,3.18,3.18,3.18,3.18,3.18,3.18,3.18,3.18,3.18,3.1765,3.1714,3.1696,3.1662,3.1593,3.0955,3.0593,3.0593,2.9903,2.9506,2.9506,2.9437,2.9437,2.9506,2.9368,2.9368,2.9506,2.9437,2.9437,2.9506,2.9506,2.9886,2.9019,2.9926,3.039,2.9943,2.8224,2.6119,2.41,2.1138,1.8251,1.6358,1.5859,1.5687,1.5304,1.6273,1.7561,1.8914,1.9655,2.1114,2.4147,2.5756,2.7737,3.0678,3.2866,3.4636,3.5884,3.6896,3.751,3.751,3.751,3.751,3.751,3.751,3.751,3.751,3.751,3.751,3.751,3.751,3.751,3.751,3.751,3.751,3.751,3.751,3.751,3.751,3.751,3.751,3.7539,3.7857,3.7825,3.7544,3.7377,3.6878,3.6222,3.6016,3.5784,3.5638,3.592,3.6135,3.6301,3.6301,3.6301,3.6301,3.6301,3.6301,3.6301,3.6301,3.6301,3.6301,3.6301,3.6077,3.5783,3.549,3.5076,3.4749,3.4749,3.4162,3.3611,3.3611,3.299,3.2455,3.2455,3.2093,3.18,3.18,3.18,3.18,3.18,3.18,3.18,3.18,3.18,3.18,3.18,3.1524,3.1351,3.1351,3.1058,3.0886,3.0886,3.0455,3.0437,3.0886,2.9972,2.9972,3.0886,3.0437,3.0455,3.0886,3.0886,3.1058,2.8075,2.9148,2.9764,2.9234,2.7425,2.5238,2.3161,2.0364,1.7721,1.6136,1.5779,1.5722,1.5617,1.6149,1.7067,1.8473,1.8708,1.9751,2.2769,2.4242,2.6124,2.9224,3.1413,3.3435,3.5287,3.6706,3.751,3.751,3.751,3.751,3.751,3.751,3.751,3.751,3.751,3.751,3.751,3.751,3.751,3.751,3.751,3.751,3.751,3.751,3.7583,3.7743,3.7743,3.7844,3.8046,3.8423,3.8574,3.8547,3.8413,3.802,3.7536,3.735,3.6803,3.6217,3.6539,3.649,3.6301,3.6301,3.6301,3.6301,3.6301,3.6301,3.6301,3.6301,3.6301,3.6301,3.6301,3.6301,3.6301,3.6301,3.5904,3.5525,3.5525,3.4938,3.4441,3.4441,3.3783,3.3248,3.3248,3.2817,3.2472,3.2472,3.2472,3.2472,3.2472,3.2472,3.2386,3.2145,3.2127,3.2041,3.1817,3.18,3.18,3.18,3.18,3.18,3.18,3.13,3.1265,3.1783,3.0731,3.0713,3.18,3.1282,3.1282,3.18,3.18,3.18,2.5821,2.7296,2.8426,2.8409,2.659,2.4442,2.3014,2.0218,1.7514,1.6088,1.569,1.5592,1.5592,1.6149,1.7067,1.8473,1.8708,1.9909,2.3399,2.4543,2.5776,2.7857,2.9959,3.1792,3.3198,3.5853,3.751,3.751,3.751,3.751,3.751,3.751,3.751,3.751,3.751,3.751,3.751,3.751,3.751,3.751,3.751,3.751,3.751,3.751,3.7786,3.8278,3.8278,3.8629,3.9179,3.9179,3.9206,3.9176,3.8984,3.8896,3.8868,3.8654,3.8112,3.7473,3.7495,3.6978,3.6301,3.6301,3.6301,3.6301,3.6301,3.6301,3.6301,3.6301,3.6301,3.6301,3.6301,3.6301,3.6301,3.6301,3.6284,3.6284,3.6284,3.5714,3.518,3.518,3.4576,3.4096,3.4096,3.4079,3.4079,3.4079,3.4079,3.4079,3.4079,3.4079,3.3766,3.2972,3.2886,3.2593,3.1852,3.18,3.18,3.18,3.18,3.18,3.18,3.1783,3.1783,3.18,3.1783,3.1783,3.18,3.1783,3.1783,3.18,3.18,3.18,2.3572,2.4873,2.5729,2.4638,2.3782,2.2688,2.0644,1.9378,1.8207,1.6667,1.6317,1.6278,1.6278,1.6467,1.7383,1.9751,2.0146,2.1015,2.3541,2.5361,2.7194,2.9303,3.3056,3.5663,3.6121,3.6988,3.751,3.751,3.751,3.751,3.751,3.751,3.751,3.751,3.751,3.751,3.751,3.751,3.7685,3.8026,3.7685,3.7685,3.8055,3.8055,3.7927,3.7786,3.8562,3.8794,3.8657,3.9437,3.9749,3.9783,4.0129,3.9928,3.9391,3.8979,3.8573,3.8119,3.7194,3.6999,3.7047,3.6473,3.6301,3.6301,3.6301,3.6301,3.6301,3.6301,3.6301,3.6301,3.6301,3.6301,3.6301,3.6301,3.6301,3.6301,3.6301,3.6111,3.5956,3.5956,3.5352,3.4835,3.4835,3.4441,3.4113,3.4113,3.4113,3.4113,3.4113,3.3782,3.3458,3.3203,3.3169,3.2795,3.1885,3.18,3.18,3.18,3.18,3.18,3.18,3.18,3.18,3.18,3.18,3.18,3.18,3.2317,3.2559,3.2541,3.2024,3.18,2.1059,2.249,2.3342,2.2345,2.1842,2.1148,1.9399,1.8751,1.8155,1.686,1.661,1.661,1.661,1.661,1.7352,1.9641,2.0004,2.0921,2.3525,2.5298,2.7367,3.0227,3.3957,3.6419,3.6688,3.7194,3.751,3.751,3.751,3.751,3.751,3.7685,3.7815,3.7815,3.7612,3.7612,3.7815,3.7815,3.8071,3.8629,3.8071,3.81,3.8629,3.8197,3.8042,3.8189,3.8645,3.8903,0.0,3.9489,3.9825,4.0003,4.0187,4.0088,3.9764,3.945,3.9064,3.8601,3.7757,3.7208,3.6843,3.6522,3.6376,3.6301,3.6301,3.6301,3.6301,3.6301,3.6301,3.6301,3.6301,3.6301,3.6301,3.6301,3.6301,3.6301,3.6301,3.6301,3.6301,3.6301,3.5921,3.5611,3.5611,3.5232,3.4921,3.4921,3.4921,3.4921,3.4921,3.4641,3.4337,3.4065,3.4031,3.3656,3.2747,3.2386,3.2093,3.1817,3.18,3.18,3.18,3.18,3.1921,3.2214,3.2214,3.2352,3.2662,3.2817,3.2904,3.2886,3.2421,3.2369,0.0,1.998,2.0996,2.0932,2.0341,1.9594,1.8922,1.8159,0.0,1.6752,1.661,1.6641,1.6736,1.672,1.7194,1.8756,1.9025,2.0241,2.3572,2.4906,2.701,3.1033,3.3293,3.4794,3.5473,3.6735,3.751,3.751,3.751,3.751,3.751,3.8014,3.8306,3.8306,3.7873,3.7873,3.8379,3.8306,3.8629,3.9259,3.8601,3.8629,3.9152,3.8103,3.8144,3.9044,3.8629,3.9005,3.9902,3.9401,3.9532,3.9952,3.9401,3.9506,3.9927,3.9885,3.9488,3.8963,3.8863,3.7667,3.623,3.6609,3.6614,3.6456,3.6404,3.6353,3.6301,3.6301,3.6301,3.6301,3.6301,3.6301,3.6301,3.6301,3.6301,3.6301,3.6301,3.6301,3.6301,3.6301,3.6301,3.6301,3.6301,3.6301,3.6301,3.6301,3.6301,3.6301,3.6301,3.628,3.5983,3.5294,3.5225,3.4932,3.4174,3.3419,3.2697,3.2007,3.1955,3.1955,3.1955,3.1955,3.2283,3.2972,3.299,3.3369,3.4182,3.3369,3.3007,3.3059,3.3007,3.3386,1.4874,0.0,1.703,1.6358,1.6422,1.6619,0.0,1.6633,1.6815,1.6641,0.0,1.6941,1.8015,1.7794,1.8425,2.1443,2.2343,2.3335,2.523,2.8449,3.1532,3.4099,3.5774,3.683,3.7004,3.732,3.751,3.751,3.751,3.751,3.751,3.8014,3.8306,3.8306,3.8618,3.8854,3.8974,3.8546,3.8805,3.98,3.8761,3.8629,3.9206,3.8936,3.8483,3.796,3.9119,3.9516,3.9375,3.9259,3.9532,3.9952,3.9401,3.9286,3.9322,3.8859,3.9146,3.9589,3.8588,3.8478,3.8721,3.8288,3.8092,3.7939,3.7392,3.6784,3.6301,3.6301,3.6301,3.6301,3.6301,3.6301,3.6301,3.6301,3.6301,3.6301,3.6301,3.6301,3.6301,3.6301,3.6301,3.6301,3.6301,3.6301,3.6301,3.6301,3.6301,3.6301,3.6301,3.5985,3.5698,3.5511,3.5511,3.5188,3.4402,3.4034,3.3731,3.3578,3.3561,3.3561,3.3561,3.3561,3.3647,3.38,3.3818,3.418,3.4938,3.418,3.4111,3.4645,3.4076,3.3923,1.3165,1.464,1.612,1.5652,1.6038,1.656,1.656,0.0,0.0,0.0,0.0,1.6941,1.8031,1.8204,1.9088,2.1932,2.2975,2.4492,2.7494,3.0995,3.3862,3.5647,3.6817,3.751,3.751,3.751,3.751,3.751,3.751,3.7612,3.7857,3.8395,3.8712,3.8712,3.9279,3.9584,3.9584,3.9236,3.9378,3.9978,3.9146,3.8892,3.9179,3.8662,3.823,3.7915,3.8562,3.8821,3.881,3.881,3.8957,3.9193,3.8903,3.881,3.8767,3.8739,3.9119,3.9569,3.9074,3.91,3.9211,3.8465,3.8402,3.8525,3.8134,3.7478,3.6766,3.6404,3.6301,3.6301,3.6301,3.6301,3.6301,3.6301,3.6301,3.6301,3.6301,3.6301,3.6301,3.6301,3.6301,3.6301,3.6301,3.6301,3.6301,3.6301,3.6301,3.6301,3.6301,3.6071,3.592,3.592,3.592,3.5732,3.5322,3.5156,3.4818,3.4148,3.4113,3.4113,3.4113,3.4113,3.4268,3.4614,3.4938,3.5128,3.5197,3.4783,3.48,3.518,3.4783,3.4803,1.2772,1.4747,1.6691,1.6373,1.6925,1.7573,1.7683,0.0,0.0,0.0,0.0,0.0,1.8157,1.8788,1.9894,2.2104,2.3243,2.5444,3.003,3.2782,3.4826,3.6219,3.7054,3.751,3.751,3.751,3.751,3.751,3.751,3.7714,3.8153,3.8756,3.9055,3.9055,3.9671,3.9952,3.9876,3.9952,4.0003,4.0003,3.9454,3.9206,3.9152,3.8087,3.7844,3.8169,3.7786,3.7886,3.8278,3.821,3.8238,3.8306,3.8306,3.8306,3.8362,3.8974,3.9259,3.9401,3.9969,3.9738,3.911,3.8496,3.859,3.8945,3.8801,3.8341,3.7685,3.687,3.6473,3.6301,3.6301,3.6301,3.6301,3.6301,3.6301,3.6301,3.6301,3.6301,3.6301,3.6301,3.6301,3.6301,3.6301,3.6301,3.6301,3.6301,3.6301,3.6301,3.6301,3.6301,3.6301,3.6301,3.6301,3.6301,3.6301,3.6301,3.5766,3.4507,3.4441,3.4441,3.4441,3.4441,3.4734,3.5352,3.5973,3.599,3.537,3.537,3.537,3.537,3.537,3.5697,1.397,1.5867,1.7115,1.5359,1.5852,1.6941,1.7573,0.0,0.0,0.0,0.0,0.0,0.0,2.1299,2.2264,2.4934,2.6919,2.924,3.2376,3.3672,3.4826,3.6219,3.7054,3.751,3.751,3.751,3.751,3.751,3.751,3.7539,3.7612,3.8141,3.8435,3.8435,3.943,3.9774,3.9339,3.9774,4.0003,4.0003,3.9454,3.9206,3.9179,3.849,3.7985,3.7626,3.8014,3.8238,3.825,3.7815,3.7886,3.8306,3.8306,3.8306,3.8362,3.8974,3.948,3.9952,4.0549,4.0689,4.0569,4.0449,4.0479,4.0429,3.9733,3.9439,3.9198,3.8456,3.7301,3.6301,3.6301,3.6301,3.6301,3.6301,3.6301,3.6301,3.6301,3.6301,3.6301,3.6301,3.6301,3.6301,3.6301,3.6301,3.6301,3.6301,3.6301,3.6301,3.6301,3.6301,3.6301,3.6301,3.6301,3.6301,3.6301,3.6301,3.6197,3.5973,3.5956,3.5956,3.5956,3.5956,3.6008,3.6128,3.6232,3.6232,3.6128,3.6128,3.6128,3.6128,3.6128,3.6197,1.3299,1.5252,1.6973,1.6404,1.7873,1.9451,1.9404,1.9388,0.0,0.0,0.0,0.0,0.0,2.2469,2.4018,2.7156,2.9746,3.1966,3.3609,3.4762,3.5821,3.6864,3.7275,3.751,3.751,3.751,3.7612,3.7915,3.7655,3.7902,3.8794,3.8502,3.8446,3.8767,3.9594,3.9594,3.8712,3.9876,4.0003,3.9086,3.9162,3.9028,3.8712,3.8435,3.8339,3.8427,3.8673,3.881,3.8794,3.8821,3.8821,3.8821,3.9102,3.9049,3.8865,3.9411,3.9995,4.0524,4.0799,4.0912,4.0912,4.0912,4.0912,4.0843,4.0463,4.0026,3.9629,3.9284,3.8094,3.696,3.696,3.6628,3.6301,3.6301,3.6301,3.6301,3.6301,3.6301,3.6301,3.6301,3.6301,3.6301,3.6301,3.6301,3.6301,3.6301,3.6301,3.6301,3.6301,3.6301,3.6301,3.6301,3.6301,3.6301,3.6301,3.6301,3.6301,3.6301,3.6301,3.6301,3.6301,3.6301,3.6301,3.6301,3.6301,3.6301,3.6301,3.6301,3.6301,3.6301,3.6301,3.6301,1.2899,1.4762,1.6801,1.7715,0.0,2.1616,2.1537,2.1395,2.1396,0.0,0.0,0.0,2.2722,2.4239,2.6288,2.913,3.1823,3.3767,3.4446,3.5631,3.669,3.7415,3.751,3.751,3.751,3.751,3.7685,3.8084,3.7727,3.8059,3.9342,3.8601,3.8311,3.8799,3.9463,3.9342,3.8306,4.0045,4.0145,3.8707,3.9172,3.9146,3.8695,3.8574,3.8767,3.9206,3.9206,3.9206,3.9216,3.9645,3.9584,3.9259,3.9774,3.9842,3.9653,4.007,4.05,4.0912,4.0912,4.0912,4.0912,4.0912,4.0912,4.0912,4.0912,4.048,3.9974,3.9974,3.9026,3.7996,3.7806,3.7163,3.6577,3.6577,3.6439,3.6301,3.6301,3.6301,3.6301,3.6301,3.6301,3.6301,3.6301,3.6301,3.6301,3.6301,3.6301,3.6301,3.6301,3.6301,3.6301,3.6301,3.6301,3.6301,3.6301,3.6301,3.6301,3.6301,3.6301,3.6301,3.6301,3.6301,3.6301,3.6301,3.6301,3.6301,3.6301,3.6301,3.6301,3.6301,3.6301,3.6301,1.4095,1.5504,1.6925,1.8283,1.9767,2.1363,2.3241,2.3196,0.0,2.4416,0.0,2.4906,2.5582,2.7921,3.0022,3.0923,3.2835,3.4478,3.5205,3.5947,3.669,3.7415,3.751,3.751,3.751,3.751,3.751,3.7553,3.7539,3.7553,3.7671,3.7612,3.7583,3.7612,3.8689,3.8947,3.8322,4.0045,4.0549,3.9876,3.9927,3.9927,3.9859,3.9375,3.9152,3.9206,3.9206,3.9206,3.9206,3.9259,3.9216,3.9259,3.9774,4.0311,4.0776,4.0823,4.0847,4.0912,4.0912,4.0912,4.0912,4.0912,4.0912,4.0912,4.0912,4.086,4.0825,4.0825,4.0198,3.937,3.8703,3.7978,3.7426,3.7426,3.6835,3.6301,3.6301,3.6301,3.6301,3.6301,3.6301,3.6301,3.6301,3.6301,3.6301,3.6301,3.6301,3.6301,3.6301,3.6301,3.6301,3.6301,3.6301,3.6301,3.6301,3.6301,3.6301,3.6301,3.6301,3.6301,3.6301,3.6301,3.6301,3.6301,3.6301,3.6301,3.6301,3.6301,3.6301,3.6301,3.6301,3.6301,1.3162,1.5252,1.7415,1.7952,2.0115,0.0,0.0,2.4381,2.5219,2.6646,2.7257,2.7636,2.7867,2.9169,3.0417,3.1097,3.3324,3.5078,3.5347,3.6358,3.718,3.7478,3.751,3.751,3.751,3.751,3.7642,3.7985,3.7685,3.7801,3.8523,3.7889,3.7655,3.7985,3.8783,3.9082,3.8865,4.0212,4.0799,4.0549,4.017,4.0003,4.0003,3.9774,3.9893,4.0254,4.0254,4.0254,4.0254,4.0254,4.0254,4.0279,4.0476,4.071,4.0912,4.0912,4.0912,4.0912,4.0912,4.0912,4.0912,4.0912,4.0912,4.0912,4.0912,4.0912,4.0912,4.0912,4.0687,4.0273,3.9491,3.8755,3.8185,3.8185,3.7939,3.7732,3.7732,3.7732,3.7577,3.715,3.7064,3.6887,3.6387,3.6301,3.6301,3.6301,3.6301,3.6301,3.6301,3.6301,3.6301,3.6301,3.6301,3.6301,3.6301,3.6301,3.6301,3.6301,3.6301,3.6301,3.6301,3.6301,3.6301,3.6301,3.6301,3.6301,3.6301,3.6301,3.6301,3.6301,3.6301,3.6301,1.3152,1.5378,1.7809,1.8252,0.0,0.0,2.4535,2.5661,2.6814,2.8426,2.9137,2.9493,2.9714,3.018,3.0812,3.1729,3.3846,3.5458,3.5695,3.6738,3.751,3.751,3.751,3.751,3.751,3.751,3.7655,3.8014,3.7714,3.7831,3.8606,3.7902,3.7756,3.8278,3.8892,3.9269,3.9454,4.0427,4.0912,4.0912,4.0483,4.0269,4.0269,4.0269,4.0524,4.0912,4.0912,4.0912,4.0912,4.0912,4.0912,4.0912,4.0912,4.0912,4.0912,4.0912,4.0912,4.0912,4.0912,4.0912,4.0912,4.0912,4.0912,4.0912,4.0912,4.0912,4.0912,4.0912,4.0912,4.0774,4.0215,3.9508,3.8939,3.8939,3.8767,3.8594,3.8594,3.8594,3.8439,3.7961,3.7858,3.7616,3.6801,3.668,3.6594,3.6335,3.6301,3.6301,3.6301,3.6301,3.6301,3.6301,3.6301,3.6301,3.6301,3.6301,3.6301,3.6301,3.6301,3.6301,3.6301,3.6301,3.6301,3.6301,3.6301,3.6301,3.6301,3.6301,3.6301,3.6301,3.6301,3.6301,1.46,1.612,1.8046,1.9451,0.0,0.0,2.6325,2.7115,2.7715,2.9809,3.022,3.0417,3.1097,3.1198,3.1681,3.3072,3.4478,3.5631,3.6298,3.7022,3.751,3.751,3.751,3.751,3.751,3.751,3.751,3.751,3.751,3.751,3.751,3.751,3.7756,3.8278,3.8892,3.9454,4.0003,4.0597,4.0912,4.0912,4.0912,4.0912,4.0912,4.0912,4.0912,4.0912,4.0912,4.0912,4.0912,4.0912,4.0912,4.0912,4.0912,4.0912,4.0912,4.0912,4.0912,4.0912,4.0912,4.0912,4.0912,4.0912,4.0912,4.0912,4.0912,4.0912,4.0912,4.0912,4.0912,4.0912,4.0912,4.0325,3.9715,3.9715,3.9146,3.8612,3.8612,3.8612,3.8612,3.8594,3.8594,3.8392,3.765,3.7512,3.7254,3.6439,3.6318,3.6318,3.6318,3.6318,3.6318,3.6318,3.6318,3.6318,3.6318,3.6318,3.6318,3.6318,3.6318,3.6318,3.6301,3.6301,3.6301,3.6301,3.6301,3.6301,3.6301,3.6301,3.6301,3.6301,3.6301,3.6301,1.4727,1.6465,1.874,2.0146,0.0,0.0,0.0,2.8173,0.0,3.1855,3.2023,3.1738,3.1943,3.1975,3.2117,3.2529,3.4162,3.5458,3.5663,3.6722,3.751,3.751,3.751,3.751,3.751,3.751,3.751,3.751,3.751,3.751,3.751,3.751,3.7756,3.8278,3.8892,3.9454,4.0003,4.0597,4.0912,4.0912,4.0912,4.0912,4.0912,4.0912,4.0912,4.0912,4.0912,4.0912,4.0912,4.0912,4.0912,4.0912,4.0912,4.0912,4.0912,4.0912,4.0912,4.0912,4.0912,4.0912,4.0912,4.0912,4.0912,4.0912,4.0912,4.0912,4.0912,4.0912,4.0912,4.0912,4.0912,4.0722,4.0549,4.0549,4.0394,4.0221,4.0221,4.0221,4.0066,3.9474,3.937,3.9129,3.841,3.8272,3.818,3.7939,3.7905,3.7905,3.7905,3.7905,3.7905,3.7905,3.7905,3.7905,3.7905,3.7905,3.7905,3.7905,3.7905,3.7422,3.6335,3.6301,3.6301,3.6301,3.6301,3.6301,3.6301,3.6301,3.6301,3.6301,3.6301,3.6301,1.6196,1.8061,2.0304,2.1695,2.4255,2.702,2.9271,3.0069,3.0939,3.2898,3.2782,3.2386,3.2655,3.2481,3.2465,3.3003,3.4157,3.5063,3.5347,3.6358,3.7054,3.7054,3.7306,3.751,3.751,3.751,3.751,3.751,3.751,3.751,3.751,3.7714,3.8071,3.8629,3.9226,3.9791,4.036,4.071,4.0912,4.0912,4.0912,4.0912,4.0912,4.0912,4.0912,4.0912,4.0912,4.0912,4.0912,4.0912,4.0912,4.0912,4.0912,4.0912,4.0912,4.0912,4.0912,4.0912,4.0912,4.0912,4.0912,4.0912,4.0912,4.0912,4.0912,4.0912,4.0912,4.0912,4.0912,4.0912,4.0912,4.0912,4.0912,4.0912,4.0912,4.0912,4.0912,4.0912,4.0774,4.0267,4.0164,3.9922,3.9163,3.9026,3.8922,3.8629,3.8594,3.8594,3.8594,3.8594,3.8594,3.8594,3.8594,3.8594,3.8594,3.8594,3.8594,3.8594,3.8594,3.8163,3.7249,3.6922,3.6766,3.6766,3.6766,3.6922,3.7215,3.7215,3.7215,3.7215,3.7215,3.7215,1.8252,2.0178,2.2169,2.3699,2.5803,2.8316,3.1564,3.2339,3.256,3.3166,3.2829,3.2576,3.3182,3.2813,3.2797,3.4004,3.4257,3.4525,3.5205,3.5884,3.6329,3.6393,3.699,3.7431,3.7494,3.751,3.751,3.751,3.751,3.751,3.751,3.8014,3.8574,3.9179,3.9723,4.0294,4.0894,4.0912,4.0912,4.0912,4.0912,4.0912,4.0912,4.0912,4.0912,4.0912,4.0912,4.0912,4.0912,4.0912,4.0912,4.0912,4.0912,4.0912,4.0912,4.0912,4.0912,4.0912,4.0912,4.0912,4.0912,4.0912,4.0912,4.0912,4.0912,4.0912,4.0912,4.0912,4.0912,4.0912,4.0912,4.0912,4.0912,4.0912,4.0912,4.0912,4.0912,4.0912,4.0912,4.0912,4.0912,4.067,3.9939,3.9802,3.9577,3.8927,3.8801,3.8801,3.8801,3.8801,3.8801,3.8801,3.8801,3.8801,3.8801,3.8801,3.8801,3.8801,3.8801,3.8789,3.8698,3.7996,3.7599,3.7599,3.7599,3.7944,3.8594,3.8594,3.8594,3.8594,3.8594,3.8594,1.7825,1.9451,0.0,2.4792,2.7968,3.067,3.1991,3.2718,3.3119,3.3277,3.3182,3.3119,3.3277,3.3182,3.3182,3.3467,3.3957,3.4352,3.451,3.5157,3.5821,3.6329,3.6535,3.6864,3.7447,3.751,3.751,3.751,3.751,3.751,3.751,3.8014,3.8574,3.9179,3.9723,4.0294,4.0894,4.0912,4.0912,4.0912,4.0912,4.0912,4.0912,4.0912,4.0912,4.0912,4.0912,4.0912,4.0912,4.0912,4.0912,4.0912,4.0912,4.0912,4.0912,4.0912,4.0912,4.0912,4.0912,4.0912,4.0912,4.0912,4.0912,4.0912,4.0912,4.0912,4.0912,4.0912,4.0912,4.0912,4.0912,4.0912,4.0912,4.0912,4.0912,4.0912,4.0912,4.0912,4.0912,4.0912,4.0912,4.086,4.0687,4.0653,4.0601,4.0429,4.0411,4.0411,4.0411,4.0411,4.0411,4.0411,4.0411,4.0411,4.0411,4.0411,4.0411,4.0411,4.0411,4.0135,3.9491,3.8772,3.8353,3.8353,3.8353,3.8444,3.8594,3.8594,3.8594,3.8594,3.8594,3.8594,1.7904,1.972,0.0,2.6056,2.8884,3.1002,3.2054,3.2576,3.2898,3.323,3.3309,3.3309,3.3309,3.3309,3.3309,3.3309,3.3593,3.3814,3.3814,3.4431,3.4999,3.5363,3.571,3.6074,3.6453,3.6769,3.6975,3.6975,3.7291,3.751,3.751,3.8298,3.8739,3.8767,3.9851,4.0434,4.0476,4.0776,4.0912,4.0912,4.0912,4.0912,4.0912,4.0912,4.0912,4.0912,4.0912,4.0912,4.0912,4.0912,4.0912,4.0912,4.0912,4.0912,4.0912,4.0912,4.0912,4.0912,4.0912,4.0912,4.0912,4.0912,4.0912,4.0912,4.0912,4.0912,4.0912,4.0912,4.0912,4.0912,4.0912,4.0912,4.0912,4.0912,4.0912,4.0912,4.0912,4.0912,4.0912,4.0912,4.0912,4.0912,4.0912,4.0912,4.0912,4.0912,4.0912,4.0912,4.0912,4.0912,4.0912,4.0912,4.0912,4.0912,4.0912,4.0912,4.0912,4.0912,4.0912,4.0722,4.0284,3.9928,3.9531,3.9129,3.9129,3.9301,3.9704,3.9704,3.9704,3.9704,3.9704,3.9704,1.7634,2.0083,2.2975,2.6783,2.8869,3.0362,3.1643,3.2117,3.2465,3.3008,3.323,3.3309,3.3309,3.3309,3.3309,3.3309,3.3309,3.3309,3.3309,3.3767,3.4162,3.4273,3.4826,3.5252,3.5379,3.5916,3.6219,3.6219,3.6896,3.7291,3.7291,3.8402,3.8865,3.8463,3.9927,4.0549,4.017,4.0662,4.0912,4.0912,4.0912,4.0912,4.0912,4.0912,4.0912,4.0912,4.0912,4.0912,4.0912,4.0912,4.0912,4.0912,4.0912,4.0912,4.0912,4.0912,4.0912,4.0912,4.0912,4.0912,4.0912,4.0912,4.0912,4.0912,4.0912,4.0912,4.0912,4.0912,4.0912,4.0912,4.0912,4.0912,4.0912,4.0912,4.0912,4.0912,4.0912,4.0912,4.0912,4.0912,4.0912,4.0912,4.0912,4.0912,4.0912,4.0912,4.0912,4.0912,4.0912,4.0912,4.0912,4.0912,4.0912,4.0912,4.0912,4.0912,4.0912,4.0912,4.0912,4.0912,4.0912,4.0912,4.0601,3.9905,3.9905,4.0215,4.0912,4.0912,4.0912,4.0912,4.0912,4.0912,1.562,0.0,2.3341,0.0,2.7772,2.9461,3.0299,3.1422,3.2323,3.2418,3.2882,3.3309,3.3309,3.3309,3.3309,3.3309,3.3309,3.3309,3.3309,3.3372,3.364,3.4225,3.4383,3.4683,3.5331,3.5473,3.5521,3.5521,3.6169,3.6535,3.6535,3.7733,3.8629,3.9055,3.9749,4.0336,4.0776,4.0847,4.0912,4.0912,4.0912,4.0912,4.0912,4.0912,4.0912,4.0912,4.0912,4.0912,4.0912,4.0912,4.0912,4.0912,4.0912,4.0912,4.0912,4.0912,4.0912,4.0912,4.0912,4.0912,4.0912,4.0912,4.0912,4.0912,4.0912,4.0912,4.0912,4.0912,4.0912,4.0912,4.0912,4.0912,4.0912,4.0912,4.0912,4.0912,4.0912,4.0912,4.0912,4.0912,4.0912,4.0912,4.0912,4.0912,4.0912,4.0912,4.0912,4.0912,4.0912,4.0912,4.0912,4.0912,4.0912,4.0912,4.0912,4.0912,4.0912,4.0912,4.0912,4.0912,4.0912,4.0912,4.086,4.0739,4.0739,4.0791,4.0912,4.0912,4.0912,4.0912,4.0912,4.0912,1.6541,1.9467,2.2329,0.0,2.672,2.8246,2.9343,3.037,3.1232,3.1602,3.226,3.2835,3.323,3.3309,3.3309,3.3309,3.3309,3.3309,3.3309,3.3309,3.3419,3.3704,3.3735,3.3862,3.4194,3.4557,3.4778,3.4778,3.5442,3.5853,3.5853,3.6649,3.7438,3.8095,3.8991,3.9738,4.0385,4.0734,4.0912,4.0912,4.0912,4.0912,4.0912,4.0912,4.0912,4.0912,4.0912,4.0912,4.0912,4.0912,4.0912,4.0912,4.0912,4.0912,4.0912,4.0912,4.0912,4.0912,4.0912,4.0912,4.0912,4.0912,4.0912,4.0912,4.0912,4.0912,4.0912,4.0912,4.0912,4.0912,4.0912,4.0912,4.0912,4.0912,4.0912,4.0912,4.0912,4.0912,4.0912,4.0912,4.0912,4.0912,4.0912,4.0912,4.0912,4.0912,4.0912,4.0912,4.0912,4.0912,4.0912,4.0912,4.0912,4.0912,4.0912,4.0912,4.0912,4.0912,4.0912,4.0912,4.0912,4.0912,4.0912,4.0912,4.0912,4.0912,4.0912,4.0912,4.0912,4.0912,4.0912,4.0912,1.6449,0.0,2.0636,2.3278,2.527,2.6925,2.8277,2.9295,3.0117,3.0812,3.1507,3.2181,3.2677,3.3072,3.3309,3.3309,3.3309,3.3309,3.3309,3.3309,3.3309,3.3309,3.3309,3.3309,3.3309,3.3751,3.4036,3.4036,3.4699,3.511,3.511,3.5797,3.648,3.721,3.8187,3.9078,3.9914,4.0559,4.0912,4.0912,4.0912,4.0912,4.0912,4.0912,4.0912,4.0912,4.0912,4.0912,4.0912,4.0912,4.0912,4.0912,4.0912,4.0912,4.0912,4.0912,4.0912,4.0912,4.0912,4.0912,4.0912,4.0912,4.0912,4.0912,4.0912,4.0912,4.0912,4.0912,4.0912,4.0912,4.0912,4.0912,4.0912,4.0912,4.0912,4.0912,4.0912,4.0912,4.0912,4.0912,4.0912,4.0912,4.0912,4.0912,4.0912,4.0912,4.0912,4.0912,4.0912,4.0912,4.0912,4.0912,4.0912,4.0912,4.0912,4.0912,4.0912,4.0912,4.0912,4.0912,4.0912,4.0912,4.0912,4.0912,4.0912,4.0912,4.0912,4.0912,4.0912,4.0912,4.0912,4.0912,0.0,1.5769,0.0,2.0494,2.3072,2.5476,2.6878,2.8214,2.9367,3.0109,3.0796,3.1286,3.1293,3.2408,3.3309,3.3309,3.3309,3.3309,3.3309,3.3309,3.3309,3.3309,3.3309,3.3309,3.3309,3.3324,3.3356,3.3356,3.3972,3.4352,3.4352,3.5471,3.6385,3.7002,3.7582,3.8459,3.9704,4.0491,4.0912,4.0912,4.0912,4.0912,4.0912,4.0912,4.0912,4.0912,4.0912,4.0912,4.0912,4.0912,4.0912,4.0912,4.0912,4.0912,4.0912,4.0912,4.0912,4.0912,4.0912,4.0912,4.0912,4.0912,4.0912,4.0912,4.0912,4.0912,4.0912,4.0912,4.0912,4.0912,4.0912,4.0912,4.0912,4.0912,4.0912,4.0912,4.0912,4.0912,4.0912,4.0912,4.0912,4.0912,4.0912,4.0912,4.0912,4.0912,4.0912,4.0912,4.0912,4.0912,4.0912,4.0912,4.0912,4.0912,4.0912,4.0912,4.0912,4.0912,4.0912,4.0912,4.0912,4.0912,4.0912,4.0912,4.0912,4.0912,4.0912,4.0912,4.0912,4.0912,4.0912,4.0912,0.0,0.0,0.0,1.8834,2.0906,2.2787,2.4634,2.6114,2.7446,2.86,2.939,2.9998,3.0464,3.1318,3.2108,3.2592,3.2671,3.2829,3.3245,3.3309,3.3309,3.3309,3.3309,3.3309,3.3309,3.3309,3.3309,3.3309,3.353,3.3656,3.3656,3.439,3.5295,3.6348,3.6841,3.7927,3.9681,4.0515,4.0912,4.0912,4.0912,4.0912,4.0912,4.0912,4.0912,4.0912,4.0912,4.0912,4.0912,4.0912,4.0912,4.0912,4.0912,4.0912,4.0912,4.0912,4.0912,4.0912,4.0912,4.0912,4.0912,4.0912,4.0912,4.0912,4.0912,4.0912,4.0912,4.0912,4.0912,4.0912,4.0912,4.0912,4.0912,4.0912,4.0912,4.0912,4.0912,4.0912,4.0912,4.0912,4.0912,4.0912,4.0912,4.0912,4.0912,4.0912,4.0912,4.0912,4.0912,4.0912,4.0912,4.0912,4.0912,4.0912,4.0912,4.0912,4.0912,4.0912,4.0912,4.0912,4.0912,4.0912,4.0912,4.0912,4.0912,4.0912,4.0912,4.0912,4.0912,4.0912,4.0912,4.0912,1.2473,0.0,0.0,1.75,1.9102,2.0699,2.3038,2.4476,2.5693,2.7099,2.8142,2.8893,2.939,3.0038,3.0828,3.176,3.1943,3.2181,3.2866,3.2945,3.304,3.3277,3.3309,3.3309,3.3309,3.3309,3.3309,3.3309,3.3309,3.3372,3.3555,3.4059,3.4872,3.6061,3.6684,3.7735,3.9319,4.0095,4.0636,4.0912,4.0912,4.0912,4.0912,4.0912,4.0912,4.0912,4.0912,4.0912,4.0912,4.0912,4.0912,4.0912,4.0912,4.0912,4.0912,4.0912,4.0912,4.0912,4.0912,4.0912,4.0912,4.0912,4.0912,4.0912,4.0912,4.0912,4.0912,4.0912,4.0912,4.0912,4.0912,4.0912,4.0912,4.0912,4.0912,4.0912,4.0912,4.0912,4.0912,4.0912,4.0912,4.0912,4.0912,4.0912,4.0912,4.0912,4.0912,4.0912,4.0912,4.0912,4.0912,4.0912,4.0912,4.0912,4.0912,4.0912,4.0912,4.0912,4.0912,4.0912,4.0912,4.0912,4.0912,4.0912,4.0912,4.0912,4.0912,4.0912,4.0912,4.0912,4.0912,4.0912,0.0,0.0,0.0,1.6368,1.7656,1.9341,2.2123,2.3259,2.4156,2.5645,2.702,2.8,2.8047,2.8616,2.9493,3.0867,3.1135,3.1428,3.2165,3.226,3.2529,3.3182,3.3277,3.3277,3.3309,3.3309,3.3309,3.3309,3.3309,3.3529,3.4075,3.4545,3.5283,3.628,3.7077,3.7858,3.8543,3.9319,4.0077,4.086,4.0894,4.0912,4.0912,4.0912,4.0912,4.0912,4.0912,4.0912,4.0912,4.0912,4.0912,4.0912,4.0912,4.0912,4.0912,4.0912,4.0912,4.0912,4.0912,4.0912,4.0912,4.0912,4.0912,4.0912,4.0912,4.0912,4.0912,4.0912,4.0912,4.0912,4.0912,4.0912,4.0912,4.0912,4.0912,4.0912,4.0912,4.0912,4.0912,4.0912,4.0912,4.0912,4.0912,4.0912,4.0912,4.0912,4.0912,4.0912,4.0912,4.0912,4.0912,4.0912,4.0912,4.0912,4.0912,4.0912,4.0912,4.0912,4.0912,4.0912,4.0912,4.0912,4.0912,4.0912,4.0912,4.0912,4.0912,4.0912,4.0912,4.0912,4.0912,4.0912,1.1906,0.0,0.0,0.0,0.0,0.0,1.874,1.9672,2.0951,2.3872,2.4788,2.555,2.7099,2.7541,2.7952,2.8821,2.9801,3.0717,3.1413,3.1507,3.176,3.2497,3.2576,3.2782,3.3245,3.3309,3.3309,3.3309,3.3309,3.3529,3.4075,3.4904,3.5661,3.628,3.7077,3.7599,3.7806,3.906,3.9802,4.0026,4.0636,4.0912,4.0912,4.0912,4.0912,4.0912,4.0912,4.0912,4.0912,4.0912,4.0912,4.0912,4.0912,4.0912,4.0912,4.0912,4.0912,4.0912,4.0912,4.0912,4.0912,4.0912,4.0912,4.0912,4.0912,4.0912,4.0912,4.0912,4.0912,4.0912,4.0912,4.0912,4.0912,4.0912,4.0912,4.0912,4.0912,4.0912,4.0912,4.0912,4.0912,4.0912,4.0912,4.0912,4.0912,4.0912,4.0912,4.0912,4.0912,4.0912,4.0912,4.0912,4.0912,4.0912,4.0912,4.0912,4.0912,4.0912,4.0912,4.0912,4.0912,4.0912,4.0912,4.0912,4.0912,4.0912,4.0912,4.0912,4.0912,4.0912,4.0912,4.0912,0.0,0.0,0.0,1.5767,0.0,0.0,1.8565,1.9073,1.9909,2.2532,2.3509,2.4267,2.5514,2.6261,2.6767,2.7162,2.8395,2.9682,3.0638,3.078,3.1049,3.1744,3.1823,3.2108,3.2803,3.2866,3.2993,3.3277,3.3309,3.3617,3.4341,3.5345,3.6028,3.6301,3.6749,3.7167,3.7512,3.8336,3.8922,3.925,3.9738,3.9945,3.9963,4.0273,4.0411,4.0429,4.0756,4.0912,4.0912,4.0912,4.0912,4.0912,4.0912,4.0912,4.0912,4.0912,4.0912,4.0912,4.0912,4.0912,4.0912,4.0912,4.0912,4.0912,4.0912,4.0912,4.0912,4.0912,4.0912,4.0912,4.0912,4.0912,4.0912,4.0912,4.0912,4.0912,4.0912,4.0912,4.0912,4.0912,4.0912,4.0912,4.0912,4.0912,4.0912,4.0912,4.0912,4.0912,4.0912,4.0912,4.0912,4.0912,4.0912,4.0912,4.0912,4.0912,4.0912,4.0912,4.0912,4.0912,4.0912,4.0912,4.0912,4.0912,4.0912,4.0912,4.0912,4.0912,4.0912,4.0912,4.0912,4.0912,1.6392,1.6589,0.0,1.8521,1.8057,0.0,1.9893,1.9957,1.9941,2.1268,2.2483,2.3367,2.3525,2.465,2.5566,2.5645,2.683,2.8268,2.9761,3.003,3.0322,3.1018,3.1097,3.1381,3.2117,3.2181,3.2434,3.3024,3.324,3.3777,3.4745,3.5749,3.6301,3.6301,3.6301,3.6628,3.7374,3.7461,3.784,3.8496,3.8543,3.8594,3.8634,3.9353,3.9698,3.9733,4.0567,4.0912,4.0912,4.0912,4.0912,4.0912,4.0912,4.0912,4.0912,4.0912,4.0912,4.0912,4.0912,4.0912,4.0912,4.0912,4.0912,4.0912,4.0912,4.0912,4.0912,4.0912,4.0912,4.0912,4.0912,4.0912,4.0912,4.0912,4.0912,4.0912,4.0912,4.0912,4.0912,4.0912,4.0912,4.0912,4.0912,4.0912,4.0912,4.0912,4.0912,4.0912,4.0912,4.0912,4.0912,4.0912,4.0912,4.0912,4.0912,4.0912,4.0912,4.0912,4.0912,4.0912,4.0912,4.0912,4.0912,4.0912,4.0912,4.0912,4.0912,4.0912,4.0912,4.0912,4.0912,4.0912,1.7572,1.8374,1.931,1.7857,1.8501,0.0,1.7933,1.789,1.8346,1.9167,1.953,2.0067,2.1205,2.2106,2.288,2.342,2.4685,2.6282,2.8243,2.8979,2.9572,3.0306,3.041,3.0654,3.1349,3.1413,3.1476,3.1602,3.291,3.4016,3.4759,3.5749,3.6301,3.6301,3.6301,3.6387,3.6525,3.7185,3.7581,3.7719,3.8301,3.8594,3.8634,3.9353,3.9698,3.9733,4.0567,4.0912,4.0912,4.0912,4.0912,4.0912,4.0912,4.0912,4.0912,4.0912,4.0912,4.0912,4.0912,4.0912,4.0912,4.0912,4.0912,4.0912,4.0912,4.0912,4.0912,4.0912,4.0912,4.0912,4.0912,4.0912,4.0912,4.0912,4.0912,4.0912,4.0912,4.0912,4.0912,4.0912,4.0912,4.0912,4.0912,4.0912,4.0912,4.0912,4.0912,4.0912,4.0912,4.0912,4.0912,4.0912,4.0912,4.0912,4.0912,4.0912,4.0912,4.0912,4.0912,4.0912,4.0912,4.0912,4.0912,4.0912,4.0912,4.0912,4.0912,4.0912,4.0912,4.0912,4.0912,4.0912,1.9478,1.9775,2.0492,2.0005,2.0056,0.0,0.0,1.9127,1.9041,2.0083,1.9751,1.9578,2.0605,2.1094,2.1458,2.1807,2.3307,2.4808,2.5866,2.7204,2.8252,2.86,2.8647,2.9058,3.0061,3.014,3.044,3.1135,3.2793,3.3951,3.4293,3.5567,3.6301,3.6301,3.6301,3.6301,3.6301,3.6697,3.6887,3.6904,3.7267,3.7439,3.7473,3.8249,3.8784,3.9181,3.9957,4.0532,4.0912,4.0912,4.0912,4.0912,4.0912,4.0912,4.0912,4.0912,4.0912,4.0912,4.0912,4.0912,4.0912,4.0912,4.0912,4.0912,4.0912,4.0912,4.0912,4.0912,4.0912,4.0912,4.0912,4.0912,4.0912,4.0912,4.0912,4.0912,4.0912,4.0912,4.0912,4.0912,4.0912,4.0912,4.0912,4.0912,4.0912,4.0912,4.0912,4.0912,4.0912,4.0912,4.0912,4.0912,4.0912,4.0912,4.0912,4.0912,4.0912,4.0912,4.0912,4.0912,4.0912,4.0912,4.0912,4.0912,4.0912,4.0912,4.0912,4.0912,4.0912,4.0912,4.0912,4.0912,2.1702,2.1547,2.1932,2.2569,2.2018,2.1406,0.0,0.0,0.0,2.111,2.0383,1.9751,2.0289,2.0399,2.0399,2.0399,2.2043,2.3257,2.313,2.482,2.623,2.6656,2.6814,2.732,2.8404,2.8388,2.9051,3.0875,3.2115,3.3078,3.3752,3.5248,3.6146,3.6301,3.6301,3.6301,3.6301,3.6301,3.6301,3.6301,3.6301,3.6301,3.6335,3.7129,3.7909,3.8629,3.937,4.0146,4.0912,4.0912,4.0912,4.0912,4.0912,4.0912,4.0912,4.0912,4.0912,4.0912,4.0912,4.0912,4.0912,4.0912,4.0912,4.0912,4.0912,4.0912,4.0912,4.0912,4.0912,4.0912,4.0912,4.0912,4.0912,4.0912,4.0912,4.0912,4.0912,4.0912,4.0912,4.0912,4.0912,4.0912,4.0912,4.0912,4.0912,4.0912,4.0912,4.0912,4.0912,4.0912,4.0912,4.0912,4.0912,4.0912,4.0912,4.0912,4.0912,4.0912,4.0912,4.0912,4.0912,4.0912,4.0912,4.0912,4.0912,4.0912,4.0912,4.0912,4.0912,4.0912,4.0912,4.0912,2.4017,2.458,2.5143,2.3338,2.3947,2.421,2.1195,0.0,2.0383,1.9293,0.0,1.8851,1.893,0.0,0.0,1.8945,2.0178,2.0936,2.0352,2.1504,2.3099,2.5017,2.5756,2.6182,2.634,2.5824,2.682,3.0077,2.9564,3.0488,3.362,3.4772,3.5611,3.6284,3.6301,3.6301,3.6301,3.6301,3.6301,3.6301,3.6301,3.6301,3.6335,3.7129,3.7909,3.8629,3.937,4.0146,4.0912,4.0912,4.0912,4.0912,4.0912,4.0912,4.0912,4.0912,4.0912,4.0912,4.0912,4.0912,4.0912,4.0912,4.0912,4.0912,4.0912,4.0912,4.0912,4.0912,4.0912,4.0912,4.0912,4.0912,4.0912,4.0912,4.0912,4.0912,4.0912,4.0912,4.0912,4.0912,4.0912,4.0912,4.0912,4.0912,4.0912,4.0912,4.0912,4.0912,4.0912,4.0912,4.0912,4.0912,4.0912,4.0912,4.0912,4.0912,4.0912,4.0912,4.0912,4.0912,4.0912,4.0912,4.0912,4.0912,4.0912,4.0912,4.0912,4.0912,4.0912,4.0912,4.0912,4.0912,2.4365,2.4644,2.5036,2.3835,2.3931,2.3869,2.2085,2.1327,2.091,2.0703,0.0,0.0,0.0,0.0,0.0,0.0,1.9198,1.9356,1.8678,1.9404,2.0778,2.2896,2.3433,2.3939,2.4713,2.4922,2.5622,2.7057,2.7575,2.8824,3.1178,3.3383,3.4887,3.5628,3.6077,3.6301,3.6301,3.6301,3.6301,3.6301,3.6301,3.6301,3.6318,3.6646,3.7456,3.8612,3.8922,3.9773,4.0912,4.0912,4.0912,4.0912,4.0912,4.0912,4.0912,4.0912,4.0912,4.0912,4.0912,4.0912,4.0912,4.0912,4.0912,4.0912,4.0912,4.0912,4.0912,4.0912,4.0912,4.0912,4.0912,4.0912,4.0912,4.0912,4.0912,4.0912,4.0912,4.0912,4.0912,4.0912,4.0912,4.0912,4.0912,4.0912,4.0912,4.0912,4.0912,4.0912,4.0912,4.0912,4.0912,4.0912,4.0912,4.0912,4.0912,4.0912,4.0912,4.0912,4.0912,4.0912,4.0912,4.0912,4.0912,4.0912,4.0912,4.0912,4.0912,4.0912,4.0912,4.0912,4.0912,4.0912,2.5119,2.5198,2.5357,2.4282,2.3849,2.348,2.2524,2.194,2.1629,2.1707,2.1163,0.0,0.0,0.0,1.8945,1.874,0.0,1.8473,1.778,1.8125,1.9041,2.0762,2.159,2.2512,2.3781,2.3779,2.4055,2.4942,2.5515,2.6911,2.9356,3.1835,3.3803,3.5145,3.5714,3.6094,3.6301,3.6301,3.6301,3.6301,3.6301,3.6301,3.6301,3.6301,3.7129,3.8594,3.8594,3.9457,4.0912,4.0912,4.0912,4.0912,4.0912,4.0912,4.0912,4.0912,4.0912,4.0912,4.0912,4.0912,4.0912,4.0912,4.0912,4.0912,4.0912,4.0912,4.0912,4.0912,4.0912,4.0912,4.0912,4.0912,4.0912,4.0912,4.0912,4.0912,4.0912,4.0912,4.0912,4.0912,4.0912,4.0912,4.0912,4.0912,4.0912,4.0912,4.0912,4.0912,4.0912,4.0912,4.0912,4.0912,4.0912,4.0912,4.0912,4.0912,4.0912,4.0912,4.0912,4.0912,4.0912,4.0912,4.0912,4.0912,4.0912,4.0912,4.0912,4.0912,4.0912,4.0912,4.0912,4.0912,2.7143,2.7333,2.7279,2.4662,2.4277,2.4002,2.1843,2.211,2.2455,2.1127,2.1886,2.2392,2.1047,2.0225,1.953,0.0,1.8708,0.0,0.0,1.7731,1.7999,1.8709,2.0863,2.2709,2.3799,2.1743,2.1649,2.4772,2.3177,2.4246,2.9243,3.0333,3.2145,3.5111,3.5214,3.5576,3.6284,3.6301,3.6301,3.6301,3.6301,3.6301,3.6301,3.6301,3.7129,3.8594,3.8594,3.9457,4.0912,4.0912,4.0912,4.0912,4.0912,4.0912,4.0912,4.0912,4.0912,4.0912,4.0912,4.0912,4.0912,4.0912,4.0912,4.0912,4.0912,4.0912,4.0912,4.0912,4.0912,4.0912,4.0912,4.0912,4.0912,4.0912,4.0912,4.0912,4.0912,4.0912,4.0912,4.0912,4.0912,4.0912,4.0912,4.0912,4.0912,4.0912,4.0912,4.0912,4.0912,4.0912,4.0912,4.0912,4.0912,4.0912,4.0912,4.0912,4.0912,4.0912,4.0912,4.0912,4.0912,4.0912,4.0912,4.0912,4.0912,4.0912,4.0912,4.0912,4.0912,4.0912,4.0912,4.0912,2.7551,2.7842,2.7768,2.5713,2.5179,2.4661,2.2688,2.285,2.2991,2.144,2.2192,2.2666,2.1245,2.0337,0.0,0.0,0.0,1.7794,0.0,1.6973,1.7399,1.8566,2.0226,2.1084,2.051,2.075,2.1181,2.1777,2.2539,2.4125,2.6775,2.9315,3.1628,3.3611,3.4663,3.5542,3.6284,3.6301,3.6301,3.6301,3.6301,3.6301,3.6301,3.6301,3.7129,3.8594,3.8594,3.9457,4.0912,4.0912,4.0912,4.0912,4.0912,4.0912,4.0912,4.0912,4.0912,4.0912,4.0912,4.0912,4.0912,4.0912,4.0912,4.0912,4.0912,4.0912,4.0912,4.0912,4.0912,4.0912,4.0912,4.0912,4.0912,4.0912,4.0912,4.0912,4.0912,4.0912,4.0912,4.0912,4.0912,4.0912,4.0912,4.0912,4.0912,4.0912,4.0912,4.0912,4.0912,4.0912,4.0912,4.0912,4.0912,4.0912,4.0912,4.0912,4.0912,4.0912,4.0912,4.0912,4.0912,4.0912,4.0912,4.0912,4.0912,4.0912,4.0912,4.0912,4.0912,4.0912,4.0912,4.0912,2.8002,2.8175,2.802,2.6464,2.5918,2.5293,2.337,2.3614,2.3804,2.2262,2.2663,2.311,2.2587,2.1276,2.0242,0.0,0.0,0.0,0.0,1.7036,1.7494,1.7904,1.9378,2.0127,1.9498,1.9747,2.013,2.0563,2.1333,2.2883,2.5468,2.8064,3.0541,3.2835,3.4128,3.5283,3.6284,3.6301,3.6301,3.6301,3.6301,3.6301,3.6301,3.6301,3.7129,3.8594,3.8594,3.9457,4.0912,4.0912,4.0912,4.0912,4.0912,4.0912,4.0912,4.0912,4.0912,4.0912,4.0912,4.0912,4.0912,4.0912,4.0912,4.0912,4.0912,4.0912,4.0912,4.0912,4.0912,4.0912,4.0912,4.0912,4.0912,4.0912,4.0912,4.0912,4.0912,4.0912,4.0912,4.0912,4.0912,4.0912,4.0912,4.0912,4.0912,4.0912,4.0912,4.0912,4.0912,4.0912,4.0912,4.0912,4.0912,4.0912,4.0912,4.0912,4.0912,4.0912,4.0912,4.0912,4.0912,4.0912,4.0912,4.0912,4.0912,4.0912,4.0912,4.0912,4.0912,4.0912,4.0912,4.0912]}]]